<?xml version="1.0" encoding="UTF-8" standalone="no" ?>
<gpx xmlns="http://www.topografix.com/GPX/1/1" xmlns:xsi="http://www.w3.org/2001/XMLSchema-instance" xsi:schemaLocation="http://www.topografix.com/GPX/1/1 http://www.topografix.com/GPX/1/1/gpx.xsd" version="1.1" creator="VisuGPX - https://www.visugpx.com">
  <metadata>
    <name>LAC ANNECY</name>
    <desc><![CDATA[TOUR LAC ANNECY]]></desc>
  </metadata>
  <trk>
    <name><![CDATA[Tour du Lac d'Annecy]]></name>
    <trkseg>
      <trkpt lat="45.88239" lon="6.08788">
        <ele>525.40002441406</ele>
        <time>2012-07-31T17:09:50.000Z</time>
      </trkpt>
      <trkpt lat="45.88238" lon="6.08785">
        <ele>535.40002441406</ele>
        <time>2012-07-31T17:09:51.000Z</time>
      </trkpt>
      <trkpt lat="45.88231" lon="6.08767">
        <ele>535.40002441406</ele>
        <time>2012-07-31T17:09:54.000Z</time>
      </trkpt>
      <trkpt lat="45.88221" lon="6.08745">
        <ele>533.40002441406</ele>
        <time>2012-07-31T17:09:57.000Z</time>
      </trkpt>
      <trkpt lat="45.88217" lon="6.08737">
        <ele>532</ele>
        <time>2012-07-31T17:09:58.000Z</time>
      </trkpt>
      <trkpt lat="45.88212" lon="6.08731">
        <ele>531</ele>
        <time>2012-07-31T17:09:59.000Z</time>
      </trkpt>
      <trkpt lat="45.88207" lon="6.08726">
        <ele>529.79998779297</ele>
        <time>2012-07-31T17:10:00.000Z</time>
      </trkpt>
      <trkpt lat="45.88198" lon="6.08721">
        <ele>529.79998779297</ele>
        <time>2012-07-31T17:10:02.000Z</time>
      </trkpt>
      <trkpt lat="45.88195" lon="6.08722">
        <ele>529.79998779297</ele>
        <time>2012-07-31T17:10:06.000Z</time>
      </trkpt>
      <trkpt lat="45.88196" lon="6.08725">
        <ele>529.79998779297</ele>
        <time>2012-07-31T17:10:08.000Z</time>
      </trkpt>
      <trkpt lat="45.88192" lon="6.08729">
        <ele>529.79998779297</ele>
        <time>2012-07-31T17:10:11.000Z</time>
      </trkpt>
      <trkpt lat="45.88191" lon="6.08744">
        <ele>529.79998779297</ele>
        <time>2012-07-31T17:10:15.000Z</time>
      </trkpt>
      <trkpt lat="45.88191" lon="6.08747">
        <ele>529.79998779297</ele>
        <time>2012-07-31T17:10:16.000Z</time>
      </trkpt>
      <trkpt lat="45.88188" lon="6.08774">
        <ele>529.79998779297</ele>
        <time>2012-07-31T17:10:21.000Z</time>
      </trkpt>
      <trkpt lat="45.88186" lon="6.0879">
        <ele>533</ele>
        <time>2012-07-31T17:10:24.000Z</time>
      </trkpt>
      <trkpt lat="45.88184" lon="6.08813">
        <ele>533</ele>
        <time>2012-07-31T17:10:27.000Z</time>
      </trkpt>
      <trkpt lat="45.88184" lon="6.08824">
        <ele>534</ele>
        <time>2012-07-31T17:10:29.000Z</time>
      </trkpt>
      <trkpt lat="45.88186" lon="6.08855">
        <ele>534</ele>
        <time>2012-07-31T17:10:34.000Z</time>
      </trkpt>
      <trkpt lat="45.88187" lon="6.08868">
        <ele>535.20001220703</ele>
        <time>2012-07-31T17:10:36.000Z</time>
      </trkpt>
      <trkpt lat="45.88189" lon="6.08898">
        <ele>536.20001220703</ele>
        <time>2012-07-31T17:10:41.000Z</time>
      </trkpt>
      <trkpt lat="45.88189" lon="6.08904">
        <ele>536.20001220703</ele>
        <time>2012-07-31T17:10:42.000Z</time>
      </trkpt>
      <trkpt lat="45.88191" lon="6.08938">
        <ele>536.20001220703</ele>
        <time>2012-07-31T17:10:47.000Z</time>
      </trkpt>
      <trkpt lat="45.8819" lon="6.08946">
        <ele>536.20001220703</ele>
        <time>2012-07-31T17:10:48.000Z</time>
      </trkpt>
      <trkpt lat="45.88184" lon="6.08969">
        <ele>536.20001220703</ele>
        <time>2012-07-31T17:10:51.000Z</time>
      </trkpt>
      <trkpt lat="45.88181" lon="6.08976">
        <ele>536.20001220703</ele>
        <time>2012-07-31T17:10:52.000Z</time>
      </trkpt>
      <trkpt lat="45.88173" lon="6.09001">
        <ele>536.20001220703</ele>
        <time>2012-07-31T17:10:55.000Z</time>
      </trkpt>
      <trkpt lat="45.88173" lon="6.09011">
        <ele>533.20001220703</ele>
        <time>2012-07-31T17:10:56.000Z</time>
      </trkpt>
      <trkpt lat="45.88174" lon="6.0902">
        <ele>533.20001220703</ele>
        <time>2012-07-31T17:10:57.000Z</time>
      </trkpt>
      <trkpt lat="45.88178" lon="6.09029">
        <ele>532</ele>
        <time>2012-07-31T17:10:58.000Z</time>
      </trkpt>
      <trkpt lat="45.88182" lon="6.09039">
        <ele>531</ele>
        <time>2012-07-31T17:10:59.000Z</time>
      </trkpt>
      <trkpt lat="45.88187" lon="6.09051">
        <ele>530</ele>
        <time>2012-07-31T17:11:00.000Z</time>
      </trkpt>
      <trkpt lat="45.88196" lon="6.09087">
        <ele>533.40002441406</ele>
        <time>2012-07-31T17:11:03.000Z</time>
      </trkpt>
      <trkpt lat="45.88199" lon="6.09099">
        <ele>533.40002441406</ele>
        <time>2012-07-31T17:11:04.000Z</time>
      </trkpt>
      <trkpt lat="45.882" lon="6.0911">
        <ele>529.40002441406</ele>
        <time>2012-07-31T17:11:05.000Z</time>
      </trkpt>
      <trkpt lat="45.88203" lon="6.09125">
        <ele>528.40002441406</ele>
        <time>2012-07-31T17:11:06.000Z</time>
      </trkpt>
      <trkpt lat="45.88205" lon="6.09133">
        <ele>527.40002441406</ele>
        <time>2012-07-31T17:11:07.000Z</time>
      </trkpt>
      <trkpt lat="45.88209" lon="6.09138">
        <ele>526.40002441406</ele>
        <time>2012-07-31T17:11:08.000Z</time>
      </trkpt>
      <trkpt lat="45.88219" lon="6.09139">
        <ele>526.40002441406</ele>
        <time>2012-07-31T17:11:10.000Z</time>
      </trkpt>
      <trkpt lat="45.8823" lon="6.09136">
        <ele>526.40002441406</ele>
        <time>2012-07-31T17:11:12.000Z</time>
      </trkpt>
      <trkpt lat="45.88248" lon="6.09133">
        <ele>525.20001220703</ele>
        <time>2012-07-31T17:11:15.000Z</time>
      </trkpt>
      <trkpt lat="45.88254" lon="6.09133">
        <ele>522.79998779297</ele>
        <time>2012-07-31T17:11:16.000Z</time>
      </trkpt>
      <trkpt lat="45.88261" lon="6.09133">
        <ele>522.79998779297</ele>
        <time>2012-07-31T17:11:17.000Z</time>
      </trkpt>
      <trkpt lat="45.88269" lon="6.09135">
        <ele>525.79998779297</ele>
        <time>2012-07-31T17:11:18.000Z</time>
      </trkpt>
      <trkpt lat="45.88275" lon="6.09139">
        <ele>525.79998779297</ele>
        <time>2012-07-31T17:11:19.000Z</time>
      </trkpt>
      <trkpt lat="45.88294" lon="6.09162">
        <ele>525.79998779297</ele>
        <time>2012-07-31T17:11:22.000Z</time>
      </trkpt>
      <trkpt lat="45.883" lon="6.09171">
        <ele>525.79998779297</ele>
        <time>2012-07-31T17:11:23.000Z</time>
      </trkpt>
      <trkpt lat="45.88317" lon="6.092">
        <ele>522.79998779297</ele>
        <time>2012-07-31T17:11:26.000Z</time>
      </trkpt>
      <trkpt lat="45.88329" lon="6.09218">
        <ele>522.79998779297</ele>
        <time>2012-07-31T17:11:28.000Z</time>
      </trkpt>
      <trkpt lat="45.88333" lon="6.09225">
        <ele>521.59997558594</ele>
        <time>2012-07-31T17:11:29.000Z</time>
      </trkpt>
      <trkpt lat="45.88341" lon="6.09238">
        <ele>520.59997558594</ele>
        <time>2012-07-31T17:11:30.000Z</time>
      </trkpt>
      <trkpt lat="45.88358" lon="6.09268">
        <ele>520.59997558594</ele>
        <time>2012-07-31T17:11:33.000Z</time>
      </trkpt>
      <trkpt lat="45.88376" lon="6.09299">
        <ele>519.59997558594</ele>
        <time>2012-07-31T17:11:36.000Z</time>
      </trkpt>
      <trkpt lat="45.88405" lon="6.09343">
        <ele>519.59997558594</ele>
        <time>2012-07-31T17:11:41.000Z</time>
      </trkpt>
      <trkpt lat="45.8841" lon="6.09353">
        <ele>519.59997558594</ele>
        <time>2012-07-31T17:11:42.000Z</time>
      </trkpt>
      <trkpt lat="45.88424" lon="6.09381">
        <ele>519.59997558594</ele>
        <time>2012-07-31T17:11:45.000Z</time>
      </trkpt>
      <trkpt lat="45.8845" lon="6.09428">
        <ele>518.59997558594</ele>
        <time>2012-07-31T17:11:50.000Z</time>
      </trkpt>
      <trkpt lat="45.88468" lon="6.09455">
        <ele>518.59997558594</ele>
        <time>2012-07-31T17:11:53.000Z</time>
      </trkpt>
      <trkpt lat="45.88473" lon="6.09463">
        <ele>517.59997558594</ele>
        <time>2012-07-31T17:11:54.000Z</time>
      </trkpt>
      <trkpt lat="45.88485" lon="6.09482">
        <ele>516.40002441406</ele>
        <time>2012-07-31T17:11:56.000Z</time>
      </trkpt>
      <trkpt lat="45.88515" lon="6.09529">
        <ele>516.40002441406</ele>
        <time>2012-07-31T17:12:01.000Z</time>
      </trkpt>
      <trkpt lat="45.88521" lon="6.09539">
        <ele>515.20001220703</ele>
        <time>2012-07-31T17:12:02.000Z</time>
      </trkpt>
      <trkpt lat="45.88526" lon="6.09548">
        <ele>514.20001220703</ele>
        <time>2012-07-31T17:12:03.000Z</time>
      </trkpt>
      <trkpt lat="45.88551" lon="6.0959">
        <ele>514.20001220703</ele>
        <time>2012-07-31T17:12:07.000Z</time>
      </trkpt>
      <trkpt lat="45.88557" lon="6.096">
        <ele>512.79998779297</ele>
        <time>2012-07-31T17:12:08.000Z</time>
      </trkpt>
      <trkpt lat="45.88581" lon="6.09641">
        <ele>511.79998779297</ele>
        <time>2012-07-31T17:12:12.000Z</time>
      </trkpt>
      <trkpt lat="45.88597" lon="6.09673">
        <ele>510.39999389648</ele>
        <time>2012-07-31T17:12:15.000Z</time>
      </trkpt>
      <trkpt lat="45.88615" lon="6.09703">
        <ele>509.20001220703</ele>
        <time>2012-07-31T17:12:18.000Z</time>
      </trkpt>
      <trkpt lat="45.88626" lon="6.09725">
        <ele>508.20001220703</ele>
        <time>2012-07-31T17:12:20.000Z</time>
      </trkpt>
      <trkpt lat="45.88632" lon="6.09737">
        <ele>508.20001220703</ele>
        <time>2012-07-31T17:12:21.000Z</time>
      </trkpt>
      <trkpt lat="45.88652" lon="6.09781">
        <ele>507.20001220703</ele>
        <time>2012-07-31T17:12:25.000Z</time>
      </trkpt>
      <trkpt lat="45.88658" lon="6.09791">
        <ele>507.20001220703</ele>
        <time>2012-07-31T17:12:26.000Z</time>
      </trkpt>
      <trkpt lat="45.88684" lon="6.09844">
        <ele>505.79998779297</ele>
        <time>2012-07-31T17:12:31.000Z</time>
      </trkpt>
      <trkpt lat="45.8872" lon="6.09901">
        <ele>505.79998779297</ele>
        <time>2012-07-31T17:12:37.000Z</time>
      </trkpt>
      <trkpt lat="45.88738" lon="6.09927">
        <ele>504.20001220703</ele>
        <time>2012-07-31T17:12:40.000Z</time>
      </trkpt>
      <trkpt lat="45.88743" lon="6.09934">
        <ele>504.20001220703</ele>
        <time>2012-07-31T17:12:41.000Z</time>
      </trkpt>
      <trkpt lat="45.8875" lon="6.09944">
        <ele>504.20001220703</ele>
        <time>2012-07-31T17:12:43.000Z</time>
      </trkpt>
      <trkpt lat="45.88753" lon="6.0995">
        <ele>503.20001220703</ele>
        <time>2012-07-31T17:12:44.000Z</time>
      </trkpt>
      <trkpt lat="45.88756" lon="6.09956">
        <ele>503.20001220703</ele>
        <time>2012-07-31T17:12:45.000Z</time>
      </trkpt>
      <trkpt lat="45.88761" lon="6.09962">
        <ele>503.20001220703</ele>
        <time>2012-07-31T17:12:46.000Z</time>
      </trkpt>
      <trkpt lat="45.88773" lon="6.0997">
        <ele>503.20001220703</ele>
        <time>2012-07-31T17:12:48.000Z</time>
      </trkpt>
      <trkpt lat="45.8878" lon="6.0997">
        <ele>502</ele>
        <time>2012-07-31T17:12:49.000Z</time>
      </trkpt>
      <trkpt lat="45.88787" lon="6.09966">
        <ele>500.60000610352</ele>
        <time>2012-07-31T17:12:50.000Z</time>
      </trkpt>
      <trkpt lat="45.88806" lon="6.09963">
        <ele>500.60000610352</ele>
        <time>2012-07-31T17:12:53.000Z</time>
      </trkpt>
      <trkpt lat="45.88823" lon="6.09981">
        <ele>500.60000610352</ele>
        <time>2012-07-31T17:12:56.000Z</time>
      </trkpt>
      <trkpt lat="45.88828" lon="6.09989">
        <ele>500.60000610352</ele>
        <time>2012-07-31T17:12:57.000Z</time>
      </trkpt>
      <trkpt lat="45.88863" lon="6.10046">
        <ele>500.60000610352</ele>
        <time>2012-07-31T17:13:04.000Z</time>
      </trkpt>
      <trkpt lat="45.889" lon="6.10102">
        <ele>500.60000610352</ele>
        <time>2012-07-31T17:13:11.000Z</time>
      </trkpt>
      <trkpt lat="45.8891" lon="6.10115">
        <ele>500.60000610352</ele>
        <time>2012-07-31T17:13:13.000Z</time>
      </trkpt>
      <trkpt lat="45.88923" lon="6.10124">
        <ele>500.60000610352</ele>
        <time>2012-07-31T17:13:15.000Z</time>
      </trkpt>
      <trkpt lat="45.88945" lon="6.10128">
        <ele>500.60000610352</ele>
        <time>2012-07-31T17:13:18.000Z</time>
      </trkpt>
      <trkpt lat="45.88953" lon="6.10129">
        <ele>500.60000610352</ele>
        <time>2012-07-31T17:13:19.000Z</time>
      </trkpt>
      <trkpt lat="45.89011" lon="6.10133">
        <ele>500.60000610352</ele>
        <time>2012-07-31T17:13:27.000Z</time>
      </trkpt>
      <trkpt lat="45.89071" lon="6.10138">
        <ele>500.60000610352</ele>
        <time>2012-07-31T17:13:35.000Z</time>
      </trkpt>
      <trkpt lat="45.89087" lon="6.10139">
        <ele>500.60000610352</ele>
        <time>2012-07-31T17:13:37.000Z</time>
      </trkpt>
      <trkpt lat="45.89126" lon="6.10142">
        <ele>499.39999389648</ele>
        <time>2012-07-31T17:13:42.000Z</time>
      </trkpt>
      <trkpt lat="45.89134" lon="6.10143">
        <ele>498.20001220703</ele>
        <time>2012-07-31T17:13:43.000Z</time>
      </trkpt>
      <trkpt lat="45.8915" lon="6.10144">
        <ele>498.20001220703</ele>
        <time>2012-07-31T17:13:45.000Z</time>
      </trkpt>
      <trkpt lat="45.8916" lon="6.10145">
        <ele>497.20001220703</ele>
        <time>2012-07-31T17:13:46.000Z</time>
      </trkpt>
      <trkpt lat="45.89169" lon="6.10145">
        <ele>496</ele>
        <time>2012-07-31T17:13:47.000Z</time>
      </trkpt>
      <trkpt lat="45.89187" lon="6.10146">
        <ele>495</ele>
        <time>2012-07-31T17:13:49.000Z</time>
      </trkpt>
      <trkpt lat="45.89214" lon="6.10148">
        <ele>493.79998779297</ele>
        <time>2012-07-31T17:13:52.000Z</time>
      </trkpt>
      <trkpt lat="45.89222" lon="6.10149">
        <ele>493.79998779297</ele>
        <time>2012-07-31T17:13:53.000Z</time>
      </trkpt>
      <trkpt lat="45.89251" lon="6.1015">
        <ele>492.60000610352</ele>
        <time>2012-07-31T17:13:56.000Z</time>
      </trkpt>
      <trkpt lat="45.89268" lon="6.10151">
        <ele>491.60000610352</ele>
        <time>2012-07-31T17:13:58.000Z</time>
      </trkpt>
      <trkpt lat="45.89297" lon="6.10153">
        <ele>491.60000610352</ele>
        <time>2012-07-31T17:14:01.000Z</time>
      </trkpt>
      <trkpt lat="45.89337" lon="6.1016">
        <ele>491.60000610352</ele>
        <time>2012-07-31T17:14:06.000Z</time>
      </trkpt>
      <trkpt lat="45.89356" lon="6.10181">
        <ele>490.60000610352</ele>
        <time>2012-07-31T17:14:10.000Z</time>
      </trkpt>
      <trkpt lat="45.8936" lon="6.1021">
        <ele>490.60000610352</ele>
        <time>2012-07-31T17:14:13.000Z</time>
      </trkpt>
      <trkpt lat="45.8936" lon="6.10223">
        <ele>489</ele>
        <time>2012-07-31T17:14:14.000Z</time>
      </trkpt>
      <trkpt lat="45.8936" lon="6.10233">
        <ele>488</ele>
        <time>2012-07-31T17:14:15.000Z</time>
      </trkpt>
      <trkpt lat="45.89358" lon="6.10269">
        <ele>486.79998779297</ele>
        <time>2012-07-31T17:14:18.000Z</time>
      </trkpt>
      <trkpt lat="45.89357" lon="6.10282">
        <ele>486.79998779297</ele>
        <time>2012-07-31T17:14:19.000Z</time>
      </trkpt>
      <trkpt lat="45.89358" lon="6.10318">
        <ele>486.79998779297</ele>
        <time>2012-07-31T17:14:22.000Z</time>
      </trkpt>
      <trkpt lat="45.89361" lon="6.10342">
        <ele>485.79998779297</ele>
        <time>2012-07-31T17:14:24.000Z</time>
      </trkpt>
      <trkpt lat="45.89363" lon="6.10355">
        <ele>485.79998779297</ele>
        <time>2012-07-31T17:14:25.000Z</time>
      </trkpt>
      <trkpt lat="45.89367" lon="6.10379">
        <ele>484.79998779297</ele>
        <time>2012-07-31T17:14:27.000Z</time>
      </trkpt>
      <trkpt lat="45.89371" lon="6.10405">
        <ele>483.60000610352</ele>
        <time>2012-07-31T17:14:29.000Z</time>
      </trkpt>
      <trkpt lat="45.89375" lon="6.10433">
        <ele>482.60000610352</ele>
        <time>2012-07-31T17:14:31.000Z</time>
      </trkpt>
      <trkpt lat="45.89377" lon="6.10447">
        <ele>482.60000610352</ele>
        <time>2012-07-31T17:14:32.000Z</time>
      </trkpt>
      <trkpt lat="45.8938" lon="6.1046">
        <ele>481.39999389648</ele>
        <time>2012-07-31T17:14:33.000Z</time>
      </trkpt>
      <trkpt lat="45.89382" lon="6.10477">
        <ele>480.39999389648</ele>
        <time>2012-07-31T17:14:34.000Z</time>
      </trkpt>
      <trkpt lat="45.89387" lon="6.10506">
        <ele>479.20001220703</ele>
        <time>2012-07-31T17:14:36.000Z</time>
      </trkpt>
      <trkpt lat="45.89392" lon="6.10535">
        <ele>478</ele>
        <time>2012-07-31T17:14:38.000Z</time>
      </trkpt>
      <trkpt lat="45.89394" lon="6.1055">
        <ele>477</ele>
        <time>2012-07-31T17:14:39.000Z</time>
      </trkpt>
      <trkpt lat="45.89397" lon="6.10566">
        <ele>475.79998779297</ele>
        <time>2012-07-31T17:14:40.000Z</time>
      </trkpt>
      <trkpt lat="45.89402" lon="6.10597">
        <ele>474.60000610352</ele>
        <time>2012-07-31T17:14:42.000Z</time>
      </trkpt>
      <trkpt lat="45.89407" lon="6.10628">
        <ele>473.39999389648</ele>
        <time>2012-07-31T17:14:44.000Z</time>
      </trkpt>
      <trkpt lat="45.89413" lon="6.10659">
        <ele>472</ele>
        <time>2012-07-31T17:14:46.000Z</time>
      </trkpt>
      <trkpt lat="45.89418" lon="6.1069">
        <ele>472</ele>
        <time>2012-07-31T17:14:48.000Z</time>
      </trkpt>
      <trkpt lat="45.89421" lon="6.10707">
        <ele>470.79998779297</ele>
        <time>2012-07-31T17:14:49.000Z</time>
      </trkpt>
      <trkpt lat="45.89425" lon="6.10769">
        <ele>469.79998779297</ele>
        <time>2012-07-31T17:14:53.000Z</time>
      </trkpt>
      <trkpt lat="45.89423" lon="6.10785">
        <ele>468.60000610352</ele>
        <time>2012-07-31T17:14:54.000Z</time>
      </trkpt>
      <trkpt lat="45.89421" lon="6.10801">
        <ele>468.60000610352</ele>
        <time>2012-07-31T17:14:55.000Z</time>
      </trkpt>
      <trkpt lat="45.89418" lon="6.10816">
        <ele>467.60000610352</ele>
        <time>2012-07-31T17:14:56.000Z</time>
      </trkpt>
      <trkpt lat="45.89415" lon="6.1083">
        <ele>467.60000610352</ele>
        <time>2012-07-31T17:14:57.000Z</time>
      </trkpt>
      <trkpt lat="45.8941" lon="6.10843">
        <ele>466.20001220703</ele>
        <time>2012-07-31T17:14:58.000Z</time>
      </trkpt>
      <trkpt lat="45.89405" lon="6.10859">
        <ele>466.20001220703</ele>
        <time>2012-07-31T17:14:59.000Z</time>
      </trkpt>
      <trkpt lat="45.89399" lon="6.10871">
        <ele>465.20001220703</ele>
        <time>2012-07-31T17:15:00.000Z</time>
      </trkpt>
      <trkpt lat="45.89392" lon="6.10884">
        <ele>464.20001220703</ele>
        <time>2012-07-31T17:15:01.000Z</time>
      </trkpt>
      <trkpt lat="45.89378" lon="6.10903">
        <ele>462.79998779297</ele>
        <time>2012-07-31T17:15:03.000Z</time>
      </trkpt>
      <trkpt lat="45.89368" lon="6.10913">
        <ele>461.79998779297</ele>
        <time>2012-07-31T17:15:04.000Z</time>
      </trkpt>
      <trkpt lat="45.89359" lon="6.10922">
        <ele>461.79998779297</ele>
        <time>2012-07-31T17:15:05.000Z</time>
      </trkpt>
      <trkpt lat="45.89341" lon="6.1094">
        <ele>460.79998779297</ele>
        <time>2012-07-31T17:15:07.000Z</time>
      </trkpt>
      <trkpt lat="45.89294" lon="6.10983">
        <ele>460.79998779297</ele>
        <time>2012-07-31T17:15:12.000Z</time>
      </trkpt>
      <trkpt lat="45.89285" lon="6.1099">
        <ele>458.79998779297</ele>
        <time>2012-07-31T17:15:13.000Z</time>
      </trkpt>
      <trkpt lat="45.8927" lon="6.11003">
        <ele>457.60000610352</ele>
        <time>2012-07-31T17:15:15.000Z</time>
      </trkpt>
      <trkpt lat="45.89253" lon="6.11022">
        <ele>457.60000610352</ele>
        <time>2012-07-31T17:15:17.000Z</time>
      </trkpt>
      <trkpt lat="45.89248" lon="6.11031">
        <ele>457.60000610352</ele>
        <time>2012-07-31T17:15:18.000Z</time>
      </trkpt>
      <trkpt lat="45.89241" lon="6.11052">
        <ele>457.60000610352</ele>
        <time>2012-07-31T17:15:20.000Z</time>
      </trkpt>
      <trkpt lat="45.89244" lon="6.11072">
        <ele>457.60000610352</ele>
        <time>2012-07-31T17:15:22.000Z</time>
      </trkpt>
      <trkpt lat="45.89248" lon="6.11081">
        <ele>456.39999389648</ele>
        <time>2012-07-31T17:15:23.000Z</time>
      </trkpt>
      <trkpt lat="45.89262" lon="6.11095">
        <ele>455.20001220703</ele>
        <time>2012-07-31T17:15:25.000Z</time>
      </trkpt>
      <trkpt lat="45.8927" lon="6.11101">
        <ele>455.20001220703</ele>
        <time>2012-07-31T17:15:26.000Z</time>
      </trkpt>
      <trkpt lat="45.89277" lon="6.11105">
        <ele>454</ele>
        <time>2012-07-31T17:15:27.000Z</time>
      </trkpt>
      <trkpt lat="45.89296" lon="6.11117">
        <ele>453</ele>
        <time>2012-07-31T17:15:29.000Z</time>
      </trkpt>
      <trkpt lat="45.89305" lon="6.11122">
        <ele>453</ele>
        <time>2012-07-31T17:15:30.000Z</time>
      </trkpt>
      <trkpt lat="45.89322" lon="6.1113">
        <ele>451.79998779297</ele>
        <time>2012-07-31T17:15:32.000Z</time>
      </trkpt>
      <trkpt lat="45.89341" lon="6.11137">
        <ele>450.79998779297</ele>
        <time>2012-07-31T17:15:34.000Z</time>
      </trkpt>
      <trkpt lat="45.89351" lon="6.1114">
        <ele>449.79998779297</ele>
        <time>2012-07-31T17:15:35.000Z</time>
      </trkpt>
      <trkpt lat="45.89361" lon="6.11142">
        <ele>449.79998779297</ele>
        <time>2012-07-31T17:15:36.000Z</time>
      </trkpt>
      <trkpt lat="45.89371" lon="6.11144">
        <ele>448.39999389648</ele>
        <time>2012-07-31T17:15:37.000Z</time>
      </trkpt>
      <trkpt lat="45.8939" lon="6.11146">
        <ele>447.20001220703</ele>
        <time>2012-07-31T17:15:39.000Z</time>
      </trkpt>
      <trkpt lat="45.8941" lon="6.11147">
        <ele>445.60000610352</ele>
        <time>2012-07-31T17:15:41.000Z</time>
      </trkpt>
      <trkpt lat="45.8942" lon="6.11146">
        <ele>445.60000610352</ele>
        <time>2012-07-31T17:15:42.000Z</time>
      </trkpt>
      <trkpt lat="45.89431" lon="6.11145">
        <ele>444.60000610352</ele>
        <time>2012-07-31T17:15:43.000Z</time>
      </trkpt>
      <trkpt lat="45.89442" lon="6.11143">
        <ele>443.20001220703</ele>
        <time>2012-07-31T17:15:44.000Z</time>
      </trkpt>
      <trkpt lat="45.89462" lon="6.11138">
        <ele>441.39999389648</ele>
        <time>2012-07-31T17:15:46.000Z</time>
      </trkpt>
      <trkpt lat="45.89473" lon="6.11136">
        <ele>441.39999389648</ele>
        <time>2012-07-31T17:15:47.000Z</time>
      </trkpt>
      <trkpt lat="45.89484" lon="6.11134">
        <ele>440.39999389648</ele>
        <time>2012-07-31T17:15:48.000Z</time>
      </trkpt>
      <trkpt lat="45.89495" lon="6.11132">
        <ele>438.79998779297</ele>
        <time>2012-07-31T17:15:49.000Z</time>
      </trkpt>
      <trkpt lat="45.89527" lon="6.11132">
        <ele>438.79998779297</ele>
        <time>2012-07-31T17:15:52.000Z</time>
      </trkpt>
      <trkpt lat="45.89543" lon="6.11134">
        <ele>436.79998779297</ele>
        <time>2012-07-31T17:15:54.000Z</time>
      </trkpt>
      <trkpt lat="45.8955" lon="6.11136">
        <ele>436.79998779297</ele>
        <time>2012-07-31T17:15:55.000Z</time>
      </trkpt>
      <trkpt lat="45.89554" lon="6.11138">
        <ele>436.79998779297</ele>
        <time>2012-07-31T17:15:56.000Z</time>
      </trkpt>
      <trkpt lat="45.89559" lon="6.11146">
        <ele>436.79998779297</ele>
        <time>2012-07-31T17:15:58.000Z</time>
      </trkpt>
      <trkpt lat="45.89561" lon="6.11153">
        <ele>435.79998779297</ele>
        <time>2012-07-31T17:15:59.000Z</time>
      </trkpt>
      <trkpt lat="45.89562" lon="6.11159">
        <ele>435.79998779297</ele>
        <time>2012-07-31T17:16:00.000Z</time>
      </trkpt>
      <trkpt lat="45.89564" lon="6.11165">
        <ele>434.60000610352</ele>
        <time>2012-07-31T17:16:01.000Z</time>
      </trkpt>
      <trkpt lat="45.89567" lon="6.11171">
        <ele>434.60000610352</ele>
        <time>2012-07-31T17:16:02.000Z</time>
      </trkpt>
      <trkpt lat="45.89577" lon="6.11181">
        <ele>434.60000610352</ele>
        <time>2012-07-31T17:16:05.000Z</time>
      </trkpt>
      <trkpt lat="45.89581" lon="6.11181">
        <ele>434.60000610352</ele>
        <time>2012-07-31T17:16:06.000Z</time>
      </trkpt>
      <trkpt lat="45.89594" lon="6.1117">
        <ele>434.60000610352</ele>
        <time>2012-07-31T17:16:09.000Z</time>
      </trkpt>
      <trkpt lat="45.896" lon="6.11169">
        <ele>434.60000610352</ele>
        <time>2012-07-31T17:16:10.000Z</time>
      </trkpt>
      <trkpt lat="45.89613" lon="6.1117">
        <ele>434.60000610352</ele>
        <time>2012-07-31T17:16:12.000Z</time>
      </trkpt>
      <trkpt lat="45.89619" lon="6.11174">
        <ele>432.20001220703</ele>
        <time>2012-07-31T17:16:13.000Z</time>
      </trkpt>
      <trkpt lat="45.89633" lon="6.11182">
        <ele>432.20001220703</ele>
        <time>2012-07-31T17:16:15.000Z</time>
      </trkpt>
      <trkpt lat="45.89641" lon="6.11186">
        <ele>431</ele>
        <time>2012-07-31T17:16:16.000Z</time>
      </trkpt>
      <trkpt lat="45.89655" lon="6.11197">
        <ele>431</ele>
        <time>2012-07-31T17:16:18.000Z</time>
      </trkpt>
      <trkpt lat="45.89662" lon="6.11204">
        <ele>430</ele>
        <time>2012-07-31T17:16:19.000Z</time>
      </trkpt>
      <trkpt lat="45.89668" lon="6.11211">
        <ele>430</ele>
        <time>2012-07-31T17:16:20.000Z</time>
      </trkpt>
      <trkpt lat="45.89696" lon="6.11242">
        <ele>430</ele>
        <time>2012-07-31T17:16:25.000Z</time>
      </trkpt>
      <trkpt lat="45.89701" lon="6.1125">
        <ele>430</ele>
        <time>2012-07-31T17:16:26.000Z</time>
      </trkpt>
      <trkpt lat="45.89723" lon="6.11292">
        <ele>430</ele>
        <time>2012-07-31T17:16:31.000Z</time>
      </trkpt>
      <trkpt lat="45.89743" lon="6.11352">
        <ele>430</ele>
        <time>2012-07-31T17:16:37.000Z</time>
      </trkpt>
      <trkpt lat="45.89762" lon="6.11425">
        <ele>430</ele>
        <time>2012-07-31T17:16:44.000Z</time>
      </trkpt>
      <trkpt lat="45.89765" lon="6.11435">
        <ele>430</ele>
        <time>2012-07-31T17:16:45.000Z</time>
      </trkpt>
      <trkpt lat="45.89784" lon="6.11509">
        <ele>430</ele>
        <time>2012-07-31T17:16:52.000Z</time>
      </trkpt>
      <trkpt lat="45.89795" lon="6.1155">
        <ele>430</ele>
        <time>2012-07-31T17:16:56.000Z</time>
      </trkpt>
      <trkpt lat="45.89817" lon="6.1163">
        <ele>430</ele>
        <time>2012-07-31T17:17:04.000Z</time>
      </trkpt>
      <trkpt lat="45.89831" lon="6.11688">
        <ele>430</ele>
        <time>2012-07-31T17:17:10.000Z</time>
      </trkpt>
      <trkpt lat="45.89852" lon="6.11762">
        <ele>430</ele>
        <time>2012-07-31T17:17:18.000Z</time>
      </trkpt>
      <trkpt lat="45.89867" lon="6.11815">
        <ele>430</ele>
        <time>2012-07-31T17:17:24.000Z</time>
      </trkpt>
      <trkpt lat="45.89871" lon="6.11833">
        <ele>430</ele>
        <time>2012-07-31T17:17:26.000Z</time>
      </trkpt>
      <trkpt lat="45.89879" lon="6.1187">
        <ele>430</ele>
        <time>2012-07-31T17:17:30.000Z</time>
      </trkpt>
      <trkpt lat="45.89894" lon="6.11925">
        <ele>430</ele>
        <time>2012-07-31T17:17:36.000Z</time>
      </trkpt>
      <trkpt lat="45.89909" lon="6.11976">
        <ele>430</ele>
        <time>2012-07-31T17:17:42.000Z</time>
      </trkpt>
      <trkpt lat="45.89911" lon="6.11985">
        <ele>430</ele>
        <time>2012-07-31T17:17:43.000Z</time>
      </trkpt>
      <trkpt lat="45.89923" lon="6.1202">
        <ele>430</ele>
        <time>2012-07-31T17:17:47.000Z</time>
      </trkpt>
      <trkpt lat="45.89939" lon="6.12084">
        <ele>430</ele>
        <time>2012-07-31T17:17:54.000Z</time>
      </trkpt>
      <trkpt lat="45.89958" lon="6.12159">
        <ele>430</ele>
        <time>2012-07-31T17:18:03.000Z</time>
      </trkpt>
      <trkpt lat="45.89963" lon="6.1218">
        <ele>430</ele>
        <time>2012-07-31T17:18:06.000Z</time>
      </trkpt>
      <trkpt lat="45.8997" lon="6.12191">
        <ele>430</ele>
        <time>2012-07-31T17:18:08.000Z</time>
      </trkpt>
      <trkpt lat="45.89977" lon="6.12215">
        <ele>430</ele>
        <time>2012-07-31T17:18:11.000Z</time>
      </trkpt>
      <trkpt lat="45.89979" lon="6.12223">
        <ele>430</ele>
        <time>2012-07-31T17:18:12.000Z</time>
      </trkpt>
      <trkpt lat="45.8999" lon="6.12263">
        <ele>430</ele>
        <time>2012-07-31T17:18:17.000Z</time>
      </trkpt>
      <trkpt lat="45.89992" lon="6.1227">
        <ele>430</ele>
        <time>2012-07-31T17:18:18.000Z</time>
      </trkpt>
      <trkpt lat="45.90001" lon="6.12303">
        <ele>430</ele>
        <time>2012-07-31T17:18:22.000Z</time>
      </trkpt>
      <trkpt lat="45.9001" lon="6.12333">
        <ele>430</ele>
        <time>2012-07-31T17:18:26.000Z</time>
      </trkpt>
      <trkpt lat="45.90012" lon="6.12338">
        <ele>430</ele>
        <time>2012-07-31T17:18:27.000Z</time>
      </trkpt>
      <trkpt lat="45.90013" lon="6.12344">
        <ele>430</ele>
        <time>2012-07-31T17:18:28.000Z</time>
      </trkpt>
      <trkpt lat="45.90019" lon="6.12362">
        <ele>430</ele>
        <time>2012-07-31T17:18:31.000Z</time>
      </trkpt>
      <trkpt lat="45.90021" lon="6.1237">
        <ele>430</ele>
        <time>2012-07-31T17:18:32.000Z</time>
      </trkpt>
      <trkpt lat="45.9003" lon="6.12403">
        <ele>430</ele>
        <time>2012-07-31T17:18:36.000Z</time>
      </trkpt>
      <trkpt lat="45.90041" lon="6.1245">
        <ele>430</ele>
        <time>2012-07-31T17:18:42.000Z</time>
      </trkpt>
      <trkpt lat="45.90045" lon="6.12475">
        <ele>430</ele>
        <time>2012-07-31T17:18:46.000Z</time>
      </trkpt>
      <trkpt lat="45.90047" lon="6.12489">
        <ele>430</ele>
        <time>2012-07-31T17:18:48.000Z</time>
      </trkpt>
      <trkpt lat="45.90052" lon="6.1251">
        <ele>430</ele>
        <time>2012-07-31T17:18:51.000Z</time>
      </trkpt>
      <trkpt lat="45.90059" lon="6.12538">
        <ele>430</ele>
        <time>2012-07-31T17:18:55.000Z</time>
      </trkpt>
      <trkpt lat="45.90066" lon="6.12558">
        <ele>430</ele>
        <time>2012-07-31T17:18:58.000Z</time>
      </trkpt>
      <trkpt lat="45.9008" lon="6.12606">
        <ele>430</ele>
        <time>2012-07-31T17:19:05.000Z</time>
      </trkpt>
      <trkpt lat="45.90081" lon="6.12617">
        <ele>430</ele>
        <time>2012-07-31T17:19:07.000Z</time>
      </trkpt>
      <trkpt lat="45.90086" lon="6.12628">
        <ele>430</ele>
        <time>2012-07-31T17:19:09.000Z</time>
      </trkpt>
      <trkpt lat="45.90091" lon="6.12641">
        <ele>430</ele>
        <time>2012-07-31T17:19:11.000Z</time>
      </trkpt>
      <trkpt lat="45.90097" lon="6.12661">
        <ele>430</ele>
        <time>2012-07-31T17:19:14.000Z</time>
      </trkpt>
      <trkpt lat="45.90104" lon="6.12678">
        <ele>430</ele>
        <time>2012-07-31T17:19:18.000Z</time>
      </trkpt>
      <trkpt lat="45.90111" lon="6.12694">
        <ele>430</ele>
        <time>2012-07-31T17:19:23.000Z</time>
      </trkpt>
      <trkpt lat="45.9012" lon="6.12722">
        <ele>430</ele>
        <time>2012-07-31T17:19:28.000Z</time>
      </trkpt>
      <trkpt lat="45.90113" lon="6.12736">
        <ele>430</ele>
        <time>2012-07-31T17:19:31.000Z</time>
      </trkpt>
      <trkpt lat="45.90101" lon="6.12744">
        <ele>430</ele>
        <time>2012-07-31T17:19:34.000Z</time>
      </trkpt>
      <trkpt lat="45.90096" lon="6.12745">
        <ele>430</ele>
        <time>2012-07-31T17:19:35.000Z</time>
      </trkpt>
      <trkpt lat="45.90082" lon="6.12747">
        <ele>430</ele>
        <time>2012-07-31T17:19:39.000Z</time>
      </trkpt>
      <trkpt lat="45.90077" lon="6.12751">
        <ele>430</ele>
        <time>2012-07-31T17:19:41.000Z</time>
      </trkpt>
      <trkpt lat="45.90065" lon="6.12756">
        <ele>430</ele>
        <time>2012-07-31T17:19:44.000Z</time>
      </trkpt>
      <trkpt lat="45.90044" lon="6.1276">
        <ele>430</ele>
        <time>2012-07-31T17:19:50.000Z</time>
      </trkpt>
      <trkpt lat="45.90041" lon="6.12762">
        <ele>430</ele>
        <time>2012-07-31T17:19:51.000Z</time>
      </trkpt>
      <trkpt lat="45.90034" lon="6.12771">
        <ele>430</ele>
        <time>2012-07-31T17:19:54.000Z</time>
      </trkpt>
      <trkpt lat="45.90021" lon="6.12783">
        <ele>430</ele>
        <time>2012-07-31T17:19:59.000Z</time>
      </trkpt>
      <trkpt lat="45.9001" lon="6.12797">
        <ele>430</ele>
        <time>2012-07-31T17:20:04.000Z</time>
      </trkpt>
      <trkpt lat="45.89989" lon="6.12812">
        <ele>430</ele>
        <time>2012-07-31T17:20:10.000Z</time>
      </trkpt>
      <trkpt lat="45.89969" lon="6.12821">
        <ele>430</ele>
        <time>2012-07-31T17:20:15.000Z</time>
      </trkpt>
      <trkpt lat="45.89966" lon="6.12823">
        <ele>430</ele>
        <time>2012-07-31T17:20:16.000Z</time>
      </trkpt>
      <trkpt lat="45.89959" lon="6.12831">
        <ele>430</ele>
        <time>2012-07-31T17:20:18.000Z</time>
      </trkpt>
      <trkpt lat="45.89949" lon="6.12836">
        <ele>430</ele>
        <time>2012-07-31T17:20:20.000Z</time>
      </trkpt>
      <trkpt lat="45.89931" lon="6.12845">
        <ele>430</ele>
        <time>2012-07-31T17:20:24.000Z</time>
      </trkpt>
      <trkpt lat="45.89924" lon="6.1285">
        <ele>430</ele>
        <time>2012-07-31T17:20:27.000Z</time>
      </trkpt>
      <trkpt lat="45.89923" lon="6.12852">
        <ele>434.39999389648</ele>
        <time>2012-07-31T17:20:30.000Z</time>
      </trkpt>
      <trkpt lat="45.89923" lon="6.12853">
        <ele>434.39999389648</ele>
        <time>2012-07-31T17:20:31.000Z</time>
      </trkpt>
      <trkpt lat="45.89923" lon="6.12854">
        <ele>430.60000610352</ele>
        <time>2012-07-31T17:20:32.000Z</time>
      </trkpt>
      <trkpt lat="45.89924" lon="6.12856">
        <ele>428.60000610352</ele>
        <time>2012-07-31T17:20:33.000Z</time>
      </trkpt>
      <trkpt lat="45.89925" lon="6.12863">
        <ele>431.39999389648</ele>
        <time>2012-07-31T17:20:36.000Z</time>
      </trkpt>
      <trkpt lat="45.89925" lon="6.12867">
        <ele>432.60000610352</ele>
        <time>2012-07-31T17:20:37.000Z</time>
      </trkpt>
      <trkpt lat="45.89924" lon="6.12871">
        <ele>434.20001220703</ele>
        <time>2012-07-31T17:20:38.000Z</time>
      </trkpt>
      <trkpt lat="45.89924" lon="6.12876">
        <ele>436</ele>
        <time>2012-07-31T17:20:39.000Z</time>
      </trkpt>
      <trkpt lat="45.89922" lon="6.12882">
        <ele>437</ele>
        <time>2012-07-31T17:20:40.000Z</time>
      </trkpt>
      <trkpt lat="45.89917" lon="6.12891">
        <ele>438.20001220703</ele>
        <time>2012-07-31T17:20:42.000Z</time>
      </trkpt>
      <trkpt lat="45.8991" lon="6.129">
        <ele>438.20001220703</ele>
        <time>2012-07-31T17:20:44.000Z</time>
      </trkpt>
      <trkpt lat="45.89901" lon="6.12905">
        <ele>435</ele>
        <time>2012-07-31T17:20:46.000Z</time>
      </trkpt>
      <trkpt lat="45.89892" lon="6.1291">
        <ele>433.79998779297</ele>
        <time>2012-07-31T17:20:48.000Z</time>
      </trkpt>
      <trkpt lat="45.89883" lon="6.12915">
        <ele>433.79998779297</ele>
        <time>2012-07-31T17:20:50.000Z</time>
      </trkpt>
      <trkpt lat="45.89878" lon="6.12915">
        <ele>431.79998779297</ele>
        <time>2012-07-31T17:20:51.000Z</time>
      </trkpt>
      <trkpt lat="45.89874" lon="6.12914">
        <ele>431.79998779297</ele>
        <time>2012-07-31T17:20:52.000Z</time>
      </trkpt>
      <trkpt lat="45.89869" lon="6.12913">
        <ele>430.20001220703</ele>
        <time>2012-07-31T17:20:53.000Z</time>
      </trkpt>
      <trkpt lat="45.8986" lon="6.12914">
        <ele>430.20001220703</ele>
        <time>2012-07-31T17:20:55.000Z</time>
      </trkpt>
      <trkpt lat="45.89857" lon="6.12914">
        <ele>429.20001220703</ele>
        <time>2012-07-31T17:20:56.000Z</time>
      </trkpt>
      <trkpt lat="45.89851" lon="6.12914">
        <ele>428.20001220703</ele>
        <time>2012-07-31T17:20:59.000Z</time>
      </trkpt>
      <trkpt lat="45.89849" lon="6.12916">
        <ele>428.20001220703</ele>
        <time>2012-07-31T17:21:00.000Z</time>
      </trkpt>
      <trkpt lat="45.89847" lon="6.12917">
        <ele>428.20001220703</ele>
        <time>2012-07-31T17:21:01.000Z</time>
      </trkpt>
      <trkpt lat="45.89845" lon="6.12917">
        <ele>427.20001220703</ele>
        <time>2012-07-31T17:21:02.000Z</time>
      </trkpt>
      <trkpt lat="45.89843" lon="6.12915">
        <ele>426</ele>
        <time>2012-07-31T17:21:03.000Z</time>
      </trkpt>
      <trkpt lat="45.89842" lon="6.12914">
        <ele>426</ele>
        <time>2012-07-31T17:21:04.000Z</time>
      </trkpt>
      <trkpt lat="45.8984" lon="6.12914">
        <ele>426</ele>
        <time>2012-07-31T17:21:06.000Z</time>
      </trkpt>
      <trkpt lat="45.89834" lon="6.12914">
        <ele>426</ele>
        <time>2012-07-31T17:21:09.000Z</time>
      </trkpt>
      <trkpt lat="45.89831" lon="6.12914">
        <ele>424.60000610352</ele>
        <time>2012-07-31T17:21:10.000Z</time>
      </trkpt>
      <trkpt lat="45.89818" lon="6.12913">
        <ele>424.60000610352</ele>
        <time>2012-07-31T17:21:14.000Z</time>
      </trkpt>
      <trkpt lat="45.89809" lon="6.12918">
        <ele>424.60000610352</ele>
        <time>2012-07-31T17:21:17.000Z</time>
      </trkpt>
      <trkpt lat="45.89808" lon="6.12923">
        <ele>424.60000610352</ele>
        <time>2012-07-31T17:21:18.000Z</time>
      </trkpt>
      <trkpt lat="45.89808" lon="6.12945">
        <ele>424.60000610352</ele>
        <time>2012-07-31T17:21:21.000Z</time>
      </trkpt>
      <trkpt lat="45.89808" lon="6.12952">
        <ele>424.60000610352</ele>
        <time>2012-07-31T17:21:22.000Z</time>
      </trkpt>
      <trkpt lat="45.89809" lon="6.12977">
        <ele>424.60000610352</ele>
        <time>2012-07-31T17:21:26.000Z</time>
      </trkpt>
      <trkpt lat="45.89809" lon="6.12999">
        <ele>424.60000610352</ele>
        <time>2012-07-31T17:21:29.000Z</time>
      </trkpt>
      <trkpt lat="45.89809" lon="6.13016">
        <ele>424.60000610352</ele>
        <time>2012-07-31T17:21:31.000Z</time>
      </trkpt>
      <trkpt lat="45.89808" lon="6.13092">
        <ele>424.60000610352</ele>
        <time>2012-07-31T17:21:40.000Z</time>
      </trkpt>
      <trkpt lat="45.89809" lon="6.13125">
        <ele>424.60000610352</ele>
        <time>2012-07-31T17:21:44.000Z</time>
      </trkpt>
      <trkpt lat="45.89809" lon="6.13131">
        <ele>424.60000610352</ele>
        <time>2012-07-31T17:21:45.000Z</time>
      </trkpt>
      <trkpt lat="45.89806" lon="6.13181">
        <ele>424.60000610352</ele>
        <time>2012-07-31T17:21:51.000Z</time>
      </trkpt>
      <trkpt lat="45.89807" lon="6.13189">
        <ele>424.60000610352</ele>
        <time>2012-07-31T17:21:52.000Z</time>
      </trkpt>
      <trkpt lat="45.898" lon="6.13224">
        <ele>424.60000610352</ele>
        <time>2012-07-31T17:21:56.000Z</time>
      </trkpt>
      <trkpt lat="45.89788" lon="6.13265">
        <ele>422.60000610352</ele>
        <time>2012-07-31T17:22:01.000Z</time>
      </trkpt>
      <trkpt lat="45.89782" lon="6.13281">
        <ele>422.60000610352</ele>
        <time>2012-07-31T17:22:03.000Z</time>
      </trkpt>
      <trkpt lat="45.89755" lon="6.13331">
        <ele>422.60000610352</ele>
        <time>2012-07-31T17:22:09.000Z</time>
      </trkpt>
      <trkpt lat="45.89744" lon="6.13347">
        <ele>422.60000610352</ele>
        <time>2012-07-31T17:22:11.000Z</time>
      </trkpt>
      <trkpt lat="45.89727" lon="6.13366">
        <ele>422.60000610352</ele>
        <time>2012-07-31T17:22:14.000Z</time>
      </trkpt>
      <trkpt lat="45.89682" lon="6.13418">
        <ele>422.60000610352</ele>
        <time>2012-07-31T17:22:22.000Z</time>
      </trkpt>
      <trkpt lat="45.8964" lon="6.13469">
        <ele>422.60000610352</ele>
        <time>2012-07-31T17:22:30.000Z</time>
      </trkpt>
      <trkpt lat="45.89632" lon="6.13477">
        <ele>422.60000610352</ele>
        <time>2012-07-31T17:22:32.000Z</time>
      </trkpt>
      <trkpt lat="45.89624" lon="6.13476">
        <ele>422.60000610352</ele>
        <time>2012-07-31T17:22:34.000Z</time>
      </trkpt>
      <trkpt lat="45.89615" lon="6.13459">
        <ele>422.60000610352</ele>
        <time>2012-07-31T17:22:37.000Z</time>
      </trkpt>
      <trkpt lat="45.89608" lon="6.13447">
        <ele>422.60000610352</ele>
        <time>2012-07-31T17:22:39.000Z</time>
      </trkpt>
      <trkpt lat="45.89597" lon="6.13427">
        <ele>422.60000610352</ele>
        <time>2012-07-31T17:22:42.000Z</time>
      </trkpt>
      <trkpt lat="45.89583" lon="6.134">
        <ele>422.60000610352</ele>
        <time>2012-07-31T17:22:46.000Z</time>
      </trkpt>
      <trkpt lat="45.89579" lon="6.13393">
        <ele>422.60000610352</ele>
        <time>2012-07-31T17:22:47.000Z</time>
      </trkpt>
      <trkpt lat="45.8956" lon="6.13362">
        <ele>422.60000610352</ele>
        <time>2012-07-31T17:22:52.000Z</time>
      </trkpt>
      <trkpt lat="45.89556" lon="6.13362">
        <ele>422.60000610352</ele>
        <time>2012-07-31T17:22:53.000Z</time>
      </trkpt>
      <trkpt lat="45.89543" lon="6.13374">
        <ele>422.60000610352</ele>
        <time>2012-07-31T17:22:56.000Z</time>
      </trkpt>
      <trkpt lat="45.8952" lon="6.13398">
        <ele>422.60000610352</ele>
        <time>2012-07-31T17:23:01.000Z</time>
      </trkpt>
      <trkpt lat="45.89513" lon="6.13394">
        <ele>422.60000610352</ele>
        <time>2012-07-31T17:23:03.000Z</time>
      </trkpt>
      <trkpt lat="45.89502" lon="6.13394">
        <ele>422.60000610352</ele>
        <time>2012-07-31T17:23:06.000Z</time>
      </trkpt>
      <trkpt lat="45.8949" lon="6.13407">
        <ele>422.60000610352</ele>
        <time>2012-07-31T17:23:09.000Z</time>
      </trkpt>
      <trkpt lat="45.89486" lon="6.13412">
        <ele>422.60000610352</ele>
        <time>2012-07-31T17:23:10.000Z</time>
      </trkpt>
      <trkpt lat="45.89468" lon="6.13434">
        <ele>422.60000610352</ele>
        <time>2012-07-31T17:23:14.000Z</time>
      </trkpt>
      <trkpt lat="45.89451" lon="6.13455">
        <ele>422.60000610352</ele>
        <time>2012-07-31T17:23:18.000Z</time>
      </trkpt>
      <trkpt lat="45.89446" lon="6.13459">
        <ele>422.60000610352</ele>
        <time>2012-07-31T17:23:19.000Z</time>
      </trkpt>
      <trkpt lat="45.89432" lon="6.13475">
        <ele>422.60000610352</ele>
        <time>2012-07-31T17:23:22.000Z</time>
      </trkpt>
      <trkpt lat="45.89423" lon="6.13488">
        <ele>422.60000610352</ele>
        <time>2012-07-31T17:23:24.000Z</time>
      </trkpt>
      <trkpt lat="45.89419" lon="6.13495">
        <ele>422.60000610352</ele>
        <time>2012-07-31T17:23:25.000Z</time>
      </trkpt>
      <trkpt lat="45.89408" lon="6.13516">
        <ele>422.60000610352</ele>
        <time>2012-07-31T17:23:28.000Z</time>
      </trkpt>
      <trkpt lat="45.89403" lon="6.13523">
        <ele>422.60000610352</ele>
        <time>2012-07-31T17:23:29.000Z</time>
      </trkpt>
      <trkpt lat="45.8937" lon="6.13569">
        <ele>422.60000610352</ele>
        <time>2012-07-31T17:23:36.000Z</time>
      </trkpt>
      <trkpt lat="45.89348" lon="6.13605">
        <ele>422.60000610352</ele>
        <time>2012-07-31T17:23:41.000Z</time>
      </trkpt>
      <trkpt lat="45.89344" lon="6.13612">
        <ele>422.60000610352</ele>
        <time>2012-07-31T17:23:42.000Z</time>
      </trkpt>
      <trkpt lat="45.89317" lon="6.13651">
        <ele>422.60000610352</ele>
        <time>2012-07-31T17:23:48.000Z</time>
      </trkpt>
      <trkpt lat="45.89297" lon="6.13673">
        <ele>422.60000610352</ele>
        <time>2012-07-31T17:23:52.000Z</time>
      </trkpt>
      <trkpt lat="45.89293" lon="6.1368">
        <ele>422.60000610352</ele>
        <time>2012-07-31T17:23:53.000Z</time>
      </trkpt>
      <trkpt lat="45.89258" lon="6.13737">
        <ele>422.60000610352</ele>
        <time>2012-07-31T17:24:01.000Z</time>
      </trkpt>
      <trkpt lat="45.89231" lon="6.13781">
        <ele>422.60000610352</ele>
        <time>2012-07-31T17:24:07.000Z</time>
      </trkpt>
      <trkpt lat="45.89195" lon="6.13843">
        <ele>422.60000610352</ele>
        <time>2012-07-31T17:24:15.000Z</time>
      </trkpt>
      <trkpt lat="45.89185" lon="6.13859">
        <ele>422.60000610352</ele>
        <time>2012-07-31T17:24:17.000Z</time>
      </trkpt>
      <trkpt lat="45.89158" lon="6.13909">
        <ele>422.60000610352</ele>
        <time>2012-07-31T17:24:23.000Z</time>
      </trkpt>
      <trkpt lat="45.89126" lon="6.13964">
        <ele>422.60000610352</ele>
        <time>2012-07-31T17:24:30.000Z</time>
      </trkpt>
      <trkpt lat="45.89101" lon="6.1401">
        <ele>422.60000610352</ele>
        <time>2012-07-31T17:24:36.000Z</time>
      </trkpt>
      <trkpt lat="45.89079" lon="6.14062">
        <ele>422.60000610352</ele>
        <time>2012-07-31T17:24:42.000Z</time>
      </trkpt>
      <trkpt lat="45.89064" lon="6.14131">
        <ele>422.60000610352</ele>
        <time>2012-07-31T17:24:49.000Z</time>
      </trkpt>
      <trkpt lat="45.89058" lon="6.14201">
        <ele>422.60000610352</ele>
        <time>2012-07-31T17:24:56.000Z</time>
      </trkpt>
      <trkpt lat="45.89057" lon="6.14211">
        <ele>425.60000610352</ele>
        <time>2012-07-31T17:24:57.000Z</time>
      </trkpt>
      <trkpt lat="45.89047" lon="6.1426">
        <ele>425.60000610352</ele>
        <time>2012-07-31T17:25:02.000Z</time>
      </trkpt>
      <trkpt lat="45.89037" lon="6.14287">
        <ele>426.60000610352</ele>
        <time>2012-07-31T17:25:05.000Z</time>
      </trkpt>
      <trkpt lat="45.89027" lon="6.14304">
        <ele>426.60000610352</ele>
        <time>2012-07-31T17:25:07.000Z</time>
      </trkpt>
      <trkpt lat="45.88998" lon="6.14338">
        <ele>426.60000610352</ele>
        <time>2012-07-31T17:25:12.000Z</time>
      </trkpt>
      <trkpt lat="45.88964" lon="6.14358">
        <ele>426.60000610352</ele>
        <time>2012-07-31T17:25:17.000Z</time>
      </trkpt>
      <trkpt lat="45.88928" lon="6.14364">
        <ele>426.60000610352</ele>
        <time>2012-07-31T17:25:22.000Z</time>
      </trkpt>
      <trkpt lat="45.88869" lon="6.14368">
        <ele>426.60000610352</ele>
        <time>2012-07-31T17:25:30.000Z</time>
      </trkpt>
      <trkpt lat="45.88861" lon="6.14367">
        <ele>426.60000610352</ele>
        <time>2012-07-31T17:25:31.000Z</time>
      </trkpt>
      <trkpt lat="45.88831" lon="6.14365">
        <ele>426.60000610352</ele>
        <time>2012-07-31T17:25:35.000Z</time>
      </trkpt>
      <trkpt lat="45.88779" lon="6.14354">
        <ele>426.60000610352</ele>
        <time>2012-07-31T17:25:42.000Z</time>
      </trkpt>
      <trkpt lat="45.88721" lon="6.14336">
        <ele>426.60000610352</ele>
        <time>2012-07-31T17:25:50.000Z</time>
      </trkpt>
      <trkpt lat="45.88686" lon="6.14322">
        <ele>426.60000610352</ele>
        <time>2012-07-31T17:25:55.000Z</time>
      </trkpt>
      <trkpt lat="45.88632" lon="6.14297">
        <ele>426.60000610352</ele>
        <time>2012-07-31T17:26:03.000Z</time>
      </trkpt>
      <trkpt lat="45.88579" lon="6.14268">
        <ele>426.60000610352</ele>
        <time>2012-07-31T17:26:11.000Z</time>
      </trkpt>
      <trkpt lat="45.88566" lon="6.14262">
        <ele>426.60000610352</ele>
        <time>2012-07-31T17:26:13.000Z</time>
      </trkpt>
      <trkpt lat="45.88512" lon="6.14241">
        <ele>426.60000610352</ele>
        <time>2012-07-31T17:26:21.000Z</time>
      </trkpt>
      <trkpt lat="45.88456" lon="6.1423">
        <ele>426.60000610352</ele>
        <time>2012-07-31T17:26:29.000Z</time>
      </trkpt>
      <trkpt lat="45.88442" lon="6.14228">
        <ele>426.60000610352</ele>
        <time>2012-07-31T17:26:31.000Z</time>
      </trkpt>
      <trkpt lat="45.88385" lon="6.14219">
        <ele>426.60000610352</ele>
        <time>2012-07-31T17:26:39.000Z</time>
      </trkpt>
      <trkpt lat="45.88371" lon="6.14217">
        <ele>426.60000610352</ele>
        <time>2012-07-31T17:26:41.000Z</time>
      </trkpt>
      <trkpt lat="45.88364" lon="6.14215">
        <ele>423.60000610352</ele>
        <time>2012-07-31T17:26:42.000Z</time>
      </trkpt>
      <trkpt lat="45.88317" lon="6.14206">
        <ele>423.60000610352</ele>
        <time>2012-07-31T17:26:49.000Z</time>
      </trkpt>
      <trkpt lat="45.88267" lon="6.14201">
        <ele>423.60000610352</ele>
        <time>2012-07-31T17:26:57.000Z</time>
      </trkpt>
      <trkpt lat="45.88243" lon="6.14201">
        <ele>426.60000610352</ele>
        <time>2012-07-31T17:27:01.000Z</time>
      </trkpt>
      <trkpt lat="45.88233" lon="6.14202">
        <ele>426.60000610352</ele>
        <time>2012-07-31T17:27:03.000Z</time>
      </trkpt>
      <trkpt lat="45.88227" lon="6.14202">
        <ele>427.60000610352</ele>
        <time>2012-07-31T17:27:04.000Z</time>
      </trkpt>
      <trkpt lat="45.88222" lon="6.14202">
        <ele>427.60000610352</ele>
        <time>2012-07-31T17:27:05.000Z</time>
      </trkpt>
      <trkpt lat="45.88206" lon="6.14203">
        <ele>427.60000610352</ele>
        <time>2012-07-31T17:27:08.000Z</time>
      </trkpt>
      <trkpt lat="45.88201" lon="6.14203">
        <ele>428.60000610352</ele>
        <time>2012-07-31T17:27:09.000Z</time>
      </trkpt>
      <trkpt lat="45.8817" lon="6.14203">
        <ele>429.79998779297</ele>
        <time>2012-07-31T17:27:15.000Z</time>
      </trkpt>
      <trkpt lat="45.8816" lon="6.14204">
        <ele>429.79998779297</ele>
        <time>2012-07-31T17:27:17.000Z</time>
      </trkpt>
      <trkpt lat="45.88146" lon="6.14205">
        <ele>429.79998779297</ele>
        <time>2012-07-31T17:27:20.000Z</time>
      </trkpt>
      <trkpt lat="45.88143" lon="6.14203">
        <ele>430.79998779297</ele>
        <time>2012-07-31T17:27:21.000Z</time>
      </trkpt>
      <trkpt lat="45.88128" lon="6.14204">
        <ele>430.79998779297</ele>
        <time>2012-07-31T17:27:25.000Z</time>
      </trkpt>
      <trkpt lat="45.88115" lon="6.14213">
        <ele>430.79998779297</ele>
        <time>2012-07-31T17:27:28.000Z</time>
      </trkpt>
      <trkpt lat="45.88109" lon="6.14217">
        <ele>430.79998779297</ele>
        <time>2012-07-31T17:27:29.000Z</time>
      </trkpt>
      <trkpt lat="45.88072" lon="6.14239">
        <ele>430.79998779297</ele>
        <time>2012-07-31T17:27:36.000Z</time>
      </trkpt>
      <trkpt lat="45.88033" lon="6.14255">
        <ele>430.79998779297</ele>
        <time>2012-07-31T17:27:42.000Z</time>
      </trkpt>
      <trkpt lat="45.87984" lon="6.14264">
        <ele>430.79998779297</ele>
        <time>2012-07-31T17:27:49.000Z</time>
      </trkpt>
      <trkpt lat="45.87941" lon="6.14263">
        <ele>430.79998779297</ele>
        <time>2012-07-31T17:27:55.000Z</time>
      </trkpt>
      <trkpt lat="45.87885" lon="6.14259">
        <ele>430.79998779297</ele>
        <time>2012-07-31T17:28:03.000Z</time>
      </trkpt>
      <trkpt lat="45.87855" lon="6.14258">
        <ele>430.79998779297</ele>
        <time>2012-07-31T17:28:07.000Z</time>
      </trkpt>
      <trkpt lat="45.87826" lon="6.14261">
        <ele>430.79998779297</ele>
        <time>2012-07-31T17:28:11.000Z</time>
      </trkpt>
      <trkpt lat="45.87804" lon="6.14265">
        <ele>430.79998779297</ele>
        <time>2012-07-31T17:28:14.000Z</time>
      </trkpt>
      <trkpt lat="45.87748" lon="6.14283">
        <ele>430.79998779297</ele>
        <time>2012-07-31T17:28:22.000Z</time>
      </trkpt>
      <trkpt lat="45.87694" lon="6.143">
        <ele>430.79998779297</ele>
        <time>2012-07-31T17:28:29.000Z</time>
      </trkpt>
      <trkpt lat="45.87679" lon="6.14303">
        <ele>430.79998779297</ele>
        <time>2012-07-31T17:28:31.000Z</time>
      </trkpt>
      <trkpt lat="45.8765" lon="6.14308">
        <ele>427.60000610352</ele>
        <time>2012-07-31T17:28:35.000Z</time>
      </trkpt>
      <trkpt lat="45.8762" lon="6.14308">
        <ele>427.60000610352</ele>
        <time>2012-07-31T17:28:39.000Z</time>
      </trkpt>
      <trkpt lat="45.87561" lon="6.14305">
        <ele>427.60000610352</ele>
        <time>2012-07-31T17:28:47.000Z</time>
      </trkpt>
      <trkpt lat="45.87503" lon="6.14302">
        <ele>427.60000610352</ele>
        <time>2012-07-31T17:28:55.000Z</time>
      </trkpt>
      <trkpt lat="45.87475" lon="6.14305">
        <ele>427.60000610352</ele>
        <time>2012-07-31T17:28:59.000Z</time>
      </trkpt>
      <trkpt lat="45.87418" lon="6.1432">
        <ele>427.60000610352</ele>
        <time>2012-07-31T17:29:07.000Z</time>
      </trkpt>
      <trkpt lat="45.87363" lon="6.1434">
        <ele>427.60000610352</ele>
        <time>2012-07-31T17:29:15.000Z</time>
      </trkpt>
      <trkpt lat="45.87355" lon="6.14342">
        <ele>427.60000610352</ele>
        <time>2012-07-31T17:29:16.000Z</time>
      </trkpt>
      <trkpt lat="45.87301" lon="6.14362">
        <ele>427.60000610352</ele>
        <time>2012-07-31T17:29:24.000Z</time>
      </trkpt>
      <trkpt lat="45.87288" lon="6.14367">
        <ele>427.60000610352</ele>
        <time>2012-07-31T17:29:26.000Z</time>
      </trkpt>
      <trkpt lat="45.87232" lon="6.14381">
        <ele>427.60000610352</ele>
        <time>2012-07-31T17:29:34.000Z</time>
      </trkpt>
      <trkpt lat="45.8719" lon="6.14382">
        <ele>427.60000610352</ele>
        <time>2012-07-31T17:29:40.000Z</time>
      </trkpt>
      <trkpt lat="45.87133" lon="6.14373">
        <ele>427.60000610352</ele>
        <time>2012-07-31T17:29:48.000Z</time>
      </trkpt>
      <trkpt lat="45.87125" lon="6.14371">
        <ele>427.60000610352</ele>
        <time>2012-07-31T17:29:49.000Z</time>
      </trkpt>
      <trkpt lat="45.8707" lon="6.14348">
        <ele>427.60000610352</ele>
        <time>2012-07-31T17:29:57.000Z</time>
      </trkpt>
      <trkpt lat="45.87063" lon="6.14345">
        <ele>427.60000610352</ele>
        <time>2012-07-31T17:29:58.000Z</time>
      </trkpt>
      <trkpt lat="45.87009" lon="6.14313">
        <ele>427.60000610352</ele>
        <time>2012-07-31T17:30:06.000Z</time>
      </trkpt>
      <trkpt lat="45.86989" lon="6.14301">
        <ele>426.39999389648</ele>
        <time>2012-07-31T17:30:09.000Z</time>
      </trkpt>
      <trkpt lat="45.86963" lon="6.14288">
        <ele>426.39999389648</ele>
        <time>2012-07-31T17:30:13.000Z</time>
      </trkpt>
      <trkpt lat="45.86956" lon="6.14286">
        <ele>426.39999389648</ele>
        <time>2012-07-31T17:30:14.000Z</time>
      </trkpt>
      <trkpt lat="45.8693" lon="6.14276">
        <ele>426.39999389648</ele>
        <time>2012-07-31T17:30:18.000Z</time>
      </trkpt>
      <trkpt lat="45.86886" lon="6.14265">
        <ele>426.39999389648</ele>
        <time>2012-07-31T17:30:24.000Z</time>
      </trkpt>
      <trkpt lat="45.86842" lon="6.14266">
        <ele>426.39999389648</ele>
        <time>2012-07-31T17:30:30.000Z</time>
      </trkpt>
      <trkpt lat="45.86799" lon="6.14277">
        <ele>426.39999389648</ele>
        <time>2012-07-31T17:30:36.000Z</time>
      </trkpt>
      <trkpt lat="45.86756" lon="6.14299">
        <ele>426.39999389648</ele>
        <time>2012-07-31T17:30:42.000Z</time>
      </trkpt>
      <trkpt lat="45.86704" lon="6.14333">
        <ele>426.39999389648</ele>
        <time>2012-07-31T17:30:50.000Z</time>
      </trkpt>
      <trkpt lat="45.86651" lon="6.14364">
        <ele>426.39999389648</ele>
        <time>2012-07-31T17:30:58.000Z</time>
      </trkpt>
      <trkpt lat="45.86644" lon="6.14368">
        <ele>426.39999389648</ele>
        <time>2012-07-31T17:30:59.000Z</time>
      </trkpt>
      <trkpt lat="45.86594" lon="6.14382">
        <ele>426.39999389648</ele>
        <time>2012-07-31T17:31:06.000Z</time>
      </trkpt>
      <trkpt lat="45.86537" lon="6.14384">
        <ele>426.39999389648</ele>
        <time>2012-07-31T17:31:14.000Z</time>
      </trkpt>
      <trkpt lat="45.86479" lon="6.14383">
        <ele>426.39999389648</ele>
        <time>2012-07-31T17:31:22.000Z</time>
      </trkpt>
      <trkpt lat="45.86465" lon="6.14384">
        <ele>426.39999389648</ele>
        <time>2012-07-31T17:31:24.000Z</time>
      </trkpt>
      <trkpt lat="45.86407" lon="6.14386">
        <ele>426.39999389648</ele>
        <time>2012-07-31T17:31:32.000Z</time>
      </trkpt>
      <trkpt lat="45.86348" lon="6.14382">
        <ele>426.39999389648</ele>
        <time>2012-07-31T17:31:40.000Z</time>
      </trkpt>
      <trkpt lat="45.86292" lon="6.14368">
        <ele>426.39999389648</ele>
        <time>2012-07-31T17:31:48.000Z</time>
      </trkpt>
      <trkpt lat="45.86239" lon="6.14342">
        <ele>426.39999389648</ele>
        <time>2012-07-31T17:31:56.000Z</time>
      </trkpt>
      <trkpt lat="45.86233" lon="6.14337">
        <ele>426.39999389648</ele>
        <time>2012-07-31T17:31:57.000Z</time>
      </trkpt>
      <trkpt lat="45.86218" lon="6.14316">
        <ele>426.39999389648</ele>
        <time>2012-07-31T17:32:00.000Z</time>
      </trkpt>
      <trkpt lat="45.86202" lon="6.14299">
        <ele>426.39999389648</ele>
        <time>2012-07-31T17:32:03.000Z</time>
      </trkpt>
      <trkpt lat="45.86189" lon="6.14292">
        <ele>426.39999389648</ele>
        <time>2012-07-31T17:32:05.000Z</time>
      </trkpt>
      <trkpt lat="45.86135" lon="6.14271">
        <ele>426.39999389648</ele>
        <time>2012-07-31T17:32:13.000Z</time>
      </trkpt>
      <trkpt lat="45.86122" lon="6.14265">
        <ele>426.39999389648</ele>
        <time>2012-07-31T17:32:15.000Z</time>
      </trkpt>
      <trkpt lat="45.86094" lon="6.14253">
        <ele>425.39999389648</ele>
        <time>2012-07-31T17:32:19.000Z</time>
      </trkpt>
      <trkpt lat="45.8606" lon="6.14238">
        <ele>425.39999389648</ele>
        <time>2012-07-31T17:32:24.000Z</time>
      </trkpt>
      <trkpt lat="45.86041" lon="6.1423">
        <ele>424.39999389648</ele>
        <time>2012-07-31T17:32:27.000Z</time>
      </trkpt>
      <trkpt lat="45.8602" lon="6.14226">
        <ele>424.39999389648</ele>
        <time>2012-07-31T17:32:30.000Z</time>
      </trkpt>
      <trkpt lat="45.85982" lon="6.14233">
        <ele>424.39999389648</ele>
        <time>2012-07-31T17:32:36.000Z</time>
      </trkpt>
      <trkpt lat="45.85961" lon="6.14256">
        <ele>424.39999389648</ele>
        <time>2012-07-31T17:32:40.000Z</time>
      </trkpt>
      <trkpt lat="45.85956" lon="6.14263">
        <ele>424.39999389648</ele>
        <time>2012-07-31T17:32:41.000Z</time>
      </trkpt>
      <trkpt lat="45.85943" lon="6.14283">
        <ele>424.39999389648</ele>
        <time>2012-07-31T17:32:44.000Z</time>
      </trkpt>
      <trkpt lat="45.85933" lon="6.14291">
        <ele>424.39999389648</ele>
        <time>2012-07-31T17:32:46.000Z</time>
      </trkpt>
      <trkpt lat="45.85919" lon="6.14287">
        <ele>424.39999389648</ele>
        <time>2012-07-31T17:32:49.000Z</time>
      </trkpt>
      <trkpt lat="45.85909" lon="6.14293">
        <ele>429</ele>
        <time>2012-07-31T17:32:52.000Z</time>
      </trkpt>
      <trkpt lat="45.85899" lon="6.14297">
        <ele>429</ele>
        <time>2012-07-31T17:32:54.000Z</time>
      </trkpt>
      <trkpt lat="45.85893" lon="6.143">
        <ele>429</ele>
        <time>2012-07-31T17:32:55.000Z</time>
      </trkpt>
      <trkpt lat="45.85858" lon="6.14322">
        <ele>429</ele>
        <time>2012-07-31T17:33:01.000Z</time>
      </trkpt>
      <trkpt lat="45.85819" lon="6.1436">
        <ele>429</ele>
        <time>2012-07-31T17:33:08.000Z</time>
      </trkpt>
      <trkpt lat="45.85788" lon="6.14405">
        <ele>429</ele>
        <time>2012-07-31T17:33:15.000Z</time>
      </trkpt>
      <trkpt lat="45.85755" lon="6.1446">
        <ele>429</ele>
        <time>2012-07-31T17:33:23.000Z</time>
      </trkpt>
      <trkpt lat="45.85718" lon="6.14522">
        <ele>429</ele>
        <time>2012-07-31T17:33:32.000Z</time>
      </trkpt>
      <trkpt lat="45.85679" lon="6.14566">
        <ele>429</ele>
        <time>2012-07-31T17:33:40.000Z</time>
      </trkpt>
      <trkpt lat="45.85635" lon="6.14601">
        <ele>429</ele>
        <time>2012-07-31T17:33:48.000Z</time>
      </trkpt>
      <trkpt lat="45.85585" lon="6.14625">
        <ele>429</ele>
        <time>2012-07-31T17:33:56.000Z</time>
      </trkpt>
      <trkpt lat="45.85544" lon="6.14632">
        <ele>429</ele>
        <time>2012-07-31T17:34:02.000Z</time>
      </trkpt>
      <trkpt lat="45.85487" lon="6.14639">
        <ele>427</ele>
        <time>2012-07-31T17:34:10.000Z</time>
      </trkpt>
      <trkpt lat="45.85479" lon="6.14639">
        <ele>426</ele>
        <time>2012-07-31T17:34:11.000Z</time>
      </trkpt>
      <trkpt lat="45.85431" lon="6.14646">
        <ele>426</ele>
        <time>2012-07-31T17:34:17.000Z</time>
      </trkpt>
      <trkpt lat="45.85381" lon="6.14666">
        <ele>426</ele>
        <time>2012-07-31T17:34:24.000Z</time>
      </trkpt>
      <trkpt lat="45.8533" lon="6.14703">
        <ele>426</ele>
        <time>2012-07-31T17:34:32.000Z</time>
      </trkpt>
      <trkpt lat="45.85284" lon="6.14747">
        <ele>426</ele>
        <time>2012-07-31T17:34:40.000Z</time>
      </trkpt>
      <trkpt lat="45.85272" lon="6.14758">
        <ele>426</ele>
        <time>2012-07-31T17:34:42.000Z</time>
      </trkpt>
      <trkpt lat="45.85222" lon="6.14804">
        <ele>426</ele>
        <time>2012-07-31T17:34:51.000Z</time>
      </trkpt>
      <trkpt lat="45.8518" lon="6.14845">
        <ele>426</ele>
        <time>2012-07-31T17:34:59.000Z</time>
      </trkpt>
      <trkpt lat="45.85134" lon="6.14887">
        <ele>426</ele>
        <time>2012-07-31T17:35:08.000Z</time>
      </trkpt>
      <trkpt lat="45.85123" lon="6.14897">
        <ele>429</ele>
        <time>2012-07-31T17:35:10.000Z</time>
      </trkpt>
      <trkpt lat="45.85096" lon="6.14917">
        <ele>429</ele>
        <time>2012-07-31T17:35:15.000Z</time>
      </trkpt>
      <trkpt lat="45.85055" lon="6.14946">
        <ele>429</ele>
        <time>2012-07-31T17:35:22.000Z</time>
      </trkpt>
      <trkpt lat="45.85024" lon="6.14967">
        <ele>429</ele>
        <time>2012-07-31T17:35:27.000Z</time>
      </trkpt>
      <trkpt lat="45.85019" lon="6.1497">
        <ele>429</ele>
        <time>2012-07-31T17:35:28.000Z</time>
      </trkpt>
      <trkpt lat="45.84972" lon="6.15">
        <ele>429</ele>
        <time>2012-07-31T17:35:36.000Z</time>
      </trkpt>
      <trkpt lat="45.84919" lon="6.15034">
        <ele>429</ele>
        <time>2012-07-31T17:35:45.000Z</time>
      </trkpt>
      <trkpt lat="45.84914" lon="6.15037">
        <ele>429</ele>
        <time>2012-07-31T17:35:46.000Z</time>
      </trkpt>
      <trkpt lat="45.8486" lon="6.15073">
        <ele>429</ele>
        <time>2012-07-31T17:35:55.000Z</time>
      </trkpt>
      <trkpt lat="45.84843" lon="6.15084">
        <ele>429</ele>
        <time>2012-07-31T17:35:58.000Z</time>
      </trkpt>
      <trkpt lat="45.84801" lon="6.15112">
        <ele>429</ele>
        <time>2012-07-31T17:36:05.000Z</time>
      </trkpt>
      <trkpt lat="45.84747" lon="6.15146">
        <ele>429</ele>
        <time>2012-07-31T17:36:14.000Z</time>
      </trkpt>
      <trkpt lat="45.84741" lon="6.1515">
        <ele>429</ele>
        <time>2012-07-31T17:36:15.000Z</time>
      </trkpt>
      <trkpt lat="45.84693" lon="6.1518">
        <ele>429</ele>
        <time>2012-07-31T17:36:23.000Z</time>
      </trkpt>
      <trkpt lat="45.84639" lon="6.15216">
        <ele>429</ele>
        <time>2012-07-31T17:36:32.000Z</time>
      </trkpt>
      <trkpt lat="45.84627" lon="6.15224">
        <ele>429</ele>
        <time>2012-07-31T17:36:34.000Z</time>
      </trkpt>
      <trkpt lat="45.84576" lon="6.1526">
        <ele>429</ele>
        <time>2012-07-31T17:36:43.000Z</time>
      </trkpt>
      <trkpt lat="45.84526" lon="6.15304">
        <ele>430.20001220703</ele>
        <time>2012-07-31T17:36:52.000Z</time>
      </trkpt>
      <trkpt lat="45.84521" lon="6.15309">
        <ele>430.20001220703</ele>
        <time>2012-07-31T17:36:53.000Z</time>
      </trkpt>
      <trkpt lat="45.84476" lon="6.15358">
        <ele>430.20001220703</ele>
        <time>2012-07-31T17:37:02.000Z</time>
      </trkpt>
      <trkpt lat="45.84472" lon="6.15363">
        <ele>430.20001220703</ele>
        <time>2012-07-31T17:37:03.000Z</time>
      </trkpt>
      <trkpt lat="45.8443" lon="6.15418">
        <ele>430.20001220703</ele>
        <time>2012-07-31T17:37:12.000Z</time>
      </trkpt>
      <trkpt lat="45.84427" lon="6.15423">
        <ele>430.20001220703</ele>
        <time>2012-07-31T17:37:13.000Z</time>
      </trkpt>
      <trkpt lat="45.84394" lon="6.15475">
        <ele>430.20001220703</ele>
        <time>2012-07-31T17:37:21.000Z</time>
      </trkpt>
      <trkpt lat="45.84384" lon="6.15495">
        <ele>432.20001220703</ele>
        <time>2012-07-31T17:37:24.000Z</time>
      </trkpt>
      <trkpt lat="45.84377" lon="6.15508">
        <ele>426.39999389648</ele>
        <time>2012-07-31T17:37:26.000Z</time>
      </trkpt>
      <trkpt lat="45.84373" lon="6.15515">
        <ele>424.39999389648</ele>
        <time>2012-07-31T17:37:27.000Z</time>
      </trkpt>
      <trkpt lat="45.8437" lon="6.15522">
        <ele>429.60000610352</ele>
        <time>2012-07-31T17:37:28.000Z</time>
      </trkpt>
      <trkpt lat="45.84365" lon="6.1553">
        <ele>430.60000610352</ele>
        <time>2012-07-31T17:37:29.000Z</time>
      </trkpt>
      <trkpt lat="45.84349" lon="6.15567">
        <ele>430.60000610352</ele>
        <time>2012-07-31T17:37:34.000Z</time>
      </trkpt>
      <trkpt lat="45.84326" lon="6.15621">
        <ele>430.60000610352</ele>
        <time>2012-07-31T17:37:41.000Z</time>
      </trkpt>
      <trkpt lat="45.84303" lon="6.15672">
        <ele>430.60000610352</ele>
        <time>2012-07-31T17:37:48.000Z</time>
      </trkpt>
      <trkpt lat="45.84282" lon="6.15719">
        <ele>430.60000610352</ele>
        <time>2012-07-31T17:37:54.000Z</time>
      </trkpt>
      <trkpt lat="45.84259" lon="6.15774">
        <ele>430.60000610352</ele>
        <time>2012-07-31T17:38:01.000Z</time>
      </trkpt>
      <trkpt lat="45.84226" lon="6.15846">
        <ele>430.60000610352</ele>
        <time>2012-07-31T17:38:10.000Z</time>
      </trkpt>
      <trkpt lat="45.84212" lon="6.15876">
        <ele>431.79998779297</ele>
        <time>2012-07-31T17:38:14.000Z</time>
      </trkpt>
      <trkpt lat="45.84195" lon="6.15905">
        <ele>431.79998779297</ele>
        <time>2012-07-31T17:38:18.000Z</time>
      </trkpt>
      <trkpt lat="45.84191" lon="6.15912">
        <ele>431.79998779297</ele>
        <time>2012-07-31T17:38:19.000Z</time>
      </trkpt>
      <trkpt lat="45.84178" lon="6.15932">
        <ele>431.79998779297</ele>
        <time>2012-07-31T17:38:22.000Z</time>
      </trkpt>
      <trkpt lat="45.84145" lon="6.15975">
        <ele>431.79998779297</ele>
        <time>2012-07-31T17:38:29.000Z</time>
      </trkpt>
      <trkpt lat="45.84105" lon="6.16018">
        <ele>431.79998779297</ele>
        <time>2012-07-31T17:38:37.000Z</time>
      </trkpt>
      <trkpt lat="45.84056" lon="6.16058">
        <ele>431.79998779297</ele>
        <time>2012-07-31T17:38:46.000Z</time>
      </trkpt>
      <trkpt lat="45.84051" lon="6.16061">
        <ele>431.79998779297</ele>
        <time>2012-07-31T17:38:47.000Z</time>
      </trkpt>
      <trkpt lat="45.84007" lon="6.1609">
        <ele>431.79998779297</ele>
        <time>2012-07-31T17:38:55.000Z</time>
      </trkpt>
      <trkpt lat="45.83986" lon="6.16103">
        <ele>432.79998779297</ele>
        <time>2012-07-31T17:38:59.000Z</time>
      </trkpt>
      <trkpt lat="45.83976" lon="6.16109">
        <ele>432.79998779297</ele>
        <time>2012-07-31T17:39:01.000Z</time>
      </trkpt>
      <trkpt lat="45.83972" lon="6.16113">
        <ele>432.79998779297</ele>
        <time>2012-07-31T17:39:02.000Z</time>
      </trkpt>
      <trkpt lat="45.83926" lon="6.16141">
        <ele>432.79998779297</ele>
        <time>2012-07-31T17:39:11.000Z</time>
      </trkpt>
      <trkpt lat="45.83875" lon="6.16173">
        <ele>432.79998779297</ele>
        <time>2012-07-31T17:39:21.000Z</time>
      </trkpt>
      <trkpt lat="45.8387" lon="6.16177">
        <ele>432.79998779297</ele>
        <time>2012-07-31T17:39:22.000Z</time>
      </trkpt>
      <trkpt lat="45.8386" lon="6.16183">
        <ele>433.79998779297</ele>
        <time>2012-07-31T17:39:24.000Z</time>
      </trkpt>
      <trkpt lat="45.83819" lon="6.1621">
        <ele>433.79998779297</ele>
        <time>2012-07-31T17:39:32.000Z</time>
      </trkpt>
      <trkpt lat="45.83788" lon="6.16229">
        <ele>435</ele>
        <time>2012-07-31T17:39:38.000Z</time>
      </trkpt>
      <trkpt lat="45.83773" lon="6.16239">
        <ele>435</ele>
        <time>2012-07-31T17:39:41.000Z</time>
      </trkpt>
      <trkpt lat="45.83733" lon="6.16266">
        <ele>435</ele>
        <time>2012-07-31T17:39:49.000Z</time>
      </trkpt>
      <trkpt lat="45.83691" lon="6.16301">
        <ele>435</ele>
        <time>2012-07-31T17:39:57.000Z</time>
      </trkpt>
      <trkpt lat="45.83687" lon="6.16305">
        <ele>436.20001220703</ele>
        <time>2012-07-31T17:39:58.000Z</time>
      </trkpt>
      <trkpt lat="45.83648" lon="6.16348">
        <ele>436.20001220703</ele>
        <time>2012-07-31T17:40:06.000Z</time>
      </trkpt>
      <trkpt lat="45.83631" lon="6.16371">
        <ele>437.20001220703</ele>
        <time>2012-07-31T17:40:10.000Z</time>
      </trkpt>
      <trkpt lat="45.8361" lon="6.16403">
        <ele>437.20001220703</ele>
        <time>2012-07-31T17:40:15.000Z</time>
      </trkpt>
      <trkpt lat="45.8359" lon="6.16436">
        <ele>438.20001220703</ele>
        <time>2012-07-31T17:40:20.000Z</time>
      </trkpt>
      <trkpt lat="45.83573" lon="6.16471">
        <ele>438.20001220703</ele>
        <time>2012-07-31T17:40:25.000Z</time>
      </trkpt>
      <trkpt lat="45.83542" lon="6.16533">
        <ele>438.20001220703</ele>
        <time>2012-07-31T17:40:34.000Z</time>
      </trkpt>
      <trkpt lat="45.83518" lon="6.16582">
        <ele>438.20001220703</ele>
        <time>2012-07-31T17:40:42.000Z</time>
      </trkpt>
      <trkpt lat="45.83512" lon="6.16595">
        <ele>438.20001220703</ele>
        <time>2012-07-31T17:40:46.000Z</time>
      </trkpt>
      <trkpt lat="45.83506" lon="6.16605">
        <ele>438.20001220703</ele>
        <time>2012-07-31T17:40:51.000Z</time>
      </trkpt>
      <trkpt lat="45.83502" lon="6.16614">
        <ele>438.20001220703</ele>
        <time>2012-07-31T17:40:56.000Z</time>
      </trkpt>
      <trkpt lat="45.83501" lon="6.16616">
        <ele>438.20001220703</ele>
        <time>2012-07-31T17:40:57.000Z</time>
      </trkpt>
      <trkpt lat="45.83495" lon="6.16632">
        <ele>438.20001220703</ele>
        <time>2012-07-31T17:41:01.000Z</time>
      </trkpt>
      <trkpt lat="45.83492" lon="6.16637">
        <ele>438.20001220703</ele>
        <time>2012-07-31T17:41:02.000Z</time>
      </trkpt>
      <trkpt lat="45.83479" lon="6.16662">
        <ele>438.20001220703</ele>
        <time>2012-07-31T17:41:06.000Z</time>
      </trkpt>
      <trkpt lat="45.83451" lon="6.1672">
        <ele>438.20001220703</ele>
        <time>2012-07-31T17:41:14.000Z</time>
      </trkpt>
      <trkpt lat="45.83419" lon="6.16785">
        <ele>438.20001220703</ele>
        <time>2012-07-31T17:41:23.000Z</time>
      </trkpt>
      <trkpt lat="45.83415" lon="6.16793">
        <ele>438.20001220703</ele>
        <time>2012-07-31T17:41:24.000Z</time>
      </trkpt>
      <trkpt lat="45.83408" lon="6.16807">
        <ele>440.20001220703</ele>
        <time>2012-07-31T17:41:26.000Z</time>
      </trkpt>
      <trkpt lat="45.83384" lon="6.16859">
        <ele>440.20001220703</ele>
        <time>2012-07-31T17:41:33.000Z</time>
      </trkpt>
      <trkpt lat="45.83353" lon="6.16928">
        <ele>440.20001220703</ele>
        <time>2012-07-31T17:41:42.000Z</time>
      </trkpt>
      <trkpt lat="45.83346" lon="6.16944">
        <ele>440.20001220703</ele>
        <time>2012-07-31T17:41:44.000Z</time>
      </trkpt>
      <trkpt lat="45.83313" lon="6.17013">
        <ele>440.20001220703</ele>
        <time>2012-07-31T17:41:53.000Z</time>
      </trkpt>
      <trkpt lat="45.8328" lon="6.17084">
        <ele>440.20001220703</ele>
        <time>2012-07-31T17:42:02.000Z</time>
      </trkpt>
      <trkpt lat="45.83277" lon="6.17091">
        <ele>440.20001220703</ele>
        <time>2012-07-31T17:42:03.000Z</time>
      </trkpt>
      <trkpt lat="45.83246" lon="6.17158">
        <ele>440.20001220703</ele>
        <time>2012-07-31T17:42:11.000Z</time>
      </trkpt>
      <trkpt lat="45.83243" lon="6.17167">
        <ele>440.20001220703</ele>
        <time>2012-07-31T17:42:12.000Z</time>
      </trkpt>
      <trkpt lat="45.83238" lon="6.17188">
        <ele>437</ele>
        <time>2012-07-31T17:42:14.000Z</time>
      </trkpt>
      <trkpt lat="45.83236" lon="6.1721">
        <ele>437</ele>
        <time>2012-07-31T17:42:16.000Z</time>
      </trkpt>
      <trkpt lat="45.83235" lon="6.17222">
        <ele>436</ele>
        <time>2012-07-31T17:42:17.000Z</time>
      </trkpt>
      <trkpt lat="45.83231" lon="6.17259">
        <ele>436</ele>
        <time>2012-07-31T17:42:20.000Z</time>
      </trkpt>
      <trkpt lat="45.83219" lon="6.17278">
        <ele>435</ele>
        <time>2012-07-31T17:42:22.000Z</time>
      </trkpt>
      <trkpt lat="45.83213" lon="6.17284">
        <ele>435</ele>
        <time>2012-07-31T17:42:23.000Z</time>
      </trkpt>
      <trkpt lat="45.83187" lon="6.17293">
        <ele>435</ele>
        <time>2012-07-31T17:42:27.000Z</time>
      </trkpt>
      <trkpt lat="45.83178" lon="6.17308">
        <ele>435</ele>
        <time>2012-07-31T17:42:29.000Z</time>
      </trkpt>
      <trkpt lat="45.83162" lon="6.17337">
        <ele>419.39999389648</ele>
        <time>2012-07-31T17:42:33.000Z</time>
      </trkpt>
      <trkpt lat="45.83143" lon="6.17373">
        <ele>419.39999389648</ele>
        <time>2012-07-31T17:42:38.000Z</time>
      </trkpt>
      <trkpt lat="45.8312" lon="6.17422">
        <ele>419.39999389648</ele>
        <time>2012-07-31T17:42:44.000Z</time>
      </trkpt>
      <trkpt lat="45.83089" lon="6.17487">
        <ele>419.39999389648</ele>
        <time>2012-07-31T17:42:52.000Z</time>
      </trkpt>
      <trkpt lat="45.83077" lon="6.17512">
        <ele>419.39999389648</ele>
        <time>2012-07-31T17:42:55.000Z</time>
      </trkpt>
      <trkpt lat="45.83047" lon="6.17579">
        <ele>419.39999389648</ele>
        <time>2012-07-31T17:43:03.000Z</time>
      </trkpt>
      <trkpt lat="45.83043" lon="6.17589">
        <ele>419.39999389648</ele>
        <time>2012-07-31T17:43:04.000Z</time>
      </trkpt>
      <trkpt lat="45.8301" lon="6.17656">
        <ele>419.39999389648</ele>
        <time>2012-07-31T17:43:12.000Z</time>
      </trkpt>
      <trkpt lat="45.82979" lon="6.17721">
        <ele>419.39999389648</ele>
        <time>2012-07-31T17:43:20.000Z</time>
      </trkpt>
      <trkpt lat="45.82976" lon="6.17729">
        <ele>419.39999389648</ele>
        <time>2012-07-31T17:43:21.000Z</time>
      </trkpt>
      <trkpt lat="45.82948" lon="6.178">
        <ele>419.39999389648</ele>
        <time>2012-07-31T17:43:29.000Z</time>
      </trkpt>
      <trkpt lat="45.82926" lon="6.17874">
        <ele>419.39999389648</ele>
        <time>2012-07-31T17:43:37.000Z</time>
      </trkpt>
      <trkpt lat="45.82909" lon="6.17949">
        <ele>419.39999389648</ele>
        <time>2012-07-31T17:43:45.000Z</time>
      </trkpt>
      <trkpt lat="45.82907" lon="6.17958">
        <ele>419.39999389648</ele>
        <time>2012-07-31T17:43:46.000Z</time>
      </trkpt>
      <trkpt lat="45.82891" lon="6.18034">
        <ele>419.39999389648</ele>
        <time>2012-07-31T17:43:54.000Z</time>
      </trkpt>
      <trkpt lat="45.82887" lon="6.18053">
        <ele>419.39999389648</ele>
        <time>2012-07-31T17:43:56.000Z</time>
      </trkpt>
      <trkpt lat="45.82871" lon="6.18127">
        <ele>419.39999389648</ele>
        <time>2012-07-31T17:44:04.000Z</time>
      </trkpt>
      <trkpt lat="45.82857" lon="6.1819">
        <ele>419.39999389648</ele>
        <time>2012-07-31T17:44:11.000Z</time>
      </trkpt>
      <trkpt lat="45.82843" lon="6.18256">
        <ele>419.39999389648</ele>
        <time>2012-07-31T17:44:18.000Z</time>
      </trkpt>
      <trkpt lat="45.82829" lon="6.18321">
        <ele>419.39999389648</ele>
        <time>2012-07-31T17:44:25.000Z</time>
      </trkpt>
      <trkpt lat="45.82814" lon="6.18389">
        <ele>419.39999389648</ele>
        <time>2012-07-31T17:44:32.000Z</time>
      </trkpt>
      <trkpt lat="45.82799" lon="6.18453">
        <ele>419.39999389648</ele>
        <time>2012-07-31T17:44:39.000Z</time>
      </trkpt>
      <trkpt lat="45.82781" lon="6.18537">
        <ele>419.39999389648</ele>
        <time>2012-07-31T17:44:48.000Z</time>
      </trkpt>
      <trkpt lat="45.82765" lon="6.18612">
        <ele>419.39999389648</ele>
        <time>2012-07-31T17:44:56.000Z</time>
      </trkpt>
      <trkpt lat="45.82761" lon="6.18629">
        <ele>419.39999389648</ele>
        <time>2012-07-31T17:44:58.000Z</time>
      </trkpt>
      <trkpt lat="45.82748" lon="6.18697">
        <ele>419.39999389648</ele>
        <time>2012-07-31T17:45:05.000Z</time>
      </trkpt>
      <trkpt lat="45.8273" lon="6.18773">
        <ele>419.39999389648</ele>
        <time>2012-07-31T17:45:13.000Z</time>
      </trkpt>
      <trkpt lat="45.82714" lon="6.18851">
        <ele>419.39999389648</ele>
        <time>2012-07-31T17:45:21.000Z</time>
      </trkpt>
      <trkpt lat="45.82711" lon="6.18861">
        <ele>419.39999389648</ele>
        <time>2012-07-31T17:45:22.000Z</time>
      </trkpt>
      <trkpt lat="45.82693" lon="6.18943">
        <ele>419.39999389648</ele>
        <time>2012-07-31T17:45:30.000Z</time>
      </trkpt>
      <trkpt lat="45.82676" lon="6.19017">
        <ele>419.39999389648</ele>
        <time>2012-07-31T17:45:37.000Z</time>
      </trkpt>
      <trkpt lat="45.82667" lon="6.19048">
        <ele>419.39999389648</ele>
        <time>2012-07-31T17:45:40.000Z</time>
      </trkpt>
      <trkpt lat="45.82644" lon="6.19119">
        <ele>419.39999389648</ele>
        <time>2012-07-31T17:45:47.000Z</time>
      </trkpt>
      <trkpt lat="45.82641" lon="6.19129">
        <ele>417.20001220703</ele>
        <time>2012-07-31T17:45:48.000Z</time>
      </trkpt>
      <trkpt lat="45.82631" lon="6.19159">
        <ele>417.20001220703</ele>
        <time>2012-07-31T17:45:51.000Z</time>
      </trkpt>
      <trkpt lat="45.82605" lon="6.19238">
        <ele>417.20001220703</ele>
        <time>2012-07-31T17:45:59.000Z</time>
      </trkpt>
      <trkpt lat="45.826" lon="6.19257">
        <ele>417.20001220703</ele>
        <time>2012-07-31T17:46:01.000Z</time>
      </trkpt>
      <trkpt lat="45.82579" lon="6.19338">
        <ele>417.20001220703</ele>
        <time>2012-07-31T17:46:10.000Z</time>
      </trkpt>
      <trkpt lat="45.82567" lon="6.1941">
        <ele>417.20001220703</ele>
        <time>2012-07-31T17:46:18.000Z</time>
      </trkpt>
      <trkpt lat="45.82561" lon="6.19484">
        <ele>417.20001220703</ele>
        <time>2012-07-31T17:46:26.000Z</time>
      </trkpt>
      <trkpt lat="45.82563" lon="6.19569">
        <ele>417.20001220703</ele>
        <time>2012-07-31T17:46:35.000Z</time>
      </trkpt>
      <trkpt lat="45.82565" lon="6.19596">
        <ele>416.20001220703</ele>
        <time>2012-07-31T17:46:38.000Z</time>
      </trkpt>
      <trkpt lat="45.82569" lon="6.19627">
        <ele>416.20001220703</ele>
        <time>2012-07-31T17:46:42.000Z</time>
      </trkpt>
      <trkpt lat="45.82571" lon="6.19641">
        <ele>416.20001220703</ele>
        <time>2012-07-31T17:46:45.000Z</time>
      </trkpt>
      <trkpt lat="45.82574" lon="6.1966">
        <ele>416.20001220703</ele>
        <time>2012-07-31T17:46:49.000Z</time>
      </trkpt>
      <trkpt lat="45.82576" lon="6.19675">
        <ele>416.20001220703</ele>
        <time>2012-07-31T17:46:51.000Z</time>
      </trkpt>
      <trkpt lat="45.82577" lon="6.19683">
        <ele>415.20001220703</ele>
        <time>2012-07-31T17:46:52.000Z</time>
      </trkpt>
      <trkpt lat="45.82579" lon="6.19691">
        <ele>411.39999389648</ele>
        <time>2012-07-31T17:46:53.000Z</time>
      </trkpt>
      <trkpt lat="45.82582" lon="6.1971">
        <ele>417</ele>
        <time>2012-07-31T17:46:55.000Z</time>
      </trkpt>
      <trkpt lat="45.82588" lon="6.19749">
        <ele>417</ele>
        <time>2012-07-31T17:46:59.000Z</time>
      </trkpt>
      <trkpt lat="45.826" lon="6.19825">
        <ele>417</ele>
        <time>2012-07-31T17:47:07.000Z</time>
      </trkpt>
      <trkpt lat="45.82603" lon="6.19844">
        <ele>417</ele>
        <time>2012-07-31T17:47:09.000Z</time>
      </trkpt>
      <trkpt lat="45.82616" lon="6.19921">
        <ele>417</ele>
        <time>2012-07-31T17:47:17.000Z</time>
      </trkpt>
      <trkpt lat="45.82617" lon="6.1993">
        <ele>417</ele>
        <time>2012-07-31T17:47:18.000Z</time>
      </trkpt>
      <trkpt lat="45.82627" lon="6.20007">
        <ele>417</ele>
        <time>2012-07-31T17:47:26.000Z</time>
      </trkpt>
      <trkpt lat="45.82629" lon="6.20016">
        <ele>417</ele>
        <time>2012-07-31T17:47:27.000Z</time>
      </trkpt>
      <trkpt lat="45.82641" lon="6.20094">
        <ele>417</ele>
        <time>2012-07-31T17:47:35.000Z</time>
      </trkpt>
      <trkpt lat="45.82642" lon="6.20103">
        <ele>417</ele>
        <time>2012-07-31T17:47:36.000Z</time>
      </trkpt>
      <trkpt lat="45.82657" lon="6.20185">
        <ele>417</ele>
        <time>2012-07-31T17:47:45.000Z</time>
      </trkpt>
      <trkpt lat="45.82671" lon="6.20261">
        <ele>417</ele>
        <time>2012-07-31T17:47:53.000Z</time>
      </trkpt>
      <trkpt lat="45.82684" lon="6.20339">
        <ele>417</ele>
        <time>2012-07-31T17:48:01.000Z</time>
      </trkpt>
      <trkpt lat="45.82685" lon="6.20348">
        <ele>417</ele>
        <time>2012-07-31T17:48:02.000Z</time>
      </trkpt>
      <trkpt lat="45.82691" lon="6.20399">
        <ele>417</ele>
        <time>2012-07-31T17:48:08.000Z</time>
      </trkpt>
      <trkpt lat="45.82693" lon="6.20416">
        <ele>417</ele>
        <time>2012-07-31T17:48:10.000Z</time>
      </trkpt>
      <trkpt lat="45.82695" lon="6.20461">
        <ele>417</ele>
        <time>2012-07-31T17:48:15.000Z</time>
      </trkpt>
      <trkpt lat="45.82631" lon="6.20707">
        <ele>422.20001220703</ele>
        <time>2012-07-31T17:48:44.000Z</time>
      </trkpt>
      <trkpt lat="45.82627" lon="6.20715">
        <ele>422.20001220703</ele>
        <time>2012-07-31T17:48:45.000Z</time>
      </trkpt>
      <trkpt lat="45.82622" lon="6.20722">
        <ele>419.20001220703</ele>
        <time>2012-07-31T17:48:46.000Z</time>
      </trkpt>
      <trkpt lat="45.82592" lon="6.20759">
        <ele>419.20001220703</ele>
        <time>2012-07-31T17:48:52.000Z</time>
      </trkpt>
      <trkpt lat="45.82575" lon="6.20777">
        <ele>422.79998779297</ele>
        <time>2012-07-31T17:48:55.000Z</time>
      </trkpt>
      <trkpt lat="45.82569" lon="6.20783">
        <ele>425.20001220703</ele>
        <time>2012-07-31T17:48:56.000Z</time>
      </trkpt>
      <trkpt lat="45.82558" lon="6.20791">
        <ele>425.20001220703</ele>
        <time>2012-07-31T17:48:58.000Z</time>
      </trkpt>
      <trkpt lat="45.82528" lon="6.20813">
        <ele>425.20001220703</ele>
        <time>2012-07-31T17:49:03.000Z</time>
      </trkpt>
      <trkpt lat="45.82509" lon="6.20822">
        <ele>425.20001220703</ele>
        <time>2012-07-31T17:49:06.000Z</time>
      </trkpt>
      <trkpt lat="45.82465" lon="6.20837">
        <ele>425.20001220703</ele>
        <time>2012-07-31T17:49:13.000Z</time>
      </trkpt>
      <trkpt lat="45.8242" lon="6.20841">
        <ele>425.20001220703</ele>
        <time>2012-07-31T17:49:20.000Z</time>
      </trkpt>
      <trkpt lat="45.82375" lon="6.20835">
        <ele>425.20001220703</ele>
        <time>2012-07-31T17:49:27.000Z</time>
      </trkpt>
      <trkpt lat="45.82326" lon="6.20815">
        <ele>425.20001220703</ele>
        <time>2012-07-31T17:49:35.000Z</time>
      </trkpt>
      <trkpt lat="45.8229" lon="6.20789">
        <ele>425.20001220703</ele>
        <time>2012-07-31T17:49:42.000Z</time>
      </trkpt>
      <trkpt lat="45.82251" lon="6.20751">
        <ele>425.20001220703</ele>
        <time>2012-07-31T17:49:50.000Z</time>
      </trkpt>
      <trkpt lat="45.82216" lon="6.20714">
        <ele>425.20001220703</ele>
        <time>2012-07-31T17:49:57.000Z</time>
      </trkpt>
      <trkpt lat="45.82174" lon="6.20673">
        <ele>425.20001220703</ele>
        <time>2012-07-31T17:50:05.000Z</time>
      </trkpt>
      <trkpt lat="45.82128" lon="6.20643">
        <ele>425.20001220703</ele>
        <time>2012-07-31T17:50:13.000Z</time>
      </trkpt>
      <trkpt lat="45.82086" lon="6.20626">
        <ele>425.20001220703</ele>
        <time>2012-07-31T17:50:20.000Z</time>
      </trkpt>
      <trkpt lat="45.82037" lon="6.2062">
        <ele>425.20001220703</ele>
        <time>2012-07-31T17:50:28.000Z</time>
      </trkpt>
      <trkpt lat="45.81987" lon="6.20628">
        <ele>425.20001220703</ele>
        <time>2012-07-31T17:50:36.000Z</time>
      </trkpt>
      <trkpt lat="45.81938" lon="6.20648">
        <ele>425.20001220703</ele>
        <time>2012-07-31T17:50:44.000Z</time>
      </trkpt>
      <trkpt lat="45.81892" lon="6.20669">
        <ele>425.20001220703</ele>
        <time>2012-07-31T17:50:51.000Z</time>
      </trkpt>
      <trkpt lat="45.81837" lon="6.20691">
        <ele>425.20001220703</ele>
        <time>2012-07-31T17:50:59.000Z</time>
      </trkpt>
      <trkpt lat="45.8183" lon="6.20694">
        <ele>425.20001220703</ele>
        <time>2012-07-31T17:51:00.000Z</time>
      </trkpt>
      <trkpt lat="45.81776" lon="6.20709">
        <ele>425.20001220703</ele>
        <time>2012-07-31T17:51:08.000Z</time>
      </trkpt>
      <trkpt lat="45.8177" lon="6.2071">
        <ele>425.20001220703</ele>
        <time>2012-07-31T17:51:09.000Z</time>
      </trkpt>
      <trkpt lat="45.8171" lon="6.20724">
        <ele>425.20001220703</ele>
        <time>2012-07-31T17:51:18.000Z</time>
      </trkpt>
      <trkpt lat="45.81705" lon="6.20725">
        <ele>425.20001220703</ele>
        <time>2012-07-31T17:51:19.000Z</time>
      </trkpt>
      <trkpt lat="45.81645" lon="6.20739">
        <ele>425.20001220703</ele>
        <time>2012-07-31T17:51:28.000Z</time>
      </trkpt>
      <trkpt lat="45.81639" lon="6.2074">
        <ele>425.20001220703</ele>
        <time>2012-07-31T17:51:29.000Z</time>
      </trkpt>
      <trkpt lat="45.81589" lon="6.20752">
        <ele>425.20001220703</ele>
        <time>2012-07-31T17:51:37.000Z</time>
      </trkpt>
      <trkpt lat="45.81542" lon="6.20762">
        <ele>425.20001220703</ele>
        <time>2012-07-31T17:51:45.000Z</time>
      </trkpt>
      <trkpt lat="45.81512" lon="6.20769">
        <ele>427.20001220703</ele>
        <time>2012-07-31T17:51:50.000Z</time>
      </trkpt>
      <trkpt lat="45.81489" lon="6.20774">
        <ele>427.20001220703</ele>
        <time>2012-07-31T17:51:54.000Z</time>
      </trkpt>
      <trkpt lat="45.81432" lon="6.20787">
        <ele>427.20001220703</ele>
        <time>2012-07-31T17:52:04.000Z</time>
      </trkpt>
      <trkpt lat="45.81419" lon="6.2079">
        <ele>427.20001220703</ele>
        <time>2012-07-31T17:52:06.000Z</time>
      </trkpt>
      <trkpt lat="45.81366" lon="6.20803">
        <ele>427.20001220703</ele>
        <time>2012-07-31T17:52:15.000Z</time>
      </trkpt>
      <trkpt lat="45.81308" lon="6.20817">
        <ele>427.20001220703</ele>
        <time>2012-07-31T17:52:25.000Z</time>
      </trkpt>
      <trkpt lat="45.81296" lon="6.2082">
        <ele>428.20001220703</ele>
        <time>2012-07-31T17:52:27.000Z</time>
      </trkpt>
      <trkpt lat="45.81262" lon="6.20828">
        <ele>428.20001220703</ele>
        <time>2012-07-31T17:52:33.000Z</time>
      </trkpt>
      <trkpt lat="45.81215" lon="6.20843">
        <ele>428.20001220703</ele>
        <time>2012-07-31T17:52:41.000Z</time>
      </trkpt>
      <trkpt lat="45.81173" lon="6.20856">
        <ele>428.20001220703</ele>
        <time>2012-07-31T17:52:48.000Z</time>
      </trkpt>
      <trkpt lat="45.81168" lon="6.20858">
        <ele>429.39999389648</ele>
        <time>2012-07-31T17:52:49.000Z</time>
      </trkpt>
      <trkpt lat="45.81118" lon="6.20875">
        <ele>429.39999389648</ele>
        <time>2012-07-31T17:52:57.000Z</time>
      </trkpt>
      <trkpt lat="45.8107" lon="6.20893">
        <ele>430.39999389648</ele>
        <time>2012-07-31T17:53:05.000Z</time>
      </trkpt>
      <trkpt lat="45.81018" lon="6.20912">
        <ele>430.39999389648</ele>
        <time>2012-07-31T17:53:14.000Z</time>
      </trkpt>
      <trkpt lat="45.80967" lon="6.20933">
        <ele>430.39999389648</ele>
        <time>2012-07-31T17:53:23.000Z</time>
      </trkpt>
      <trkpt lat="45.80944" lon="6.20947">
        <ele>430.39999389648</ele>
        <time>2012-07-31T17:53:28.000Z</time>
      </trkpt>
      <trkpt lat="45.80925" lon="6.20949">
        <ele>426.60000610352</ele>
        <time>2012-07-31T17:53:32.000Z</time>
      </trkpt>
      <trkpt lat="45.8092" lon="6.20949">
        <ele>430</ele>
        <time>2012-07-31T17:53:33.000Z</time>
      </trkpt>
      <trkpt lat="45.80903" lon="6.20953">
        <ele>430</ele>
        <time>2012-07-31T17:53:36.000Z</time>
      </trkpt>
      <trkpt lat="45.80897" lon="6.20955">
        <ele>431.20001220703</ele>
        <time>2012-07-31T17:53:37.000Z</time>
      </trkpt>
      <trkpt lat="45.80857" lon="6.2097">
        <ele>431.20001220703</ele>
        <time>2012-07-31T17:53:44.000Z</time>
      </trkpt>
      <trkpt lat="45.80811" lon="6.20985">
        <ele>431.20001220703</ele>
        <time>2012-07-31T17:53:52.000Z</time>
      </trkpt>
      <trkpt lat="45.80772" lon="6.20998">
        <ele>431.20001220703</ele>
        <time>2012-07-31T17:53:59.000Z</time>
      </trkpt>
      <trkpt lat="45.80732" lon="6.21013">
        <ele>431.20001220703</ele>
        <time>2012-07-31T17:54:06.000Z</time>
      </trkpt>
      <trkpt lat="45.80676" lon="6.21033">
        <ele>431.20001220703</ele>
        <time>2012-07-31T17:54:16.000Z</time>
      </trkpt>
      <trkpt lat="45.8067" lon="6.21035">
        <ele>431.20001220703</ele>
        <time>2012-07-31T17:54:17.000Z</time>
      </trkpt>
      <trkpt lat="45.80613" lon="6.21055">
        <ele>431.20001220703</ele>
        <time>2012-07-31T17:54:27.000Z</time>
      </trkpt>
      <trkpt lat="45.80602" lon="6.2106">
        <ele>431.20001220703</ele>
        <time>2012-07-31T17:54:29.000Z</time>
      </trkpt>
      <trkpt lat="45.80569" lon="6.21072">
        <ele>431.20001220703</ele>
        <time>2012-07-31T17:54:35.000Z</time>
      </trkpt>
      <trkpt lat="45.80544" lon="6.21081">
        <ele>431.20001220703</ele>
        <time>2012-07-31T17:54:39.000Z</time>
      </trkpt>
      <trkpt lat="45.8049" lon="6.211">
        <ele>431.20001220703</ele>
        <time>2012-07-31T17:54:47.000Z</time>
      </trkpt>
      <trkpt lat="45.80435" lon="6.21117">
        <ele>431.20001220703</ele>
        <time>2012-07-31T17:54:55.000Z</time>
      </trkpt>
      <trkpt lat="45.80379" lon="6.21134">
        <ele>431.20001220703</ele>
        <time>2012-07-31T17:55:03.000Z</time>
      </trkpt>
      <trkpt lat="45.80372" lon="6.21135">
        <ele>431.20001220703</ele>
        <time>2012-07-31T17:55:04.000Z</time>
      </trkpt>
      <trkpt lat="45.80313" lon="6.21145">
        <ele>431.20001220703</ele>
        <time>2012-07-31T17:55:12.000Z</time>
      </trkpt>
      <trkpt lat="45.80306" lon="6.21146">
        <ele>431.20001220703</ele>
        <time>2012-07-31T17:55:13.000Z</time>
      </trkpt>
      <trkpt lat="45.80255" lon="6.21149">
        <ele>431.20001220703</ele>
        <time>2012-07-31T17:55:20.000Z</time>
      </trkpt>
      <trkpt lat="45.80204" lon="6.2115">
        <ele>428.20001220703</ele>
        <time>2012-07-31T17:55:27.000Z</time>
      </trkpt>
      <trkpt lat="45.80161" lon="6.21152">
        <ele>428.20001220703</ele>
        <time>2012-07-31T17:55:33.000Z</time>
      </trkpt>
      <trkpt lat="45.80117" lon="6.21152">
        <ele>427.20001220703</ele>
        <time>2012-07-31T17:55:39.000Z</time>
      </trkpt>
      <trkpt lat="45.80102" lon="6.21152">
        <ele>427.20001220703</ele>
        <time>2012-07-31T17:55:41.000Z</time>
      </trkpt>
      <trkpt lat="45.80065" lon="6.21154">
        <ele>427.20001220703</ele>
        <time>2012-07-31T17:55:46.000Z</time>
      </trkpt>
      <trkpt lat="45.8003" lon="6.21155">
        <ele>426.20001220703</ele>
        <time>2012-07-31T17:55:51.000Z</time>
      </trkpt>
      <trkpt lat="45.80001" lon="6.21155">
        <ele>426.20001220703</ele>
        <time>2012-07-31T17:55:55.000Z</time>
      </trkpt>
      <trkpt lat="45.79965" lon="6.21156">
        <ele>425</ele>
        <time>2012-07-31T17:56:00.000Z</time>
      </trkpt>
      <trkpt lat="45.79958" lon="6.21156">
        <ele>423.79998779297</ele>
        <time>2012-07-31T17:56:01.000Z</time>
      </trkpt>
      <trkpt lat="45.79951" lon="6.21156">
        <ele>423.79998779297</ele>
        <time>2012-07-31T17:56:02.000Z</time>
      </trkpt>
      <trkpt lat="45.79894" lon="6.21157">
        <ele>423.79998779297</ele>
        <time>2012-07-31T17:56:10.000Z</time>
      </trkpt>
      <trkpt lat="45.79844" lon="6.2116">
        <ele>422.60000610352</ele>
        <time>2012-07-31T17:56:17.000Z</time>
      </trkpt>
      <trkpt lat="45.79837" lon="6.2116">
        <ele>422.60000610352</ele>
        <time>2012-07-31T17:56:18.000Z</time>
      </trkpt>
      <trkpt lat="45.79801" lon="6.21161">
        <ele>421.60000610352</ele>
        <time>2012-07-31T17:56:23.000Z</time>
      </trkpt>
      <trkpt lat="45.79774" lon="6.21162">
        <ele>421.60000610352</ele>
        <time>2012-07-31T17:56:27.000Z</time>
      </trkpt>
      <trkpt lat="45.79719" lon="6.21163">
        <ele>421.60000610352</ele>
        <time>2012-07-31T17:56:35.000Z</time>
      </trkpt>
      <trkpt lat="45.79713" lon="6.21163">
        <ele>421.60000610352</ele>
        <time>2012-07-31T17:56:36.000Z</time>
      </trkpt>
      <trkpt lat="45.79667" lon="6.21165">
        <ele>421.60000610352</ele>
        <time>2012-07-31T17:56:43.000Z</time>
      </trkpt>
      <trkpt lat="45.79614" lon="6.21166">
        <ele>421.60000610352</ele>
        <time>2012-07-31T17:56:51.000Z</time>
      </trkpt>
      <trkpt lat="45.79594" lon="6.21166">
        <ele>421.60000610352</ele>
        <time>2012-07-31T17:56:54.000Z</time>
      </trkpt>
      <trkpt lat="45.7958" lon="6.21166">
        <ele>421.60000610352</ele>
        <time>2012-07-31T17:56:56.000Z</time>
      </trkpt>
      <trkpt lat="45.79561" lon="6.21167">
        <ele>420.60000610352</ele>
        <time>2012-07-31T17:56:59.000Z</time>
      </trkpt>
      <trkpt lat="45.79554" lon="6.21167">
        <ele>420.60000610352</ele>
        <time>2012-07-31T17:57:00.000Z</time>
      </trkpt>
      <trkpt lat="45.79542" lon="6.21166">
        <ele>420.60000610352</ele>
        <time>2012-07-31T17:57:02.000Z</time>
      </trkpt>
      <trkpt lat="45.79527" lon="6.21166">
        <ele>420.60000610352</ele>
        <time>2012-07-31T17:57:05.000Z</time>
      </trkpt>
      <trkpt lat="45.79523" lon="6.21167">
        <ele>420.60000610352</ele>
        <time>2012-07-31T17:57:06.000Z</time>
      </trkpt>
      <trkpt lat="45.79509" lon="6.21165">
        <ele>420.60000610352</ele>
        <time>2012-07-31T17:57:09.000Z</time>
      </trkpt>
      <trkpt lat="45.79503" lon="6.21165">
        <ele>419.60000610352</ele>
        <time>2012-07-31T17:57:10.000Z</time>
      </trkpt>
      <trkpt lat="45.79486" lon="6.21168">
        <ele>419.60000610352</ele>
        <time>2012-07-31T17:57:13.000Z</time>
      </trkpt>
      <trkpt lat="45.79481" lon="6.21168">
        <ele>416.39999389648</ele>
        <time>2012-07-31T17:57:14.000Z</time>
      </trkpt>
      <trkpt lat="45.79441" lon="6.21171">
        <ele>416.39999389648</ele>
        <time>2012-07-31T17:57:20.000Z</time>
      </trkpt>
      <trkpt lat="45.79395" lon="6.21181">
        <ele>416.39999389648</ele>
        <time>2012-07-31T17:57:27.000Z</time>
      </trkpt>
      <trkpt lat="45.79388" lon="6.21183">
        <ele>414.20001220703</ele>
        <time>2012-07-31T17:57:28.000Z</time>
      </trkpt>
      <trkpt lat="45.79349" lon="6.21197">
        <ele>414.20001220703</ele>
        <time>2012-07-31T17:57:34.000Z</time>
      </trkpt>
      <trkpt lat="45.79328" lon="6.21205">
        <ele>413.20001220703</ele>
        <time>2012-07-31T17:57:37.000Z</time>
      </trkpt>
      <trkpt lat="45.79295" lon="6.2122">
        <ele>413.20001220703</ele>
        <time>2012-07-31T17:57:42.000Z</time>
      </trkpt>
      <trkpt lat="45.79243" lon="6.21251">
        <ele>413.20001220703</ele>
        <time>2012-07-31T17:57:50.000Z</time>
      </trkpt>
      <trkpt lat="45.79201" lon="6.21283">
        <ele>413.20001220703</ele>
        <time>2012-07-31T17:57:57.000Z</time>
      </trkpt>
      <trkpt lat="45.79168" lon="6.21313">
        <ele>413.20001220703</ele>
        <time>2012-07-31T17:58:03.000Z</time>
      </trkpt>
      <trkpt lat="45.79159" lon="6.21326">
        <ele>413.20001220703</ele>
        <time>2012-07-31T17:58:05.000Z</time>
      </trkpt>
      <trkpt lat="45.79143" lon="6.21338">
        <ele>413.20001220703</ele>
        <time>2012-07-31T17:58:08.000Z</time>
      </trkpt>
      <trkpt lat="45.79133" lon="6.21344">
        <ele>413.20001220703</ele>
        <time>2012-07-31T17:58:10.000Z</time>
      </trkpt>
      <trkpt lat="45.79117" lon="6.21359">
        <ele>413.20001220703</ele>
        <time>2012-07-31T17:58:13.000Z</time>
      </trkpt>
      <trkpt lat="45.79085" lon="6.2139">
        <ele>413.20001220703</ele>
        <time>2012-07-31T17:58:19.000Z</time>
      </trkpt>
      <trkpt lat="45.79041" lon="6.21431">
        <ele>413.20001220703</ele>
        <time>2012-07-31T17:58:27.000Z</time>
      </trkpt>
      <trkpt lat="45.7902" lon="6.21452">
        <ele>413.20001220703</ele>
        <time>2012-07-31T17:58:31.000Z</time>
      </trkpt>
      <trkpt lat="45.79015" lon="6.21457">
        <ele>413.20001220703</ele>
        <time>2012-07-31T17:58:32.000Z</time>
      </trkpt>
      <trkpt lat="45.78996" lon="6.21477">
        <ele>413.20001220703</ele>
        <time>2012-07-31T17:58:36.000Z</time>
      </trkpt>
      <trkpt lat="45.78972" lon="6.21501">
        <ele>413.20001220703</ele>
        <time>2012-07-31T17:58:41.000Z</time>
      </trkpt>
      <trkpt lat="45.78958" lon="6.21514">
        <ele>415.20001220703</ele>
        <time>2012-07-31T17:58:44.000Z</time>
      </trkpt>
      <trkpt lat="45.78947" lon="6.21523">
        <ele>415.20001220703</ele>
        <time>2012-07-31T17:58:46.000Z</time>
      </trkpt>
      <trkpt lat="45.78909" lon="6.21559">
        <ele>415.20001220703</ele>
        <time>2012-07-31T17:58:54.000Z</time>
      </trkpt>
      <trkpt lat="45.78891" lon="6.21577">
        <ele>416.20001220703</ele>
        <time>2012-07-31T17:58:58.000Z</time>
      </trkpt>
      <trkpt lat="45.78872" lon="6.21594">
        <ele>416.20001220703</ele>
        <time>2012-07-31T17:59:02.000Z</time>
      </trkpt>
      <trkpt lat="45.78836" lon="6.21631">
        <ele>417.39999389648</ele>
        <time>2012-07-31T17:59:10.000Z</time>
      </trkpt>
      <trkpt lat="45.78827" lon="6.2164">
        <ele>417.39999389648</ele>
        <time>2012-07-31T17:59:12.000Z</time>
      </trkpt>
      <trkpt lat="45.78792" lon="6.21681">
        <ele>417.39999389648</ele>
        <time>2012-07-31T17:59:20.000Z</time>
      </trkpt>
      <trkpt lat="45.78763" lon="6.21718">
        <ele>417.39999389648</ele>
        <time>2012-07-31T17:59:27.000Z</time>
      </trkpt>
      <trkpt lat="45.78759" lon="6.21723">
        <ele>418.39999389648</ele>
        <time>2012-07-31T17:59:28.000Z</time>
      </trkpt>
      <trkpt lat="45.78728" lon="6.21767">
        <ele>418.39999389648</ele>
        <time>2012-07-31T17:59:36.000Z</time>
      </trkpt>
      <trkpt lat="45.78714" lon="6.21789">
        <ele>419.60000610352</ele>
        <time>2012-07-31T17:59:40.000Z</time>
      </trkpt>
      <trkpt lat="45.78699" lon="6.21811">
        <ele>419.60000610352</ele>
        <time>2012-07-31T17:59:44.000Z</time>
      </trkpt>
      <trkpt lat="45.78667" lon="6.21867">
        <ele>419.60000610352</ele>
        <time>2012-07-31T17:59:53.000Z</time>
      </trkpt>
      <trkpt lat="45.78647" lon="6.21908">
        <ele>420.60000610352</ele>
        <time>2012-07-31T17:59:59.000Z</time>
      </trkpt>
      <trkpt lat="45.78639" lon="6.21922">
        <ele>420.60000610352</ele>
        <time>2012-07-31T18:00:01.000Z</time>
      </trkpt>
      <trkpt lat="45.78616" lon="6.21971">
        <ele>420.60000610352</ele>
        <time>2012-07-31T18:00:09.000Z</time>
      </trkpt>
      <trkpt lat="45.78598" lon="6.22011">
        <ele>421.60000610352</ele>
        <time>2012-07-31T18:00:16.000Z</time>
      </trkpt>
      <trkpt lat="45.78579" lon="6.22051">
        <ele>421.60000610352</ele>
        <time>2012-07-31T18:00:24.000Z</time>
      </trkpt>
      <trkpt lat="45.78559" lon="6.22095">
        <ele>421.60000610352</ele>
        <time>2012-07-31T18:00:33.000Z</time>
      </trkpt>
      <trkpt lat="45.78558" lon="6.221">
        <ele>421.60000610352</ele>
        <time>2012-07-31T18:00:35.000Z</time>
      </trkpt>
      <trkpt lat="45.78553" lon="6.22109">
        <ele>422.60000610352</ele>
        <time>2012-07-31T18:00:36.000Z</time>
      </trkpt>
      <trkpt lat="45.78545" lon="6.22125">
        <ele>422.60000610352</ele>
        <time>2012-07-31T18:00:39.000Z</time>
      </trkpt>
      <trkpt lat="45.78524" lon="6.22173">
        <ele>422.60000610352</ele>
        <time>2012-07-31T18:00:47.000Z</time>
      </trkpt>
      <trkpt lat="45.78504" lon="6.22214">
        <ele>422.60000610352</ele>
        <time>2012-07-31T18:00:54.000Z</time>
      </trkpt>
      <trkpt lat="45.78476" lon="6.22275">
        <ele>422.60000610352</ele>
        <time>2012-07-31T18:01:03.000Z</time>
      </trkpt>
      <trkpt lat="45.7847" lon="6.22287">
        <ele>423.79998779297</ele>
        <time>2012-07-31T18:01:05.000Z</time>
      </trkpt>
      <trkpt lat="45.78462" lon="6.22301">
        <ele>424.79998779297</ele>
        <time>2012-07-31T18:01:07.000Z</time>
      </trkpt>
      <trkpt lat="45.78449" lon="6.22326">
        <ele>424.79998779297</ele>
        <time>2012-07-31T18:01:11.000Z</time>
      </trkpt>
      <trkpt lat="45.7841" lon="6.2239">
        <ele>425.79998779297</ele>
        <time>2012-07-31T18:01:22.000Z</time>
      </trkpt>
      <trkpt lat="45.78406" lon="6.22396">
        <ele>425.79998779297</ele>
        <time>2012-07-31T18:01:23.000Z</time>
      </trkpt>
      <trkpt lat="45.78385" lon="6.2243">
        <ele>425.79998779297</ele>
        <time>2012-07-31T18:01:30.000Z</time>
      </trkpt>
      <trkpt lat="45.78376" lon="6.22442">
        <ele>425.79998779297</ele>
        <time>2012-07-31T18:01:34.000Z</time>
      </trkpt>
      <trkpt lat="45.78374" lon="6.22445">
        <ele>425.79998779297</ele>
        <time>2012-07-31T18:01:35.000Z</time>
      </trkpt>
      <trkpt lat="45.78367" lon="6.22456">
        <ele>427</ele>
        <time>2012-07-31T18:01:38.000Z</time>
      </trkpt>
      <trkpt lat="45.78365" lon="6.22459">
        <ele>427</ele>
        <time>2012-07-31T18:01:39.000Z</time>
      </trkpt>
      <trkpt lat="45.78352" lon="6.22474">
        <ele>427</ele>
        <time>2012-07-31T18:01:43.000Z</time>
      </trkpt>
      <trkpt lat="45.78346" lon="6.22482">
        <ele>427</ele>
        <time>2012-07-31T18:01:45.000Z</time>
      </trkpt>
      <trkpt lat="45.78329" lon="6.22504">
        <ele>427</ele>
        <time>2012-07-31T18:01:49.000Z</time>
      </trkpt>
      <trkpt lat="45.78303" lon="6.22538">
        <ele>427</ele>
        <time>2012-07-31T18:01:55.000Z</time>
      </trkpt>
      <trkpt lat="45.7827" lon="6.22582">
        <ele>427</ele>
        <time>2012-07-31T18:02:03.000Z</time>
      </trkpt>
      <trkpt lat="45.78253" lon="6.22604">
        <ele>428.20001220703</ele>
        <time>2012-07-31T18:02:07.000Z</time>
      </trkpt>
      <trkpt lat="45.78235" lon="6.22627">
        <ele>428.20001220703</ele>
        <time>2012-07-31T18:02:11.000Z</time>
      </trkpt>
      <trkpt lat="45.78204" lon="6.22668">
        <ele>428.20001220703</ele>
        <time>2012-07-31T18:02:18.000Z</time>
      </trkpt>
      <trkpt lat="45.78165" lon="6.22719">
        <ele>428.20001220703</ele>
        <time>2012-07-31T18:02:27.000Z</time>
      </trkpt>
      <trkpt lat="45.78125" lon="6.22768">
        <ele>428.20001220703</ele>
        <time>2012-07-31T18:02:36.000Z</time>
      </trkpt>
      <trkpt lat="45.78105" lon="6.22794">
        <ele>428.20001220703</ele>
        <time>2012-07-31T18:02:41.000Z</time>
      </trkpt>
      <trkpt lat="45.78099" lon="6.22805">
        <ele>428.20001220703</ele>
        <time>2012-07-31T18:02:43.000Z</time>
      </trkpt>
      <trkpt lat="45.78096" lon="6.2281">
        <ele>428.20001220703</ele>
        <time>2012-07-31T18:02:44.000Z</time>
      </trkpt>
      <trkpt lat="45.78091" lon="6.22821">
        <ele>428.20001220703</ele>
        <time>2012-07-31T18:02:47.000Z</time>
      </trkpt>
      <trkpt lat="45.78094" lon="6.22828">
        <ele>424.60000610352</ele>
        <time>2012-07-31T18:02:49.000Z</time>
      </trkpt>
      <trkpt lat="45.78098" lon="6.22831">
        <ele>424.60000610352</ele>
        <time>2012-07-31T18:02:50.000Z</time>
      </trkpt>
      <trkpt lat="45.78103" lon="6.22833">
        <ele>424.60000610352</ele>
        <time>2012-07-31T18:02:51.000Z</time>
      </trkpt>
      <trkpt lat="45.78111" lon="6.22839">
        <ele>424.60000610352</ele>
        <time>2012-07-31T18:02:53.000Z</time>
      </trkpt>
      <trkpt lat="45.78118" lon="6.22848">
        <ele>424.60000610352</ele>
        <time>2012-07-31T18:02:55.000Z</time>
      </trkpt>
      <trkpt lat="45.78122" lon="6.2286">
        <ele>424.60000610352</ele>
        <time>2012-07-31T18:02:57.000Z</time>
      </trkpt>
      <trkpt lat="45.78126" lon="6.22867">
        <ele>424.60000610352</ele>
        <time>2012-07-31T18:02:58.000Z</time>
      </trkpt>
      <trkpt lat="45.7813" lon="6.22872">
        <ele>424.60000610352</ele>
        <time>2012-07-31T18:02:59.000Z</time>
      </trkpt>
      <trkpt lat="45.78148" lon="6.22882">
        <ele>424.60000610352</ele>
        <time>2012-07-31T18:03:02.000Z</time>
      </trkpt>
      <trkpt lat="45.78158" lon="6.2289">
        <ele>424.60000610352</ele>
        <time>2012-07-31T18:03:04.000Z</time>
      </trkpt>
      <trkpt lat="45.78169" lon="6.22903">
        <ele>424.60000610352</ele>
        <time>2012-07-31T18:03:06.000Z</time>
      </trkpt>
      <trkpt lat="45.78207" lon="6.22949">
        <ele>424.60000610352</ele>
        <time>2012-07-31T18:03:13.000Z</time>
      </trkpt>
      <trkpt lat="45.78218" lon="6.22963">
        <ele>423.20001220703</ele>
        <time>2012-07-31T18:03:15.000Z</time>
      </trkpt>
      <trkpt lat="45.78255" lon="6.23008">
        <ele>422.20001220703</ele>
        <time>2012-07-31T18:03:21.000Z</time>
      </trkpt>
      <trkpt lat="45.783" lon="6.23057">
        <ele>422.20001220703</ele>
        <time>2012-07-31T18:03:28.000Z</time>
      </trkpt>
      <trkpt lat="45.78307" lon="6.23061">
        <ele>421.20001220703</ele>
        <time>2012-07-31T18:03:29.000Z</time>
      </trkpt>
      <trkpt lat="45.7835" lon="6.23081">
        <ele>421.20001220703</ele>
        <time>2012-07-31T18:03:35.000Z</time>
      </trkpt>
      <trkpt lat="45.78388" lon="6.23086">
        <ele>420</ele>
        <time>2012-07-31T18:03:40.000Z</time>
      </trkpt>
      <trkpt lat="45.78396" lon="6.23085">
        <ele>420</ele>
        <time>2012-07-31T18:03:41.000Z</time>
      </trkpt>
      <trkpt lat="45.78448" lon="6.23076">
        <ele>420</ele>
        <time>2012-07-31T18:03:48.000Z</time>
      </trkpt>
      <trkpt lat="45.78455" lon="6.23075">
        <ele>419</ele>
        <time>2012-07-31T18:03:49.000Z</time>
      </trkpt>
      <trkpt lat="45.78509" lon="6.23065">
        <ele>419</ele>
        <time>2012-07-31T18:03:56.000Z</time>
      </trkpt>
      <trkpt lat="45.78516" lon="6.23064">
        <ele>419</ele>
        <time>2012-07-31T18:03:57.000Z</time>
      </trkpt>
      <trkpt lat="45.78524" lon="6.23063">
        <ele>417.79998779297</ele>
        <time>2012-07-31T18:03:58.000Z</time>
      </trkpt>
      <trkpt lat="45.7857" lon="6.23065">
        <ele>417.79998779297</ele>
        <time>2012-07-31T18:04:04.000Z</time>
      </trkpt>
      <trkpt lat="45.78586" lon="6.23068">
        <ele>416.79998779297</ele>
        <time>2012-07-31T18:04:06.000Z</time>
      </trkpt>
      <trkpt lat="45.78632" lon="6.23083">
        <ele>416.79998779297</ele>
        <time>2012-07-31T18:04:12.000Z</time>
      </trkpt>
      <trkpt lat="45.7864" lon="6.23086">
        <ele>415.79998779297</ele>
        <time>2012-07-31T18:04:13.000Z</time>
      </trkpt>
      <trkpt lat="45.78692" lon="6.23104">
        <ele>415.79998779297</ele>
        <time>2012-07-31T18:04:20.000Z</time>
      </trkpt>
      <trkpt lat="45.78751" lon="6.23124">
        <ele>415.79998779297</ele>
        <time>2012-07-31T18:04:28.000Z</time>
      </trkpt>
      <trkpt lat="45.78759" lon="6.23126">
        <ele>414.79998779297</ele>
        <time>2012-07-31T18:04:29.000Z</time>
      </trkpt>
      <trkpt lat="45.78817" lon="6.23146">
        <ele>414.79998779297</ele>
        <time>2012-07-31T18:04:37.000Z</time>
      </trkpt>
      <trkpt lat="45.78873" lon="6.23163">
        <ele>414.79998779297</ele>
        <time>2012-07-31T18:04:45.000Z</time>
      </trkpt>
      <trkpt lat="45.78887" lon="6.23168">
        <ele>414.79998779297</ele>
        <time>2012-07-31T18:04:47.000Z</time>
      </trkpt>
      <trkpt lat="45.7894" lon="6.23183">
        <ele>414.79998779297</ele>
        <time>2012-07-31T18:04:55.000Z</time>
      </trkpt>
      <trkpt lat="45.78986" lon="6.23181">
        <ele>414.79998779297</ele>
        <time>2012-07-31T18:05:02.000Z</time>
      </trkpt>
      <trkpt lat="45.79039" lon="6.2317">
        <ele>414.79998779297</ele>
        <time>2012-07-31T18:05:10.000Z</time>
      </trkpt>
      <trkpt lat="45.79046" lon="6.23169">
        <ele>414.79998779297</ele>
        <time>2012-07-31T18:05:11.000Z</time>
      </trkpt>
      <trkpt lat="45.79096" lon="6.23163">
        <ele>413.60000610352</ele>
        <time>2012-07-31T18:05:18.000Z</time>
      </trkpt>
      <trkpt lat="45.79111" lon="6.23161">
        <ele>413.60000610352</ele>
        <time>2012-07-31T18:05:20.000Z</time>
      </trkpt>
      <trkpt lat="45.79162" lon="6.23158">
        <ele>412.60000610352</ele>
        <time>2012-07-31T18:05:27.000Z</time>
      </trkpt>
      <trkpt lat="45.79177" lon="6.2316">
        <ele>412.60000610352</ele>
        <time>2012-07-31T18:05:29.000Z</time>
      </trkpt>
      <trkpt lat="45.79184" lon="6.23162">
        <ele>412.60000610352</ele>
        <time>2012-07-31T18:05:30.000Z</time>
      </trkpt>
      <trkpt lat="45.79203" lon="6.23173">
        <ele>412.60000610352</ele>
        <time>2012-07-31T18:05:33.000Z</time>
      </trkpt>
      <trkpt lat="45.7921" lon="6.23179">
        <ele>411.60000610352</ele>
        <time>2012-07-31T18:05:34.000Z</time>
      </trkpt>
      <trkpt lat="45.79216" lon="6.23185">
        <ele>411.60000610352</ele>
        <time>2012-07-31T18:05:35.000Z</time>
      </trkpt>
      <trkpt lat="45.79233" lon="6.23203">
        <ele>411.60000610352</ele>
        <time>2012-07-31T18:05:38.000Z</time>
      </trkpt>
      <trkpt lat="45.79245" lon="6.23213">
        <ele>411.60000610352</ele>
        <time>2012-07-31T18:05:40.000Z</time>
      </trkpt>
      <trkpt lat="45.79251" lon="6.23217">
        <ele>411.60000610352</ele>
        <time>2012-07-31T18:05:41.000Z</time>
      </trkpt>
      <trkpt lat="45.79263" lon="6.23225">
        <ele>411.60000610352</ele>
        <time>2012-07-31T18:05:43.000Z</time>
      </trkpt>
      <trkpt lat="45.79303" lon="6.23238">
        <ele>411.60000610352</ele>
        <time>2012-07-31T18:05:49.000Z</time>
      </trkpt>
      <trkpt lat="45.79338" lon="6.23235">
        <ele>411.60000610352</ele>
        <time>2012-07-31T18:05:54.000Z</time>
      </trkpt>
      <trkpt lat="45.79352" lon="6.23232">
        <ele>410.60000610352</ele>
        <time>2012-07-31T18:05:56.000Z</time>
      </trkpt>
      <trkpt lat="45.79407" lon="6.23221">
        <ele>410.60000610352</ele>
        <time>2012-07-31T18:06:04.000Z</time>
      </trkpt>
      <trkpt lat="45.79421" lon="6.23218">
        <ele>410.60000610352</ele>
        <time>2012-07-31T18:06:06.000Z</time>
      </trkpt>
      <trkpt lat="45.79475" lon="6.23207">
        <ele>410.60000610352</ele>
        <time>2012-07-31T18:06:14.000Z</time>
      </trkpt>
      <trkpt lat="45.79489" lon="6.23204">
        <ele>410.60000610352</ele>
        <time>2012-07-31T18:06:16.000Z</time>
      </trkpt>
      <trkpt lat="45.79545" lon="6.23194">
        <ele>410.60000610352</ele>
        <time>2012-07-31T18:06:24.000Z</time>
      </trkpt>
      <trkpt lat="45.79559" lon="6.23192">
        <ele>410.60000610352</ele>
        <time>2012-07-31T18:06:26.000Z</time>
      </trkpt>
      <trkpt lat="45.7962" lon="6.23182">
        <ele>410.60000610352</ele>
        <time>2012-07-31T18:06:35.000Z</time>
      </trkpt>
      <trkpt lat="45.79627" lon="6.2318">
        <ele>410.60000610352</ele>
        <time>2012-07-31T18:06:36.000Z</time>
      </trkpt>
      <trkpt lat="45.79686" lon="6.23168">
        <ele>410.60000610352</ele>
        <time>2012-07-31T18:06:45.000Z</time>
      </trkpt>
      <trkpt lat="45.797" lon="6.23165">
        <ele>410.60000610352</ele>
        <time>2012-07-31T18:06:47.000Z</time>
      </trkpt>
      <trkpt lat="45.79758" lon="6.23154">
        <ele>410.60000610352</ele>
        <time>2012-07-31T18:06:56.000Z</time>
      </trkpt>
      <trkpt lat="45.79763" lon="6.23152">
        <ele>409.60000610352</ele>
        <time>2012-07-31T18:06:57.000Z</time>
      </trkpt>
      <trkpt lat="45.79817" lon="6.23137">
        <ele>409.60000610352</ele>
        <time>2012-07-31T18:07:05.000Z</time>
      </trkpt>
      <trkpt lat="45.79835" lon="6.23128">
        <ele>409.60000610352</ele>
        <time>2012-07-31T18:07:08.000Z</time>
      </trkpt>
      <trkpt lat="45.79853" lon="6.23115">
        <ele>409.60000610352</ele>
        <time>2012-07-31T18:07:11.000Z</time>
      </trkpt>
      <trkpt lat="45.79885" lon="6.23081">
        <ele>409.60000610352</ele>
        <time>2012-07-31T18:07:17.000Z</time>
      </trkpt>
      <trkpt lat="45.79922" lon="6.23029">
        <ele>409.60000610352</ele>
        <time>2012-07-31T18:07:25.000Z</time>
      </trkpt>
      <trkpt lat="45.79951" lon="6.22991">
        <ele>409.60000610352</ele>
        <time>2012-07-31T18:07:31.000Z</time>
      </trkpt>
      <trkpt lat="45.79998" lon="6.22939">
        <ele>409.60000610352</ele>
        <time>2012-07-31T18:07:40.000Z</time>
      </trkpt>
      <trkpt lat="45.80021" lon="6.22923">
        <ele>409.60000610352</ele>
        <time>2012-07-31T18:07:44.000Z</time>
      </trkpt>
      <trkpt lat="45.80027" lon="6.22921">
        <ele>409.60000610352</ele>
        <time>2012-07-31T18:07:45.000Z</time>
      </trkpt>
      <trkpt lat="45.80047" lon="6.22917">
        <ele>409.60000610352</ele>
        <time>2012-07-31T18:07:48.000Z</time>
      </trkpt>
      <trkpt lat="45.80066" lon="6.22915">
        <ele>409.60000610352</ele>
        <time>2012-07-31T18:07:51.000Z</time>
      </trkpt>
      <trkpt lat="45.80124" lon="6.22915">
        <ele>409.60000610352</ele>
        <time>2012-07-31T18:08:00.000Z</time>
      </trkpt>
      <trkpt lat="45.80162" lon="6.22932">
        <ele>409.60000610352</ele>
        <time>2012-07-31T18:08:06.000Z</time>
      </trkpt>
      <trkpt lat="45.80204" lon="6.22954">
        <ele>409.60000610352</ele>
        <time>2012-07-31T18:08:13.000Z</time>
      </trkpt>
      <trkpt lat="45.80253" lon="6.22982">
        <ele>409.60000610352</ele>
        <time>2012-07-31T18:08:21.000Z</time>
      </trkpt>
      <trkpt lat="45.80294" lon="6.23009">
        <ele>409.60000610352</ele>
        <time>2012-07-31T18:08:28.000Z</time>
      </trkpt>
      <trkpt lat="45.80318" lon="6.23029">
        <ele>409.60000610352</ele>
        <time>2012-07-31T18:08:33.000Z</time>
      </trkpt>
      <trkpt lat="45.80348" lon="6.23054">
        <ele>409.60000610352</ele>
        <time>2012-07-31T18:08:38.000Z</time>
      </trkpt>
      <trkpt lat="45.80373" lon="6.2308">
        <ele>409.60000610352</ele>
        <time>2012-07-31T18:08:43.000Z</time>
      </trkpt>
      <trkpt lat="45.80397" lon="6.23102">
        <ele>409.60000610352</ele>
        <time>2012-07-31T18:08:47.000Z</time>
      </trkpt>
      <trkpt lat="45.80445" lon="6.23145">
        <ele>409.60000610352</ele>
        <time>2012-07-31T18:08:55.000Z</time>
      </trkpt>
      <trkpt lat="45.80452" lon="6.23151">
        <ele>409.60000610352</ele>
        <time>2012-07-31T18:08:56.000Z</time>
      </trkpt>
      <trkpt lat="45.80489" lon="6.23174">
        <ele>409.60000610352</ele>
        <time>2012-07-31T18:09:02.000Z</time>
      </trkpt>
      <trkpt lat="45.80533" lon="6.23191">
        <ele>409.60000610352</ele>
        <time>2012-07-31T18:09:09.000Z</time>
      </trkpt>
      <trkpt lat="45.80563" lon="6.23212">
        <ele>409.60000610352</ele>
        <time>2012-07-31T18:09:14.000Z</time>
      </trkpt>
      <trkpt lat="45.80587" lon="6.23229">
        <ele>409.60000610352</ele>
        <time>2012-07-31T18:09:18.000Z</time>
      </trkpt>
      <trkpt lat="45.806" lon="6.2323">
        <ele>409.60000610352</ele>
        <time>2012-07-31T18:09:20.000Z</time>
      </trkpt>
      <trkpt lat="45.80619" lon="6.23226">
        <ele>409.60000610352</ele>
        <time>2012-07-31T18:09:23.000Z</time>
      </trkpt>
      <trkpt lat="45.80631" lon="6.23222">
        <ele>409.60000610352</ele>
        <time>2012-07-31T18:09:25.000Z</time>
      </trkpt>
      <trkpt lat="45.8067" lon="6.2321">
        <ele>409.60000610352</ele>
        <time>2012-07-31T18:09:31.000Z</time>
      </trkpt>
      <trkpt lat="45.80677" lon="6.2321">
        <ele>409.60000610352</ele>
        <time>2012-07-31T18:09:32.000Z</time>
      </trkpt>
      <trkpt lat="45.80709" lon="6.2322">
        <ele>409.60000610352</ele>
        <time>2012-07-31T18:09:37.000Z</time>
      </trkpt>
      <trkpt lat="45.80729" lon="6.23223">
        <ele>409.60000610352</ele>
        <time>2012-07-31T18:09:40.000Z</time>
      </trkpt>
      <trkpt lat="45.80742" lon="6.2322">
        <ele>409.60000610352</ele>
        <time>2012-07-31T18:09:42.000Z</time>
      </trkpt>
      <trkpt lat="45.80793" lon="6.23211">
        <ele>409.60000610352</ele>
        <time>2012-07-31T18:09:50.000Z</time>
      </trkpt>
      <trkpt lat="45.80812" lon="6.2321">
        <ele>409.60000610352</ele>
        <time>2012-07-31T18:09:53.000Z</time>
      </trkpt>
      <trkpt lat="45.80831" lon="6.232">
        <ele>409.60000610352</ele>
        <time>2012-07-31T18:09:56.000Z</time>
      </trkpt>
      <trkpt lat="45.80836" lon="6.23195">
        <ele>409.60000610352</ele>
        <time>2012-07-31T18:09:57.000Z</time>
      </trkpt>
      <trkpt lat="45.80859" lon="6.2318">
        <ele>409.60000610352</ele>
        <time>2012-07-31T18:10:01.000Z</time>
      </trkpt>
      <trkpt lat="45.80865" lon="6.23177">
        <ele>409.60000610352</ele>
        <time>2012-07-31T18:10:02.000Z</time>
      </trkpt>
      <trkpt lat="45.80897" lon="6.23173">
        <ele>409.60000610352</ele>
        <time>2012-07-31T18:10:07.000Z</time>
      </trkpt>
      <trkpt lat="45.80936" lon="6.23178">
        <ele>409.60000610352</ele>
        <time>2012-07-31T18:10:13.000Z</time>
      </trkpt>
      <trkpt lat="45.80974" lon="6.23172">
        <ele>409.60000610352</ele>
        <time>2012-07-31T18:10:19.000Z</time>
      </trkpt>
      <trkpt lat="45.81024" lon="6.23151">
        <ele>409.60000610352</ele>
        <time>2012-07-31T18:10:27.000Z</time>
      </trkpt>
      <trkpt lat="45.81075" lon="6.23136">
        <ele>409.60000610352</ele>
        <time>2012-07-31T18:10:35.000Z</time>
      </trkpt>
      <trkpt lat="45.81124" lon="6.23127">
        <ele>409.60000610352</ele>
        <time>2012-07-31T18:10:43.000Z</time>
      </trkpt>
      <trkpt lat="45.81174" lon="6.23115">
        <ele>409.60000610352</ele>
        <time>2012-07-31T18:10:51.000Z</time>
      </trkpt>
      <trkpt lat="45.81208" lon="6.23097">
        <ele>409.60000610352</ele>
        <time>2012-07-31T18:10:57.000Z</time>
      </trkpt>
      <trkpt lat="45.81213" lon="6.23094">
        <ele>412.60000610352</ele>
        <time>2012-07-31T18:10:58.000Z</time>
      </trkpt>
      <trkpt lat="45.81246" lon="6.23081">
        <ele>412.60000610352</ele>
        <time>2012-07-31T18:11:04.000Z</time>
      </trkpt>
      <trkpt lat="45.81286" lon="6.23073">
        <ele>412.60000610352</ele>
        <time>2012-07-31T18:11:11.000Z</time>
      </trkpt>
      <trkpt lat="45.8133" lon="6.23067">
        <ele>412.60000610352</ele>
        <time>2012-07-31T18:11:19.000Z</time>
      </trkpt>
      <trkpt lat="45.81369" lon="6.23079">
        <ele>412.60000610352</ele>
        <time>2012-07-31T18:11:25.000Z</time>
      </trkpt>
      <trkpt lat="45.81376" lon="6.23079">
        <ele>412.60000610352</ele>
        <time>2012-07-31T18:11:26.000Z</time>
      </trkpt>
      <trkpt lat="45.81396" lon="6.23072">
        <ele>412.60000610352</ele>
        <time>2012-07-31T18:11:29.000Z</time>
      </trkpt>
      <trkpt lat="45.8141" lon="6.23062">
        <ele>412.60000610352</ele>
        <time>2012-07-31T18:11:31.000Z</time>
      </trkpt>
      <trkpt lat="45.81428" lon="6.23045">
        <ele>409.39999389648</ele>
        <time>2012-07-31T18:11:34.000Z</time>
      </trkpt>
      <trkpt lat="45.81478" lon="6.22995">
        <ele>409.39999389648</ele>
        <time>2012-07-31T18:11:42.000Z</time>
      </trkpt>
      <trkpt lat="45.81512" lon="6.22977">
        <ele>409.39999389648</ele>
        <time>2012-07-31T18:11:47.000Z</time>
      </trkpt>
      <trkpt lat="45.81549" lon="6.2295">
        <ele>409.39999389648</ele>
        <time>2012-07-31T18:11:53.000Z</time>
      </trkpt>
      <trkpt lat="45.81595" lon="6.22914">
        <ele>409.39999389648</ele>
        <time>2012-07-31T18:12:01.000Z</time>
      </trkpt>
      <trkpt lat="45.81611" lon="6.22909">
        <ele>409.39999389648</ele>
        <time>2012-07-31T18:12:04.000Z</time>
      </trkpt>
      <trkpt lat="45.81624" lon="6.22908">
        <ele>409.39999389648</ele>
        <time>2012-07-31T18:12:06.000Z</time>
      </trkpt>
      <trkpt lat="45.81664" lon="6.22907">
        <ele>409.39999389648</ele>
        <time>2012-07-31T18:12:12.000Z</time>
      </trkpt>
      <trkpt lat="45.81718" lon="6.22911">
        <ele>409.39999389648</ele>
        <time>2012-07-31T18:12:20.000Z</time>
      </trkpt>
      <trkpt lat="45.81724" lon="6.22913">
        <ele>409.39999389648</ele>
        <time>2012-07-31T18:12:21.000Z</time>
      </trkpt>
      <trkpt lat="45.81756" lon="6.22926">
        <ele>409.39999389648</ele>
        <time>2012-07-31T18:12:26.000Z</time>
      </trkpt>
      <trkpt lat="45.8177" lon="6.22929">
        <ele>409.39999389648</ele>
        <time>2012-07-31T18:12:28.000Z</time>
      </trkpt>
      <trkpt lat="45.81791" lon="6.22927">
        <ele>409.39999389648</ele>
        <time>2012-07-31T18:12:31.000Z</time>
      </trkpt>
      <trkpt lat="45.81802" lon="6.22921">
        <ele>409.39999389648</ele>
        <time>2012-07-31T18:12:33.000Z</time>
      </trkpt>
      <trkpt lat="45.81822" lon="6.22909">
        <ele>409.39999389648</ele>
        <time>2012-07-31T18:12:36.000Z</time>
      </trkpt>
      <trkpt lat="45.81872" lon="6.22883">
        <ele>409.39999389648</ele>
        <time>2012-07-31T18:12:44.000Z</time>
      </trkpt>
      <trkpt lat="45.81906" lon="6.22882">
        <ele>409.39999389648</ele>
        <time>2012-07-31T18:12:49.000Z</time>
      </trkpt>
      <trkpt lat="45.81919" lon="6.2288">
        <ele>409.39999389648</ele>
        <time>2012-07-31T18:12:51.000Z</time>
      </trkpt>
      <trkpt lat="45.81938" lon="6.22874">
        <ele>409.39999389648</ele>
        <time>2012-07-31T18:12:54.000Z</time>
      </trkpt>
      <trkpt lat="45.81979" lon="6.22847">
        <ele>409.39999389648</ele>
        <time>2012-07-31T18:13:01.000Z</time>
      </trkpt>
      <trkpt lat="45.82014" lon="6.2282">
        <ele>409.39999389648</ele>
        <time>2012-07-31T18:13:07.000Z</time>
      </trkpt>
      <trkpt lat="45.8205" lon="6.22782">
        <ele>409.39999389648</ele>
        <time>2012-07-31T18:13:14.000Z</time>
      </trkpt>
      <trkpt lat="45.82086" lon="6.22731">
        <ele>409.39999389648</ele>
        <time>2012-07-31T18:13:22.000Z</time>
      </trkpt>
      <trkpt lat="45.82091" lon="6.22726">
        <ele>409.39999389648</ele>
        <time>2012-07-31T18:13:23.000Z</time>
      </trkpt>
      <trkpt lat="45.82118" lon="6.22704">
        <ele>409.39999389648</ele>
        <time>2012-07-31T18:13:28.000Z</time>
      </trkpt>
      <trkpt lat="45.82134" lon="6.22691">
        <ele>409.39999389648</ele>
        <time>2012-07-31T18:13:31.000Z</time>
      </trkpt>
      <trkpt lat="45.8215" lon="6.22682">
        <ele>409.39999389648</ele>
        <time>2012-07-31T18:13:34.000Z</time>
      </trkpt>
      <trkpt lat="45.82175" lon="6.22682">
        <ele>409.39999389648</ele>
        <time>2012-07-31T18:13:38.000Z</time>
      </trkpt>
      <trkpt lat="45.82192" lon="6.22693">
        <ele>409.39999389648</ele>
        <time>2012-07-31T18:13:41.000Z</time>
      </trkpt>
      <trkpt lat="45.82203" lon="6.22701">
        <ele>409.39999389648</ele>
        <time>2012-07-31T18:13:43.000Z</time>
      </trkpt>
      <trkpt lat="45.8222" lon="6.22712">
        <ele>409.39999389648</ele>
        <time>2012-07-31T18:13:46.000Z</time>
      </trkpt>
      <trkpt lat="45.82238" lon="6.22714">
        <ele>409.39999389648</ele>
        <time>2012-07-31T18:13:49.000Z</time>
      </trkpt>
      <trkpt lat="45.8225" lon="6.22713">
        <ele>409.39999389648</ele>
        <time>2012-07-31T18:13:51.000Z</time>
      </trkpt>
      <trkpt lat="45.82262" lon="6.22711">
        <ele>406.39999389648</ele>
        <time>2012-07-31T18:13:53.000Z</time>
      </trkpt>
      <trkpt lat="45.82275" lon="6.22709">
        <ele>406.39999389648</ele>
        <time>2012-07-31T18:13:55.000Z</time>
      </trkpt>
      <trkpt lat="45.82298" lon="6.22705">
        <ele>406.39999389648</ele>
        <time>2012-07-31T18:13:59.000Z</time>
      </trkpt>
      <trkpt lat="45.82303" lon="6.22702">
        <ele>409.79998779297</ele>
        <time>2012-07-31T18:14:00.000Z</time>
      </trkpt>
      <trkpt lat="45.82309" lon="6.227">
        <ele>409.79998779297</ele>
        <time>2012-07-31T18:14:01.000Z</time>
      </trkpt>
      <trkpt lat="45.82335" lon="6.22681">
        <ele>404.79998779297</ele>
        <time>2012-07-31T18:14:06.000Z</time>
      </trkpt>
      <trkpt lat="45.8234" lon="6.22676">
        <ele>404.79998779297</ele>
        <time>2012-07-31T18:14:07.000Z</time>
      </trkpt>
      <trkpt lat="45.82345" lon="6.2267">
        <ele>411.20001220703</ele>
        <time>2012-07-31T18:14:08.000Z</time>
      </trkpt>
      <trkpt lat="45.82366" lon="6.22641">
        <ele>411.20001220703</ele>
        <time>2012-07-31T18:14:13.000Z</time>
      </trkpt>
      <trkpt lat="45.82369" lon="6.22635">
        <ele>411.20001220703</ele>
        <time>2012-07-31T18:14:14.000Z</time>
      </trkpt>
      <trkpt lat="45.8237" lon="6.22622">
        <ele>411.20001220703</ele>
        <time>2012-07-31T18:14:16.000Z</time>
      </trkpt>
      <trkpt lat="45.82371" lon="6.22616">
        <ele>412.20001220703</ele>
        <time>2012-07-31T18:14:17.000Z</time>
      </trkpt>
      <trkpt lat="45.82373" lon="6.22606">
        <ele>412.20001220703</ele>
        <time>2012-07-31T18:14:19.000Z</time>
      </trkpt>
      <trkpt lat="45.82379" lon="6.22596">
        <ele>412.20001220703</ele>
        <time>2012-07-31T18:14:21.000Z</time>
      </trkpt>
      <trkpt lat="45.82385" lon="6.22586">
        <ele>412.20001220703</ele>
        <time>2012-07-31T18:14:23.000Z</time>
      </trkpt>
      <trkpt lat="45.82403" lon="6.22555">
        <ele>412.20001220703</ele>
        <time>2012-07-31T18:14:28.000Z</time>
      </trkpt>
      <trkpt lat="45.82411" lon="6.22543">
        <ele>407.39999389648</ele>
        <time>2012-07-31T18:14:30.000Z</time>
      </trkpt>
      <trkpt lat="45.82415" lon="6.22536">
        <ele>411.39999389648</ele>
        <time>2012-07-31T18:14:31.000Z</time>
      </trkpt>
      <trkpt lat="45.8243" lon="6.2251">
        <ele>412.60000610352</ele>
        <time>2012-07-31T18:14:35.000Z</time>
      </trkpt>
      <trkpt lat="45.82437" lon="6.22498">
        <ele>412.60000610352</ele>
        <time>2012-07-31T18:14:37.000Z</time>
      </trkpt>
      <trkpt lat="45.82464" lon="6.22449">
        <ele>413.60000610352</ele>
        <time>2012-07-31T18:14:45.000Z</time>
      </trkpt>
      <trkpt lat="45.82467" lon="6.22442">
        <ele>413.60000610352</ele>
        <time>2012-07-31T18:14:46.000Z</time>
      </trkpt>
      <trkpt lat="45.82502" lon="6.22382">
        <ele>413.60000610352</ele>
        <time>2012-07-31T18:14:56.000Z</time>
      </trkpt>
      <trkpt lat="45.82509" lon="6.2237">
        <ele>413.60000610352</ele>
        <time>2012-07-31T18:14:58.000Z</time>
      </trkpt>
      <trkpt lat="45.82512" lon="6.22364">
        <ele>414.60000610352</ele>
        <time>2012-07-31T18:14:59.000Z</time>
      </trkpt>
      <trkpt lat="45.82531" lon="6.22331">
        <ele>414.60000610352</ele>
        <time>2012-07-31T18:15:05.000Z</time>
      </trkpt>
      <trkpt lat="45.82542" lon="6.22314">
        <ele>414.60000610352</ele>
        <time>2012-07-31T18:15:09.000Z</time>
      </trkpt>
      <trkpt lat="45.82552" lon="6.22297">
        <ele>407.79998779297</ele>
        <time>2012-07-31T18:15:12.000Z</time>
      </trkpt>
      <trkpt lat="45.82558" lon="6.22286">
        <ele>415</ele>
        <time>2012-07-31T18:15:14.000Z</time>
      </trkpt>
      <trkpt lat="45.82561" lon="6.2228">
        <ele>415</ele>
        <time>2012-07-31T18:15:15.000Z</time>
      </trkpt>
      <trkpt lat="45.82583" lon="6.22245">
        <ele>415</ele>
        <time>2012-07-31T18:15:22.000Z</time>
      </trkpt>
      <trkpt lat="45.82587" lon="6.22234">
        <ele>415</ele>
        <time>2012-07-31T18:15:24.000Z</time>
      </trkpt>
      <trkpt lat="45.82593" lon="6.22225">
        <ele>415</ele>
        <time>2012-07-31T18:15:26.000Z</time>
      </trkpt>
      <trkpt lat="45.82602" lon="6.22217">
        <ele>415</ele>
        <time>2012-07-31T18:15:28.000Z</time>
      </trkpt>
      <trkpt lat="45.82605" lon="6.22212">
        <ele>416</ele>
        <time>2012-07-31T18:15:29.000Z</time>
      </trkpt>
      <trkpt lat="45.82614" lon="6.22202">
        <ele>416</ele>
        <time>2012-07-31T18:15:31.000Z</time>
      </trkpt>
      <trkpt lat="45.82654" lon="6.22161">
        <ele>416</ele>
        <time>2012-07-31T18:15:40.000Z</time>
      </trkpt>
      <trkpt lat="45.82687" lon="6.22137">
        <ele>416</ele>
        <time>2012-07-31T18:15:47.000Z</time>
      </trkpt>
      <trkpt lat="45.82697" lon="6.22132">
        <ele>416</ele>
        <time>2012-07-31T18:15:49.000Z</time>
      </trkpt>
      <trkpt lat="45.82719" lon="6.22123">
        <ele>417</ele>
        <time>2012-07-31T18:15:53.000Z</time>
      </trkpt>
      <trkpt lat="45.82769" lon="6.2211">
        <ele>417</ele>
        <time>2012-07-31T18:16:02.000Z</time>
      </trkpt>
      <trkpt lat="45.82822" lon="6.22102">
        <ele>417</ele>
        <time>2012-07-31T18:16:11.000Z</time>
      </trkpt>
      <trkpt lat="45.82872" lon="6.22095">
        <ele>417</ele>
        <time>2012-07-31T18:16:19.000Z</time>
      </trkpt>
      <trkpt lat="45.8293" lon="6.22084">
        <ele>417</ele>
        <time>2012-07-31T18:16:28.000Z</time>
      </trkpt>
      <trkpt lat="45.82982" lon="6.22069">
        <ele>417</ele>
        <time>2012-07-31T18:16:36.000Z</time>
      </trkpt>
      <trkpt lat="45.83001" lon="6.22062">
        <ele>413.79998779297</ele>
        <time>2012-07-31T18:16:39.000Z</time>
      </trkpt>
      <trkpt lat="45.83036" lon="6.2205">
        <ele>413.79998779297</ele>
        <time>2012-07-31T18:16:44.000Z</time>
      </trkpt>
      <trkpt lat="45.8305" lon="6.22044">
        <ele>412.79998779297</ele>
        <time>2012-07-31T18:16:46.000Z</time>
      </trkpt>
      <trkpt lat="45.83085" lon="6.22029">
        <ele>411.60000610352</ele>
        <time>2012-07-31T18:16:51.000Z</time>
      </trkpt>
      <trkpt lat="45.831" lon="6.22023">
        <ele>411.60000610352</ele>
        <time>2012-07-31T18:16:53.000Z</time>
      </trkpt>
      <trkpt lat="45.83121" lon="6.22014">
        <ele>410.60000610352</ele>
        <time>2012-07-31T18:16:56.000Z</time>
      </trkpt>
      <trkpt lat="45.83168" lon="6.21992">
        <ele>410.60000610352</ele>
        <time>2012-07-31T18:17:03.000Z</time>
      </trkpt>
      <trkpt lat="45.83211" lon="6.21961">
        <ele>410.60000610352</ele>
        <time>2012-07-31T18:17:10.000Z</time>
      </trkpt>
      <trkpt lat="45.83253" lon="6.21914">
        <ele>410.60000610352</ele>
        <time>2012-07-31T18:17:18.000Z</time>
      </trkpt>
      <trkpt lat="45.83261" lon="6.21901">
        <ele>409.60000610352</ele>
        <time>2012-07-31T18:17:20.000Z</time>
      </trkpt>
      <trkpt lat="45.83281" lon="6.21868">
        <ele>409.60000610352</ele>
        <time>2012-07-31T18:17:25.000Z</time>
      </trkpt>
      <trkpt lat="45.833" lon="6.21825">
        <ele>409.60000610352</ele>
        <time>2012-07-31T18:17:31.000Z</time>
      </trkpt>
      <trkpt lat="45.83304" lon="6.21818">
        <ele>409.60000610352</ele>
        <time>2012-07-31T18:17:32.000Z</time>
      </trkpt>
      <trkpt lat="45.83332" lon="6.21767">
        <ele>409.60000610352</ele>
        <time>2012-07-31T18:17:40.000Z</time>
      </trkpt>
      <trkpt lat="45.83349" lon="6.21747">
        <ele>409.60000610352</ele>
        <time>2012-07-31T18:17:44.000Z</time>
      </trkpt>
      <trkpt lat="45.83355" lon="6.21743">
        <ele>409.60000610352</ele>
        <time>2012-07-31T18:17:45.000Z</time>
      </trkpt>
      <trkpt lat="45.83384" lon="6.21727">
        <ele>409.60000610352</ele>
        <time>2012-07-31T18:17:50.000Z</time>
      </trkpt>
      <trkpt lat="45.83433" lon="6.21714">
        <ele>409.60000610352</ele>
        <time>2012-07-31T18:17:58.000Z</time>
      </trkpt>
      <trkpt lat="45.83479" lon="6.21704">
        <ele>409.60000610352</ele>
        <time>2012-07-31T18:18:06.000Z</time>
      </trkpt>
      <trkpt lat="45.83491" lon="6.21707">
        <ele>409.60000610352</ele>
        <time>2012-07-31T18:18:09.000Z</time>
      </trkpt>
      <trkpt lat="45.83502" lon="6.21709">
        <ele>408.60000610352</ele>
        <time>2012-07-31T18:18:12.000Z</time>
      </trkpt>
      <trkpt lat="45.83511" lon="6.21708">
        <ele>408.60000610352</ele>
        <time>2012-07-31T18:18:14.000Z</time>
      </trkpt>
      <trkpt lat="45.83517" lon="6.21708">
        <ele>407</ele>
        <time>2012-07-31T18:18:15.000Z</time>
      </trkpt>
      <trkpt lat="45.83535" lon="6.21706">
        <ele>407</ele>
        <time>2012-07-31T18:18:18.000Z</time>
      </trkpt>
      <trkpt lat="45.83547" lon="6.21705">
        <ele>410.20001220703</ele>
        <time>2012-07-31T18:18:20.000Z</time>
      </trkpt>
      <trkpt lat="45.83588" lon="6.21704">
        <ele>410.20001220703</ele>
        <time>2012-07-31T18:18:27.000Z</time>
      </trkpt>
      <trkpt lat="45.83622" lon="6.21704">
        <ele>410.20001220703</ele>
        <time>2012-07-31T18:18:33.000Z</time>
      </trkpt>
      <trkpt lat="45.8365" lon="6.21703">
        <ele>411.20001220703</ele>
        <time>2012-07-31T18:18:39.000Z</time>
      </trkpt>
      <trkpt lat="45.83669" lon="6.21705">
        <ele>412.39999389648</ele>
        <time>2012-07-31T18:18:44.000Z</time>
      </trkpt>
      <trkpt lat="45.8368" lon="6.21708">
        <ele>413.60000610352</ele>
        <time>2012-07-31T18:18:47.000Z</time>
      </trkpt>
      <trkpt lat="45.83687" lon="6.21709">
        <ele>414.79998779297</ele>
        <time>2012-07-31T18:18:49.000Z</time>
      </trkpt>
      <trkpt lat="45.83699" lon="6.21713">
        <ele>415.79998779297</ele>
        <time>2012-07-31T18:18:53.000Z</time>
      </trkpt>
      <trkpt lat="45.83711" lon="6.21712">
        <ele>417</ele>
        <time>2012-07-31T18:18:57.000Z</time>
      </trkpt>
      <trkpt lat="45.83717" lon="6.21711">
        <ele>417</ele>
        <time>2012-07-31T18:18:59.000Z</time>
      </trkpt>
      <trkpt lat="45.83725" lon="6.21711">
        <ele>418</ele>
        <time>2012-07-31T18:19:02.000Z</time>
      </trkpt>
      <trkpt lat="45.83737" lon="6.21711">
        <ele>419</ele>
        <time>2012-07-31T18:19:06.000Z</time>
      </trkpt>
      <trkpt lat="45.83742" lon="6.21712">
        <ele>419</ele>
        <time>2012-07-31T18:19:08.000Z</time>
      </trkpt>
      <trkpt lat="45.8375" lon="6.21713">
        <ele>420.20001220703</ele>
        <time>2012-07-31T18:19:11.000Z</time>
      </trkpt>
      <trkpt lat="45.83761" lon="6.21714">
        <ele>421.20001220703</ele>
        <time>2012-07-31T18:19:15.000Z</time>
      </trkpt>
      <trkpt lat="45.83769" lon="6.21714">
        <ele>421.20001220703</ele>
        <time>2012-07-31T18:19:18.000Z</time>
      </trkpt>
      <trkpt lat="45.83775" lon="6.21715">
        <ele>422.39999389648</ele>
        <time>2012-07-31T18:19:20.000Z</time>
      </trkpt>
      <trkpt lat="45.83786" lon="6.21716">
        <ele>423.39999389648</ele>
        <time>2012-07-31T18:19:24.000Z</time>
      </trkpt>
      <trkpt lat="45.83789" lon="6.21716">
        <ele>423.39999389648</ele>
        <time>2012-07-31T18:19:25.000Z</time>
      </trkpt>
      <trkpt lat="45.83799" lon="6.21717">
        <ele>424.39999389648</ele>
        <time>2012-07-31T18:19:29.000Z</time>
      </trkpt>
      <trkpt lat="45.8381" lon="6.21718">
        <ele>425.60000610352</ele>
        <time>2012-07-31T18:19:33.000Z</time>
      </trkpt>
      <trkpt lat="45.83813" lon="6.21718">
        <ele>425.60000610352</ele>
        <time>2012-07-31T18:19:34.000Z</time>
      </trkpt>
      <trkpt lat="45.83824" lon="6.21719">
        <ele>426.60000610352</ele>
        <time>2012-07-31T18:19:38.000Z</time>
      </trkpt>
      <trkpt lat="45.83837" lon="6.2172">
        <ele>427.79998779297</ele>
        <time>2012-07-31T18:19:43.000Z</time>
      </trkpt>
      <trkpt lat="45.83848" lon="6.21719">
        <ele>428.79998779297</ele>
        <time>2012-07-31T18:19:47.000Z</time>
      </trkpt>
      <trkpt lat="45.83859" lon="6.21717">
        <ele>428.79998779297</ele>
        <time>2012-07-31T18:19:51.000Z</time>
      </trkpt>
      <trkpt lat="45.83862" lon="6.21717">
        <ele>430</ele>
        <time>2012-07-31T18:19:52.000Z</time>
      </trkpt>
      <trkpt lat="45.83872" lon="6.21714">
        <ele>431</ele>
        <time>2012-07-31T18:19:56.000Z</time>
      </trkpt>
      <trkpt lat="45.83883" lon="6.21714">
        <ele>432</ele>
        <time>2012-07-31T18:20:00.000Z</time>
      </trkpt>
      <trkpt lat="45.83895" lon="6.21711">
        <ele>433.20001220703</ele>
        <time>2012-07-31T18:20:05.000Z</time>
      </trkpt>
      <trkpt lat="45.83903" lon="6.21709">
        <ele>433.20001220703</ele>
        <time>2012-07-31T18:20:08.000Z</time>
      </trkpt>
      <trkpt lat="45.8391" lon="6.21708">
        <ele>434.20001220703</ele>
        <time>2012-07-31T18:20:11.000Z</time>
      </trkpt>
      <trkpt lat="45.83924" lon="6.21705">
        <ele>435.20001220703</ele>
        <time>2012-07-31T18:20:16.000Z</time>
      </trkpt>
      <trkpt lat="45.83941" lon="6.21699">
        <ele>436.20001220703</ele>
        <time>2012-07-31T18:20:23.000Z</time>
      </trkpt>
      <trkpt lat="45.83948" lon="6.21696">
        <ele>436.20001220703</ele>
        <time>2012-07-31T18:20:26.000Z</time>
      </trkpt>
      <trkpt lat="45.8396" lon="6.21691">
        <ele>437.39999389648</ele>
        <time>2012-07-31T18:20:31.000Z</time>
      </trkpt>
      <trkpt lat="45.83965" lon="6.21692">
        <ele>437.39999389648</ele>
        <time>2012-07-31T18:20:33.000Z</time>
      </trkpt>
      <trkpt lat="45.83977" lon="6.21686">
        <ele>438.39999389648</ele>
        <time>2012-07-31T18:20:38.000Z</time>
      </trkpt>
      <trkpt lat="45.83994" lon="6.21676">
        <ele>438.39999389648</ele>
        <time>2012-07-31T18:20:44.000Z</time>
      </trkpt>
      <trkpt lat="45.84013" lon="6.21667">
        <ele>439.39999389648</ele>
        <time>2012-07-31T18:20:51.000Z</time>
      </trkpt>
      <trkpt lat="45.84026" lon="6.21661">
        <ele>439.39999389648</ele>
        <time>2012-07-31T18:20:56.000Z</time>
      </trkpt>
      <trkpt lat="45.84029" lon="6.2166">
        <ele>440.39999389648</ele>
        <time>2012-07-31T18:20:57.000Z</time>
      </trkpt>
      <trkpt lat="45.84045" lon="6.2165">
        <ele>440.39999389648</ele>
        <time>2012-07-31T18:21:03.000Z</time>
      </trkpt>
      <trkpt lat="45.84045" lon="6.2165">
        <ele>441.39999389648</ele>
        <time>2012-07-31T18:21:04.000Z</time>
      </trkpt>
      <trkpt lat="45.84059" lon="6.21638">
        <ele>442.60000610352</ele>
        <time>2012-07-31T18:21:09.000Z</time>
      </trkpt>
      <trkpt lat="45.84064" lon="6.21634">
        <ele>442.60000610352</ele>
        <time>2012-07-31T18:21:11.000Z</time>
      </trkpt>
      <trkpt lat="45.84073" lon="6.21626">
        <ele>443.60000610352</ele>
        <time>2012-07-31T18:21:15.000Z</time>
      </trkpt>
      <trkpt lat="45.84083" lon="6.21618">
        <ele>443.60000610352</ele>
        <time>2012-07-31T18:21:19.000Z</time>
      </trkpt>
      <trkpt lat="45.84088" lon="6.21614">
        <ele>444.60000610352</ele>
        <time>2012-07-31T18:21:21.000Z</time>
      </trkpt>
      <trkpt lat="45.84104" lon="6.21599">
        <ele>445.79998779297</ele>
        <time>2012-07-31T18:21:28.000Z</time>
      </trkpt>
      <trkpt lat="45.84126" lon="6.21581">
        <ele>445.79998779297</ele>
        <time>2012-07-31T18:21:37.000Z</time>
      </trkpt>
      <trkpt lat="45.84128" lon="6.21579">
        <ele>446.79998779297</ele>
        <time>2012-07-31T18:21:38.000Z</time>
      </trkpt>
      <trkpt lat="45.8415" lon="6.2156">
        <ele>446.79998779297</ele>
        <time>2012-07-31T18:21:47.000Z</time>
      </trkpt>
      <trkpt lat="45.84152" lon="6.21558">
        <ele>447.79998779297</ele>
        <time>2012-07-31T18:21:48.000Z</time>
      </trkpt>
      <trkpt lat="45.84171" lon="6.2154">
        <ele>447.79998779297</ele>
        <time>2012-07-31T18:21:55.000Z</time>
      </trkpt>
      <trkpt lat="45.84178" lon="6.21535">
        <ele>447.79998779297</ele>
        <time>2012-07-31T18:21:57.000Z</time>
      </trkpt>
      <trkpt lat="45.84194" lon="6.21522">
        <ele>447.79998779297</ele>
        <time>2012-07-31T18:22:01.000Z</time>
      </trkpt>
      <trkpt lat="45.84222" lon="6.21489">
        <ele>447.79998779297</ele>
        <time>2012-07-31T18:22:08.000Z</time>
      </trkpt>
      <trkpt lat="45.8423" lon="6.21478">
        <ele>444.60000610352</ele>
        <time>2012-07-31T18:22:10.000Z</time>
      </trkpt>
      <trkpt lat="45.84243" lon="6.21452">
        <ele>444.60000610352</ele>
        <time>2012-07-31T18:22:14.000Z</time>
      </trkpt>
      <trkpt lat="45.84258" lon="6.21407">
        <ele>444.60000610352</ele>
        <time>2012-07-31T18:22:21.000Z</time>
      </trkpt>
      <trkpt lat="45.84268" lon="6.2137">
        <ele>446.79998779297</ele>
        <time>2012-07-31T18:22:27.000Z</time>
      </trkpt>
      <trkpt lat="45.84274" lon="6.21352">
        <ele>446.79998779297</ele>
        <time>2012-07-31T18:22:30.000Z</time>
      </trkpt>
      <trkpt lat="45.84276" lon="6.21346">
        <ele>447.79998779297</ele>
        <time>2012-07-31T18:22:31.000Z</time>
      </trkpt>
      <trkpt lat="45.84287" lon="6.21324">
        <ele>449</ele>
        <time>2012-07-31T18:22:35.000Z</time>
      </trkpt>
      <trkpt lat="45.84295" lon="6.21308">
        <ele>449</ele>
        <time>2012-07-31T18:22:38.000Z</time>
      </trkpt>
      <trkpt lat="45.84297" lon="6.21305">
        <ele>450.20001220703</ele>
        <time>2012-07-31T18:22:39.000Z</time>
      </trkpt>
      <trkpt lat="45.84306" lon="6.21295">
        <ele>451.20001220703</ele>
        <time>2012-07-31T18:22:42.000Z</time>
      </trkpt>
      <trkpt lat="45.84308" lon="6.21293">
        <ele>451.20001220703</ele>
        <time>2012-07-31T18:22:43.000Z</time>
      </trkpt>
      <trkpt lat="45.84314" lon="6.21287">
        <ele>452.20001220703</ele>
        <time>2012-07-31T18:22:46.000Z</time>
      </trkpt>
      <trkpt lat="45.84319" lon="6.21281">
        <ele>452.20001220703</ele>
        <time>2012-07-31T18:22:49.000Z</time>
      </trkpt>
      <trkpt lat="45.84325" lon="6.21269">
        <ele>453.20001220703</ele>
        <time>2012-07-31T18:22:53.000Z</time>
      </trkpt>
      <trkpt lat="45.84328" lon="6.21262">
        <ele>453.20001220703</ele>
        <time>2012-07-31T18:22:55.000Z</time>
      </trkpt>
      <trkpt lat="45.84332" lon="6.21252">
        <ele>454.20001220703</ele>
        <time>2012-07-31T18:22:58.000Z</time>
      </trkpt>
      <trkpt lat="45.84339" lon="6.21234">
        <ele>455.20001220703</ele>
        <time>2012-07-31T18:23:03.000Z</time>
      </trkpt>
      <trkpt lat="45.84343" lon="6.21216">
        <ele>455.20001220703</ele>
        <time>2012-07-31T18:23:08.000Z</time>
      </trkpt>
      <trkpt lat="45.84344" lon="6.21196">
        <ele>455.20001220703</ele>
        <time>2012-07-31T18:23:14.000Z</time>
      </trkpt>
      <trkpt lat="45.84342" lon="6.21188">
        <ele>456.39999389648</ele>
        <time>2012-07-31T18:23:16.000Z</time>
      </trkpt>
      <trkpt lat="45.84339" lon="6.21169">
        <ele>456.39999389648</ele>
        <time>2012-07-31T18:23:21.000Z</time>
      </trkpt>
      <trkpt lat="45.84339" lon="6.21144">
        <ele>458.39999389648</ele>
        <time>2012-07-31T18:23:28.000Z</time>
      </trkpt>
      <trkpt lat="45.84341" lon="6.2113">
        <ele>459.39999389648</ele>
        <time>2012-07-31T18:23:32.000Z</time>
      </trkpt>
      <trkpt lat="45.84344" lon="6.21109">
        <ele>460.60000610352</ele>
        <time>2012-07-31T18:23:38.000Z</time>
      </trkpt>
      <trkpt lat="45.84346" lon="6.21095">
        <ele>461.60000610352</ele>
        <time>2012-07-31T18:23:42.000Z</time>
      </trkpt>
      <trkpt lat="45.84348" lon="6.21092">
        <ele>461.60000610352</ele>
        <time>2012-07-31T18:23:43.000Z</time>
      </trkpt>
      <trkpt lat="45.84352" lon="6.21089">
        <ele>461.60000610352</ele>
        <time>2012-07-31T18:23:45.000Z</time>
      </trkpt>
      <trkpt lat="45.84356" lon="6.2109">
        <ele>462.60000610352</ele>
        <time>2012-07-31T18:23:47.000Z</time>
      </trkpt>
      <trkpt lat="45.84358" lon="6.21095">
        <ele>462.60000610352</ele>
        <time>2012-07-31T18:23:49.000Z</time>
      </trkpt>
      <trkpt lat="45.8436" lon="6.21101">
        <ele>463.79998779297</ele>
        <time>2012-07-31T18:23:51.000Z</time>
      </trkpt>
      <trkpt lat="45.84362" lon="6.21109">
        <ele>464.79998779297</ele>
        <time>2012-07-31T18:23:54.000Z</time>
      </trkpt>
      <trkpt lat="45.84364" lon="6.21115">
        <ele>464.79998779297</ele>
        <time>2012-07-31T18:23:56.000Z</time>
      </trkpt>
      <trkpt lat="45.84369" lon="6.21126">
        <ele>465.79998779297</ele>
        <time>2012-07-31T18:24:00.000Z</time>
      </trkpt>
      <trkpt lat="45.84373" lon="6.21138">
        <ele>467</ele>
        <time>2012-07-31T18:24:04.000Z</time>
      </trkpt>
      <trkpt lat="45.84375" lon="6.21141">
        <ele>467</ele>
        <time>2012-07-31T18:24:05.000Z</time>
      </trkpt>
      <trkpt lat="45.84379" lon="6.21152">
        <ele>468</ele>
        <time>2012-07-31T18:24:09.000Z</time>
      </trkpt>
      <trkpt lat="45.84383" lon="6.21161">
        <ele>468</ele>
        <time>2012-07-31T18:24:12.000Z</time>
      </trkpt>
      <trkpt lat="45.84386" lon="6.21167">
        <ele>469.20001220703</ele>
        <time>2012-07-31T18:24:14.000Z</time>
      </trkpt>
      <trkpt lat="45.84394" lon="6.21185">
        <ele>469.20001220703</ele>
        <time>2012-07-31T18:24:20.000Z</time>
      </trkpt>
      <trkpt lat="45.84395" lon="6.21188">
        <ele>470.20001220703</ele>
        <time>2012-07-31T18:24:21.000Z</time>
      </trkpt>
      <trkpt lat="45.84398" lon="6.21197">
        <ele>471.20001220703</ele>
        <time>2012-07-31T18:24:24.000Z</time>
      </trkpt>
      <trkpt lat="45.84403" lon="6.21207">
        <ele>471.20001220703</ele>
        <time>2012-07-31T18:24:28.000Z</time>
      </trkpt>
      <trkpt lat="45.84406" lon="6.21213">
        <ele>472.20001220703</ele>
        <time>2012-07-31T18:24:30.000Z</time>
      </trkpt>
      <trkpt lat="45.84411" lon="6.21227">
        <ele>473.20001220703</ele>
        <time>2012-07-31T18:24:35.000Z</time>
      </trkpt>
      <trkpt lat="45.84415" lon="6.21239">
        <ele>474.39999389648</ele>
        <time>2012-07-31T18:24:39.000Z</time>
      </trkpt>
      <trkpt lat="45.84416" lon="6.21248">
        <ele>474.39999389648</ele>
        <time>2012-07-31T18:24:42.000Z</time>
      </trkpt>
      <trkpt lat="45.84417" lon="6.21251">
        <ele>475.39999389648</ele>
        <time>2012-07-31T18:24:43.000Z</time>
      </trkpt>
      <trkpt lat="45.84416" lon="6.21268">
        <ele>476.39999389648</ele>
        <time>2012-07-31T18:24:48.000Z</time>
      </trkpt>
      <trkpt lat="45.84416" lon="6.21276">
        <ele>476.39999389648</ele>
        <time>2012-07-31T18:24:50.000Z</time>
      </trkpt>
      <trkpt lat="45.84416" lon="6.21289">
        <ele>477.39999389648</ele>
        <time>2012-07-31T18:24:54.000Z</time>
      </trkpt>
      <trkpt lat="45.84416" lon="6.213">
        <ele>477.39999389648</ele>
        <time>2012-07-31T18:24:57.000Z</time>
      </trkpt>
      <trkpt lat="45.84416" lon="6.21311">
        <ele>478.39999389648</ele>
        <time>2012-07-31T18:25:00.000Z</time>
      </trkpt>
      <trkpt lat="45.84415" lon="6.21325">
        <ele>479.60000610352</ele>
        <time>2012-07-31T18:25:04.000Z</time>
      </trkpt>
      <trkpt lat="45.84415" lon="6.21332">
        <ele>479.60000610352</ele>
        <time>2012-07-31T18:25:06.000Z</time>
      </trkpt>
      <trkpt lat="45.84415" lon="6.21342">
        <ele>480.60000610352</ele>
        <time>2012-07-31T18:25:09.000Z</time>
      </trkpt>
      <trkpt lat="45.84414" lon="6.21363">
        <ele>481.79998779297</ele>
        <time>2012-07-31T18:25:15.000Z</time>
      </trkpt>
      <trkpt lat="45.84414" lon="6.21366">
        <ele>481.79998779297</ele>
        <time>2012-07-31T18:25:16.000Z</time>
      </trkpt>
      <trkpt lat="45.84413" lon="6.21379">
        <ele>483.79998779297</ele>
        <time>2012-07-31T18:25:20.000Z</time>
      </trkpt>
      <trkpt lat="45.84413" lon="6.21382">
        <ele>474.20001220703</ele>
        <time>2012-07-31T18:25:21.000Z</time>
      </trkpt>
      <trkpt lat="45.84414" lon="6.21388">
        <ele>483.79998779297</ele>
        <time>2012-07-31T18:25:23.000Z</time>
      </trkpt>
      <trkpt lat="45.84423" lon="6.21396">
        <ele>483.79998779297</ele>
        <time>2012-07-31T18:25:27.000Z</time>
      </trkpt>
      <trkpt lat="45.84431" lon="6.21394">
        <ele>484.79998779297</ele>
        <time>2012-07-31T18:25:30.000Z</time>
      </trkpt>
      <trkpt lat="45.84433" lon="6.21391">
        <ele>484.79998779297</ele>
        <time>2012-07-31T18:25:31.000Z</time>
      </trkpt>
      <trkpt lat="45.84438" lon="6.21384">
        <ele>484.79998779297</ele>
        <time>2012-07-31T18:25:34.000Z</time>
      </trkpt>
      <trkpt lat="45.84444" lon="6.21375">
        <ele>486</ele>
        <time>2012-07-31T18:25:37.000Z</time>
      </trkpt>
      <trkpt lat="45.8445" lon="6.21367">
        <ele>486</ele>
        <time>2012-07-31T18:25:40.000Z</time>
      </trkpt>
      <trkpt lat="45.84453" lon="6.21362">
        <ele>487</ele>
        <time>2012-07-31T18:25:42.000Z</time>
      </trkpt>
      <trkpt lat="45.84463" lon="6.21348">
        <ele>488</ele>
        <time>2012-07-31T18:25:47.000Z</time>
      </trkpt>
      <trkpt lat="45.84466" lon="6.21343">
        <ele>488</ele>
        <time>2012-07-31T18:25:49.000Z</time>
      </trkpt>
      <trkpt lat="45.84473" lon="6.21332">
        <ele>489.20001220703</ele>
        <time>2012-07-31T18:25:53.000Z</time>
      </trkpt>
      <trkpt lat="45.84481" lon="6.2132">
        <ele>490.20001220703</ele>
        <time>2012-07-31T18:25:58.000Z</time>
      </trkpt>
      <trkpt lat="45.84483" lon="6.21317">
        <ele>490.20001220703</ele>
        <time>2012-07-31T18:25:59.000Z</time>
      </trkpt>
      <trkpt lat="45.84489" lon="6.21306">
        <ele>491.20001220703</ele>
        <time>2012-07-31T18:26:03.000Z</time>
      </trkpt>
      <trkpt lat="45.84495" lon="6.21294">
        <ele>491.20001220703</ele>
        <time>2012-07-31T18:26:07.000Z</time>
      </trkpt>
      <trkpt lat="45.84498" lon="6.21288">
        <ele>492.39999389648</ele>
        <time>2012-07-31T18:26:09.000Z</time>
      </trkpt>
      <trkpt lat="45.84505" lon="6.21273">
        <ele>493.39999389648</ele>
        <time>2012-07-31T18:26:14.000Z</time>
      </trkpt>
      <trkpt lat="45.84507" lon="6.21271">
        <ele>493.39999389648</ele>
        <time>2012-07-31T18:26:15.000Z</time>
      </trkpt>
      <trkpt lat="45.84516" lon="6.21262">
        <ele>494.60000610352</ele>
        <time>2012-07-31T18:26:20.000Z</time>
      </trkpt>
      <trkpt lat="45.84518" lon="6.21261">
        <ele>491.39999389648</ele>
        <time>2012-07-31T18:26:21.000Z</time>
      </trkpt>
      <trkpt lat="45.84522" lon="6.2126">
        <ele>503.79998779297</ele>
        <time>2012-07-31T18:26:23.000Z</time>
      </trkpt>
      <trkpt lat="45.84524" lon="6.21261">
        <ele>498.39999389648</ele>
        <time>2012-07-31T18:26:24.000Z</time>
      </trkpt>
      <trkpt lat="45.84526" lon="6.21262">
        <ele>490.60000610352</ele>
        <time>2012-07-31T18:26:25.000Z</time>
      </trkpt>
      <trkpt lat="45.84527" lon="6.21264">
        <ele>496.39999389648</ele>
        <time>2012-07-31T18:26:26.000Z</time>
      </trkpt>
      <trkpt lat="45.84535" lon="6.21272">
        <ele>497.79998779297</ele>
        <time>2012-07-31T18:26:30.000Z</time>
      </trkpt>
      <trkpt lat="45.84538" lon="6.21276">
        <ele>497.79998779297</ele>
        <time>2012-07-31T18:26:32.000Z</time>
      </trkpt>
      <trkpt lat="45.84541" lon="6.2128">
        <ele>498.79998779297</ele>
        <time>2012-07-31T18:26:34.000Z</time>
      </trkpt>
      <trkpt lat="45.84553" lon="6.21296">
        <ele>498.79998779297</ele>
        <time>2012-07-31T18:26:41.000Z</time>
      </trkpt>
      <trkpt lat="45.84555" lon="6.21299">
        <ele>499.79998779297</ele>
        <time>2012-07-31T18:26:42.000Z</time>
      </trkpt>
      <trkpt lat="45.84562" lon="6.21307">
        <ele>500.79998779297</ele>
        <time>2012-07-31T18:26:46.000Z</time>
      </trkpt>
      <trkpt lat="45.84571" lon="6.21318">
        <ele>501.79998779297</ele>
        <time>2012-07-31T18:26:51.000Z</time>
      </trkpt>
      <trkpt lat="45.8458" lon="6.2133">
        <ele>503</ele>
        <time>2012-07-31T18:26:56.000Z</time>
      </trkpt>
      <trkpt lat="45.84587" lon="6.2134">
        <ele>503</ele>
        <time>2012-07-31T18:27:00.000Z</time>
      </trkpt>
      <trkpt lat="45.8459" lon="6.21344">
        <ele>504</ele>
        <time>2012-07-31T18:27:02.000Z</time>
      </trkpt>
      <trkpt lat="45.84599" lon="6.21356">
        <ele>505.20001220703</ele>
        <time>2012-07-31T18:27:07.000Z</time>
      </trkpt>
      <trkpt lat="45.84603" lon="6.2136">
        <ele>505.20001220703</ele>
        <time>2012-07-31T18:27:09.000Z</time>
      </trkpt>
      <trkpt lat="45.84609" lon="6.21367">
        <ele>506.20001220703</ele>
        <time>2012-07-31T18:27:12.000Z</time>
      </trkpt>
      <trkpt lat="45.84617" lon="6.21376">
        <ele>507.20001220703</ele>
        <time>2012-07-31T18:27:16.000Z</time>
      </trkpt>
      <trkpt lat="45.84618" lon="6.21379">
        <ele>507.20001220703</ele>
        <time>2012-07-31T18:27:17.000Z</time>
      </trkpt>
      <trkpt lat="45.84626" lon="6.21389">
        <ele>508.20001220703</ele>
        <time>2012-07-31T18:27:21.000Z</time>
      </trkpt>
      <trkpt lat="45.84634" lon="6.21398">
        <ele>508.20001220703</ele>
        <time>2012-07-31T18:27:25.000Z</time>
      </trkpt>
      <trkpt lat="45.84637" lon="6.21402">
        <ele>509.20001220703</ele>
        <time>2012-07-31T18:27:27.000Z</time>
      </trkpt>
      <trkpt lat="45.84649" lon="6.21415">
        <ele>509.20001220703</ele>
        <time>2012-07-31T18:27:33.000Z</time>
      </trkpt>
      <trkpt lat="45.84661" lon="6.21425">
        <ele>509.20001220703</ele>
        <time>2012-07-31T18:27:39.000Z</time>
      </trkpt>
      <trkpt lat="45.84678" lon="6.21423">
        <ele>509.20001220703</ele>
        <time>2012-07-31T18:27:44.000Z</time>
      </trkpt>
      <trkpt lat="45.84683" lon="6.21421">
        <ele>509.20001220703</ele>
        <time>2012-07-31T18:27:45.000Z</time>
      </trkpt>
      <trkpt lat="45.84699" lon="6.21404">
        <ele>509.20001220703</ele>
        <time>2012-07-31T18:27:49.000Z</time>
      </trkpt>
      <trkpt lat="45.84703" lon="6.21397">
        <ele>509.20001220703</ele>
        <time>2012-07-31T18:27:50.000Z</time>
      </trkpt>
      <trkpt lat="45.84707" lon="6.2139">
        <ele>506.20001220703</ele>
        <time>2012-07-31T18:27:51.000Z</time>
      </trkpt>
      <trkpt lat="45.84721" lon="6.21367">
        <ele>506.20001220703</ele>
        <time>2012-07-31T18:27:54.000Z</time>
      </trkpt>
      <trkpt lat="45.84726" lon="6.21358">
        <ele>505.20001220703</ele>
        <time>2012-07-31T18:27:55.000Z</time>
      </trkpt>
      <trkpt lat="45.84735" lon="6.21342">
        <ele>504</ele>
        <time>2012-07-31T18:27:57.000Z</time>
      </trkpt>
      <trkpt lat="45.84762" lon="6.21295">
        <ele>502.79998779297</ele>
        <time>2012-07-31T18:28:02.000Z</time>
      </trkpt>
      <trkpt lat="45.84772" lon="6.21277">
        <ele>501.60000610352</ele>
        <time>2012-07-31T18:28:04.000Z</time>
      </trkpt>
      <trkpt lat="45.84789" lon="6.21247">
        <ele>500.39999389648</ele>
        <time>2012-07-31T18:28:07.000Z</time>
      </trkpt>
      <trkpt lat="45.84811" lon="6.21209">
        <ele>500.39999389648</ele>
        <time>2012-07-31T18:28:11.000Z</time>
      </trkpt>
      <trkpt lat="45.84821" lon="6.2119">
        <ele>499</ele>
        <time>2012-07-31T18:28:13.000Z</time>
      </trkpt>
      <trkpt lat="45.84857" lon="6.21126">
        <ele>499</ele>
        <time>2012-07-31T18:28:20.000Z</time>
      </trkpt>
      <trkpt lat="45.84862" lon="6.21118">
        <ele>498</ele>
        <time>2012-07-31T18:28:21.000Z</time>
      </trkpt>
      <trkpt lat="45.84898" lon="6.21056">
        <ele>498</ele>
        <time>2012-07-31T18:28:28.000Z</time>
      </trkpt>
      <trkpt lat="45.84934" lon="6.20989">
        <ele>498</ele>
        <time>2012-07-31T18:28:36.000Z</time>
      </trkpt>
      <trkpt lat="45.84948" lon="6.20966">
        <ele>497</ele>
        <time>2012-07-31T18:28:39.000Z</time>
      </trkpt>
      <trkpt lat="45.84976" lon="6.20916">
        <ele>497</ele>
        <time>2012-07-31T18:28:45.000Z</time>
      </trkpt>
      <trkpt lat="45.85015" lon="6.20854">
        <ele>497</ele>
        <time>2012-07-31T18:28:53.000Z</time>
      </trkpt>
      <trkpt lat="45.85059" lon="6.20799">
        <ele>495.79998779297</ele>
        <time>2012-07-31T18:29:01.000Z</time>
      </trkpt>
      <trkpt lat="45.85076" lon="6.20778">
        <ele>495.79998779297</ele>
        <time>2012-07-31T18:29:04.000Z</time>
      </trkpt>
      <trkpt lat="45.8512" lon="6.20723">
        <ele>495.79998779297</ele>
        <time>2012-07-31T18:29:12.000Z</time>
      </trkpt>
      <trkpt lat="45.85126" lon="6.20716">
        <ele>495.79998779297</ele>
        <time>2012-07-31T18:29:13.000Z</time>
      </trkpt>
      <trkpt lat="45.85131" lon="6.20709">
        <ele>494.60000610352</ele>
        <time>2012-07-31T18:29:14.000Z</time>
      </trkpt>
      <trkpt lat="45.85143" lon="6.20694">
        <ele>493.60000610352</ele>
        <time>2012-07-31T18:29:16.000Z</time>
      </trkpt>
      <trkpt lat="45.85168" lon="6.20663">
        <ele>492.20001220703</ele>
        <time>2012-07-31T18:29:20.000Z</time>
      </trkpt>
      <trkpt lat="45.85173" lon="6.20655">
        <ele>492.20001220703</ele>
        <time>2012-07-31T18:29:21.000Z</time>
      </trkpt>
      <trkpt lat="45.8518" lon="6.20646">
        <ele>491.20001220703</ele>
        <time>2012-07-31T18:29:22.000Z</time>
      </trkpt>
      <trkpt lat="45.852" lon="6.20621">
        <ele>490</ele>
        <time>2012-07-31T18:29:25.000Z</time>
      </trkpt>
      <trkpt lat="45.85219" lon="6.20596">
        <ele>489</ele>
        <time>2012-07-31T18:29:28.000Z</time>
      </trkpt>
      <trkpt lat="45.85224" lon="6.2059">
        <ele>489</ele>
        <time>2012-07-31T18:29:29.000Z</time>
      </trkpt>
      <trkpt lat="45.85239" lon="6.2057">
        <ele>487.79998779297</ele>
        <time>2012-07-31T18:29:32.000Z</time>
      </trkpt>
      <trkpt lat="45.85255" lon="6.20549">
        <ele>487.79998779297</ele>
        <time>2012-07-31T18:29:35.000Z</time>
      </trkpt>
      <trkpt lat="45.85261" lon="6.20542">
        <ele>486.60000610352</ele>
        <time>2012-07-31T18:29:36.000Z</time>
      </trkpt>
      <trkpt lat="45.85285" lon="6.2051">
        <ele>485.39999389648</ele>
        <time>2012-07-31T18:29:40.000Z</time>
      </trkpt>
      <trkpt lat="45.85291" lon="6.20501">
        <ele>484.20001220703</ele>
        <time>2012-07-31T18:29:41.000Z</time>
      </trkpt>
      <trkpt lat="45.85297" lon="6.20493">
        <ele>484.20001220703</ele>
        <time>2012-07-31T18:29:42.000Z</time>
      </trkpt>
      <trkpt lat="45.85308" lon="6.20473">
        <ele>484.20001220703</ele>
        <time>2012-07-31T18:29:44.000Z</time>
      </trkpt>
      <trkpt lat="45.85314" lon="6.20451">
        <ele>483.20001220703</ele>
        <time>2012-07-31T18:29:46.000Z</time>
      </trkpt>
      <trkpt lat="45.85318" lon="6.20426">
        <ele>483.20001220703</ele>
        <time>2012-07-31T18:29:48.000Z</time>
      </trkpt>
      <trkpt lat="45.85318" lon="6.20418">
        <ele>482</ele>
        <time>2012-07-31T18:29:49.000Z</time>
      </trkpt>
      <trkpt lat="45.85319" lon="6.20409">
        <ele>482</ele>
        <time>2012-07-31T18:29:50.000Z</time>
      </trkpt>
      <trkpt lat="45.8532" lon="6.20386">
        <ele>482</ele>
        <time>2012-07-31T18:29:54.000Z</time>
      </trkpt>
      <trkpt lat="45.85321" lon="6.20379">
        <ele>481</ele>
        <time>2012-07-31T18:29:55.000Z</time>
      </trkpt>
      <trkpt lat="45.85321" lon="6.20372">
        <ele>481</ele>
        <time>2012-07-31T18:29:56.000Z</time>
      </trkpt>
      <trkpt lat="45.85324" lon="6.20356">
        <ele>480</ele>
        <time>2012-07-31T18:29:58.000Z</time>
      </trkpt>
      <trkpt lat="45.85328" lon="6.20317">
        <ele>478.79998779297</ele>
        <time>2012-07-31T18:30:02.000Z</time>
      </trkpt>
      <trkpt lat="45.85329" lon="6.20308">
        <ele>478.79998779297</ele>
        <time>2012-07-31T18:30:03.000Z</time>
      </trkpt>
      <trkpt lat="45.85331" lon="6.20297">
        <ele>477.79998779297</ele>
        <time>2012-07-31T18:30:04.000Z</time>
      </trkpt>
      <trkpt lat="45.85338" lon="6.20259">
        <ele>476.79998779297</ele>
        <time>2012-07-31T18:30:07.000Z</time>
      </trkpt>
      <trkpt lat="45.85341" lon="6.20248">
        <ele>475.60000610352</ele>
        <time>2012-07-31T18:30:08.000Z</time>
      </trkpt>
      <trkpt lat="45.85344" lon="6.20235">
        <ele>475.60000610352</ele>
        <time>2012-07-31T18:30:09.000Z</time>
      </trkpt>
      <trkpt lat="45.85348" lon="6.20222">
        <ele>474.39999389648</ele>
        <time>2012-07-31T18:30:10.000Z</time>
      </trkpt>
      <trkpt lat="45.85356" lon="6.20198">
        <ele>473.20001220703</ele>
        <time>2012-07-31T18:30:12.000Z</time>
      </trkpt>
      <trkpt lat="45.85366" lon="6.20173">
        <ele>472.20001220703</ele>
        <time>2012-07-31T18:30:14.000Z</time>
      </trkpt>
      <trkpt lat="45.85376" lon="6.20147">
        <ele>471.20001220703</ele>
        <time>2012-07-31T18:30:16.000Z</time>
      </trkpt>
      <trkpt lat="45.85387" lon="6.20123">
        <ele>470</ele>
        <time>2012-07-31T18:30:18.000Z</time>
      </trkpt>
      <trkpt lat="45.85398" lon="6.20097">
        <ele>468.79998779297</ele>
        <time>2012-07-31T18:30:20.000Z</time>
      </trkpt>
      <trkpt lat="45.85403" lon="6.20084">
        <ele>466.79998779297</ele>
        <time>2012-07-31T18:30:21.000Z</time>
      </trkpt>
      <trkpt lat="45.85408" lon="6.20071">
        <ele>465</ele>
        <time>2012-07-31T18:30:22.000Z</time>
      </trkpt>
      <trkpt lat="45.85436" lon="6.20004">
        <ele>465</ele>
        <time>2012-07-31T18:30:27.000Z</time>
      </trkpt>
      <trkpt lat="45.85453" lon="6.19966">
        <ele>464</ele>
        <time>2012-07-31T18:30:30.000Z</time>
      </trkpt>
      <trkpt lat="45.85471" lon="6.19929">
        <ele>462.79998779297</ele>
        <time>2012-07-31T18:30:33.000Z</time>
      </trkpt>
      <trkpt lat="45.85484" lon="6.19903">
        <ele>461.60000610352</ele>
        <time>2012-07-31T18:30:35.000Z</time>
      </trkpt>
      <trkpt lat="45.85491" lon="6.19892">
        <ele>460.60000610352</ele>
        <time>2012-07-31T18:30:36.000Z</time>
      </trkpt>
      <trkpt lat="45.85506" lon="6.1987">
        <ele>460.60000610352</ele>
        <time>2012-07-31T18:30:38.000Z</time>
      </trkpt>
      <trkpt lat="45.85513" lon="6.1986">
        <ele>459.39999389648</ele>
        <time>2012-07-31T18:30:39.000Z</time>
      </trkpt>
      <trkpt lat="45.85521" lon="6.19849">
        <ele>458.20001220703</ele>
        <time>2012-07-31T18:30:40.000Z</time>
      </trkpt>
      <trkpt lat="45.85538" lon="6.19827">
        <ele>457.20001220703</ele>
        <time>2012-07-31T18:30:42.000Z</time>
      </trkpt>
      <trkpt lat="45.85554" lon="6.19806">
        <ele>456</ele>
        <time>2012-07-31T18:30:44.000Z</time>
      </trkpt>
      <trkpt lat="45.85563" lon="6.19794">
        <ele>456</ele>
        <time>2012-07-31T18:30:45.000Z</time>
      </trkpt>
      <trkpt lat="45.85579" lon="6.19771">
        <ele>455</ele>
        <time>2012-07-31T18:30:47.000Z</time>
      </trkpt>
      <trkpt lat="45.85596" lon="6.19752">
        <ele>453.79998779297</ele>
        <time>2012-07-31T18:30:49.000Z</time>
      </trkpt>
      <trkpt lat="45.85606" lon="6.19743">
        <ele>452.79998779297</ele>
        <time>2012-07-31T18:30:50.000Z</time>
      </trkpt>
      <trkpt lat="45.85626" lon="6.19734">
        <ele>451.79998779297</ele>
        <time>2012-07-31T18:30:52.000Z</time>
      </trkpt>
      <trkpt lat="45.85637" lon="6.19731">
        <ele>451.79998779297</ele>
        <time>2012-07-31T18:30:53.000Z</time>
      </trkpt>
      <trkpt lat="45.85648" lon="6.19729">
        <ele>450.60000610352</ele>
        <time>2012-07-31T18:30:54.000Z</time>
      </trkpt>
      <trkpt lat="45.85659" lon="6.19729">
        <ele>449.60000610352</ele>
        <time>2012-07-31T18:30:55.000Z</time>
      </trkpt>
      <trkpt lat="45.8568" lon="6.19736">
        <ele>449.60000610352</ele>
        <time>2012-07-31T18:30:57.000Z</time>
      </trkpt>
      <trkpt lat="45.85698" lon="6.1975">
        <ele>448.60000610352</ele>
        <time>2012-07-31T18:30:59.000Z</time>
      </trkpt>
      <trkpt lat="45.85707" lon="6.19759">
        <ele>448.60000610352</ele>
        <time>2012-07-31T18:31:00.000Z</time>
      </trkpt>
      <trkpt lat="45.85716" lon="6.19766">
        <ele>447</ele>
        <time>2012-07-31T18:31:01.000Z</time>
      </trkpt>
      <trkpt lat="45.85724" lon="6.19772">
        <ele>445.79998779297</ele>
        <time>2012-07-31T18:31:02.000Z</time>
      </trkpt>
      <trkpt lat="45.85735" lon="6.19777">
        <ele>444.39999389648</ele>
        <time>2012-07-31T18:31:03.000Z</time>
      </trkpt>
      <trkpt lat="45.85743" lon="6.19779">
        <ele>444.39999389648</ele>
        <time>2012-07-31T18:31:04.000Z</time>
      </trkpt>
      <trkpt lat="45.85777" lon="6.19776">
        <ele>443</ele>
        <time>2012-07-31T18:31:07.000Z</time>
      </trkpt>
      <trkpt lat="45.85787" lon="6.19772">
        <ele>441.79998779297</ele>
        <time>2012-07-31T18:31:08.000Z</time>
      </trkpt>
      <trkpt lat="45.85797" lon="6.19768">
        <ele>441.79998779297</ele>
        <time>2012-07-31T18:31:09.000Z</time>
      </trkpt>
      <trkpt lat="45.85803" lon="6.19758">
        <ele>441.79998779297</ele>
        <time>2012-07-31T18:31:10.000Z</time>
      </trkpt>
      <trkpt lat="45.85813" lon="6.19745">
        <ele>440.20001220703</ele>
        <time>2012-07-31T18:31:11.000Z</time>
      </trkpt>
      <trkpt lat="45.85828" lon="6.19722">
        <ele>439</ele>
        <time>2012-07-31T18:31:13.000Z</time>
      </trkpt>
      <trkpt lat="45.85836" lon="6.1971">
        <ele>439</ele>
        <time>2012-07-31T18:31:14.000Z</time>
      </trkpt>
      <trkpt lat="45.85845" lon="6.19697">
        <ele>437.79998779297</ele>
        <time>2012-07-31T18:31:15.000Z</time>
      </trkpt>
      <trkpt lat="45.85853" lon="6.19688">
        <ele>437.79998779297</ele>
        <time>2012-07-31T18:31:16.000Z</time>
      </trkpt>
      <trkpt lat="45.85863" lon="6.1968">
        <ele>436.79998779297</ele>
        <time>2012-07-31T18:31:17.000Z</time>
      </trkpt>
      <trkpt lat="45.85887" lon="6.19664">
        <ele>436.79998779297</ele>
        <time>2012-07-31T18:31:20.000Z</time>
      </trkpt>
      <trkpt lat="45.8591" lon="6.19648">
        <ele>436.79998779297</ele>
        <time>2012-07-31T18:31:24.000Z</time>
      </trkpt>
      <trkpt lat="45.85922" lon="6.19641">
        <ele>436.79998779297</ele>
        <time>2012-07-31T18:31:26.000Z</time>
      </trkpt>
      <trkpt lat="45.85945" lon="6.19623">
        <ele>436.79998779297</ele>
        <time>2012-07-31T18:31:30.000Z</time>
      </trkpt>
      <trkpt lat="45.85982" lon="6.19598">
        <ele>436.79998779297</ele>
        <time>2012-07-31T18:31:36.000Z</time>
      </trkpt>
      <trkpt lat="45.86012" lon="6.19566">
        <ele>436.79998779297</ele>
        <time>2012-07-31T18:31:41.000Z</time>
      </trkpt>
      <trkpt lat="45.86061" lon="6.19518">
        <ele>436.79998779297</ele>
        <time>2012-07-31T18:31:49.000Z</time>
      </trkpt>
      <trkpt lat="45.86067" lon="6.19511">
        <ele>436.79998779297</ele>
        <time>2012-07-31T18:31:50.000Z</time>
      </trkpt>
      <trkpt lat="45.86077" lon="6.19494">
        <ele>436.79998779297</ele>
        <time>2012-07-31T18:31:52.000Z</time>
      </trkpt>
      <trkpt lat="45.86092" lon="6.19453">
        <ele>435.39999389648</ele>
        <time>2012-07-31T18:31:56.000Z</time>
      </trkpt>
      <trkpt lat="45.86094" lon="6.19441">
        <ele>434.20001220703</ele>
        <time>2012-07-31T18:31:57.000Z</time>
      </trkpt>
      <trkpt lat="45.86096" lon="6.19416">
        <ele>433</ele>
        <time>2012-07-31T18:31:59.000Z</time>
      </trkpt>
      <trkpt lat="45.86093" lon="6.19376">
        <ele>432</ele>
        <time>2012-07-31T18:32:02.000Z</time>
      </trkpt>
      <trkpt lat="45.86093" lon="6.19363">
        <ele>432</ele>
        <time>2012-07-31T18:32:03.000Z</time>
      </trkpt>
      <trkpt lat="45.86094" lon="6.19337">
        <ele>431</ele>
        <time>2012-07-31T18:32:05.000Z</time>
      </trkpt>
      <trkpt lat="45.86099" lon="6.19312">
        <ele>431</ele>
        <time>2012-07-31T18:32:07.000Z</time>
      </trkpt>
      <trkpt lat="45.86102" lon="6.19299">
        <ele>431</ele>
        <time>2012-07-31T18:32:08.000Z</time>
      </trkpt>
      <trkpt lat="45.86106" lon="6.19287">
        <ele>429.60000610352</ele>
        <time>2012-07-31T18:32:09.000Z</time>
      </trkpt>
      <trkpt lat="45.86114" lon="6.19261">
        <ele>429.60000610352</ele>
        <time>2012-07-31T18:32:11.000Z</time>
      </trkpt>
      <trkpt lat="45.86119" lon="6.1925">
        <ele>428.60000610352</ele>
        <time>2012-07-31T18:32:12.000Z</time>
      </trkpt>
      <trkpt lat="45.86125" lon="6.19239">
        <ele>427.60000610352</ele>
        <time>2012-07-31T18:32:13.000Z</time>
      </trkpt>
      <trkpt lat="45.86131" lon="6.19229">
        <ele>426.39999389648</ele>
        <time>2012-07-31T18:32:14.000Z</time>
      </trkpt>
      <trkpt lat="45.86138" lon="6.19218">
        <ele>426.39999389648</ele>
        <time>2012-07-31T18:32:15.000Z</time>
      </trkpt>
      <trkpt lat="45.86145" lon="6.19209">
        <ele>425.39999389648</ele>
        <time>2012-07-31T18:32:16.000Z</time>
      </trkpt>
      <trkpt lat="45.86154" lon="6.19199">
        <ele>425.39999389648</ele>
        <time>2012-07-31T18:32:17.000Z</time>
      </trkpt>
      <trkpt lat="45.86169" lon="6.19182">
        <ele>424.39999389648</ele>
        <time>2012-07-31T18:32:19.000Z</time>
      </trkpt>
      <trkpt lat="45.8618" lon="6.19173">
        <ele>424.39999389648</ele>
        <time>2012-07-31T18:32:20.000Z</time>
      </trkpt>
      <trkpt lat="45.86189" lon="6.19166">
        <ele>423.39999389648</ele>
        <time>2012-07-31T18:32:21.000Z</time>
      </trkpt>
      <trkpt lat="45.86225" lon="6.19144">
        <ele>423.39999389648</ele>
        <time>2012-07-31T18:32:25.000Z</time>
      </trkpt>
      <trkpt lat="45.86276" lon="6.1911">
        <ele>423.39999389648</ele>
        <time>2012-07-31T18:32:31.000Z</time>
      </trkpt>
      <trkpt lat="45.86284" lon="6.19102">
        <ele>423.39999389648</ele>
        <time>2012-07-31T18:32:32.000Z</time>
      </trkpt>
      <trkpt lat="45.86306" lon="6.19074">
        <ele>422.20001220703</ele>
        <time>2012-07-31T18:32:35.000Z</time>
      </trkpt>
      <trkpt lat="45.86351" lon="6.19026">
        <ele>422.20001220703</ele>
        <time>2012-07-31T18:32:41.000Z</time>
      </trkpt>
      <trkpt lat="45.86358" lon="6.19019">
        <ele>422.20001220703</ele>
        <time>2012-07-31T18:32:42.000Z</time>
      </trkpt>
      <trkpt lat="45.86406" lon="6.18974">
        <ele>422.20001220703</ele>
        <time>2012-07-31T18:32:49.000Z</time>
      </trkpt>
      <trkpt lat="45.86441" lon="6.18938">
        <ele>422.20001220703</ele>
        <time>2012-07-31T18:32:55.000Z</time>
      </trkpt>
      <trkpt lat="45.86445" lon="6.18934">
        <ele>425.20001220703</ele>
        <time>2012-07-31T18:32:56.000Z</time>
      </trkpt>
      <trkpt lat="45.86468" lon="6.18911">
        <ele>425.20001220703</ele>
        <time>2012-07-31T18:33:01.000Z</time>
      </trkpt>
      <trkpt lat="45.86483" lon="6.18897">
        <ele>426.20001220703</ele>
        <time>2012-07-31T18:33:04.000Z</time>
      </trkpt>
      <trkpt lat="45.86501" lon="6.18879">
        <ele>427.39999389648</ele>
        <time>2012-07-31T18:33:07.000Z</time>
      </trkpt>
      <trkpt lat="45.86516" lon="6.18864">
        <ele>428.39999389648</ele>
        <time>2012-07-31T18:33:10.000Z</time>
      </trkpt>
      <trkpt lat="45.86545" lon="6.18834">
        <ele>429.60000610352</ele>
        <time>2012-07-31T18:33:16.000Z</time>
      </trkpt>
      <trkpt lat="45.86589" lon="6.18789">
        <ele>429.60000610352</ele>
        <time>2012-07-31T18:33:25.000Z</time>
      </trkpt>
      <trkpt lat="45.86593" lon="6.18784">
        <ele>430.79998779297</ele>
        <time>2012-07-31T18:33:26.000Z</time>
      </trkpt>
      <trkpt lat="45.86636" lon="6.18739">
        <ele>430.79998779297</ele>
        <time>2012-07-31T18:33:35.000Z</time>
      </trkpt>
      <trkpt lat="45.86677" lon="6.18696">
        <ele>431.79998779297</ele>
        <time>2012-07-31T18:33:44.000Z</time>
      </trkpt>
      <trkpt lat="45.86686" lon="6.18687">
        <ele>431.79998779297</ele>
        <time>2012-07-31T18:33:46.000Z</time>
      </trkpt>
      <trkpt lat="45.86729" lon="6.1864">
        <ele>431.79998779297</ele>
        <time>2012-07-31T18:33:56.000Z</time>
      </trkpt>
      <trkpt lat="45.86734" lon="6.18636">
        <ele>433</ele>
        <time>2012-07-31T18:33:57.000Z</time>
      </trkpt>
      <trkpt lat="45.86773" lon="6.186">
        <ele>433</ele>
        <time>2012-07-31T18:34:06.000Z</time>
      </trkpt>
      <trkpt lat="45.86803" lon="6.18578">
        <ele>434</ele>
        <time>2012-07-31T18:34:13.000Z</time>
      </trkpt>
      <trkpt lat="45.86816" lon="6.18569">
        <ele>434</ele>
        <time>2012-07-31T18:34:16.000Z</time>
      </trkpt>
      <trkpt lat="45.86833" lon="6.18558">
        <ele>435</ele>
        <time>2012-07-31T18:34:20.000Z</time>
      </trkpt>
      <trkpt lat="45.86846" lon="6.18549">
        <ele>435</ele>
        <time>2012-07-31T18:34:23.000Z</time>
      </trkpt>
      <trkpt lat="45.86877" lon="6.1853">
        <ele>436</ele>
        <time>2012-07-31T18:34:30.000Z</time>
      </trkpt>
      <trkpt lat="45.86895" lon="6.18518">
        <ele>436</ele>
        <time>2012-07-31T18:34:34.000Z</time>
      </trkpt>
      <trkpt lat="45.86933" lon="6.18495">
        <ele>437.20001220703</ele>
        <time>2012-07-31T18:34:42.000Z</time>
      </trkpt>
      <trkpt lat="45.86947" lon="6.18486">
        <ele>437.20001220703</ele>
        <time>2012-07-31T18:34:45.000Z</time>
      </trkpt>
      <trkpt lat="45.86995" lon="6.18456">
        <ele>437.20001220703</ele>
        <time>2012-07-31T18:34:55.000Z</time>
      </trkpt>
      <trkpt lat="45.87039" lon="6.1843">
        <ele>437.20001220703</ele>
        <time>2012-07-31T18:35:04.000Z</time>
      </trkpt>
      <trkpt lat="45.8708" lon="6.18405">
        <ele>437.20001220703</ele>
        <time>2012-07-31T18:35:12.000Z</time>
      </trkpt>
      <trkpt lat="45.8711" lon="6.18386">
        <ele>438.20001220703</ele>
        <time>2012-07-31T18:35:18.000Z</time>
      </trkpt>
      <trkpt lat="45.8713" lon="6.18373">
        <ele>438.20001220703</ele>
        <time>2012-07-31T18:35:22.000Z</time>
      </trkpt>
      <trkpt lat="45.87176" lon="6.18346">
        <ele>438.20001220703</ele>
        <time>2012-07-31T18:35:31.000Z</time>
      </trkpt>
      <trkpt lat="45.87209" lon="6.18326">
        <ele>439.39999389648</ele>
        <time>2012-07-31T18:35:38.000Z</time>
      </trkpt>
      <trkpt lat="45.87223" lon="6.18318">
        <ele>439.39999389648</ele>
        <time>2012-07-31T18:35:41.000Z</time>
      </trkpt>
      <trkpt lat="45.8727" lon="6.18295">
        <ele>439.39999389648</ele>
        <time>2012-07-31T18:35:51.000Z</time>
      </trkpt>
      <trkpt lat="45.87274" lon="6.18292">
        <ele>440.39999389648</ele>
        <time>2012-07-31T18:35:52.000Z</time>
      </trkpt>
      <trkpt lat="45.87303" lon="6.18279">
        <ele>440.39999389648</ele>
        <time>2012-07-31T18:35:58.000Z</time>
      </trkpt>
      <trkpt lat="45.87341" lon="6.18262">
        <ele>441.39999389648</ele>
        <time>2012-07-31T18:36:06.000Z</time>
      </trkpt>
      <trkpt lat="45.87351" lon="6.18258">
        <ele>441.39999389648</ele>
        <time>2012-07-31T18:36:08.000Z</time>
      </trkpt>
      <trkpt lat="45.87406" lon="6.18242">
        <ele>441.39999389648</ele>
        <time>2012-07-31T18:36:19.000Z</time>
      </trkpt>
      <trkpt lat="45.87446" lon="6.18232">
        <ele>441.39999389648</ele>
        <time>2012-07-31T18:36:27.000Z</time>
      </trkpt>
      <trkpt lat="45.87477" lon="6.18224">
        <ele>442.39999389648</ele>
        <time>2012-07-31T18:36:33.000Z</time>
      </trkpt>
      <trkpt lat="45.87512" lon="6.18216">
        <ele>442.39999389648</ele>
        <time>2012-07-31T18:36:40.000Z</time>
      </trkpt>
      <trkpt lat="45.87554" lon="6.18207">
        <ele>442.39999389648</ele>
        <time>2012-07-31T18:36:48.000Z</time>
      </trkpt>
      <trkpt lat="45.87575" lon="6.18202">
        <ele>442.39999389648</ele>
        <time>2012-07-31T18:36:52.000Z</time>
      </trkpt>
      <trkpt lat="45.87592" lon="6.18196">
        <ele>442.39999389648</ele>
        <time>2012-07-31T18:36:55.000Z</time>
      </trkpt>
      <trkpt lat="45.87626" lon="6.1818">
        <ele>443.60000610352</ele>
        <time>2012-07-31T18:37:01.000Z</time>
      </trkpt>
      <trkpt lat="45.87637" lon="6.18175">
        <ele>443.60000610352</ele>
        <time>2012-07-31T18:37:03.000Z</time>
      </trkpt>
      <trkpt lat="45.87683" lon="6.18155">
        <ele>443.60000610352</ele>
        <time>2012-07-31T18:37:11.000Z</time>
      </trkpt>
      <trkpt lat="45.87728" lon="6.18135">
        <ele>443.60000610352</ele>
        <time>2012-07-31T18:37:19.000Z</time>
      </trkpt>
      <trkpt lat="45.87734" lon="6.18132">
        <ele>444.60000610352</ele>
        <time>2012-07-31T18:37:20.000Z</time>
      </trkpt>
      <trkpt lat="45.87784" lon="6.1811">
        <ele>444.60000610352</ele>
        <time>2012-07-31T18:37:29.000Z</time>
      </trkpt>
      <trkpt lat="45.87836" lon="6.18089">
        <ele>444.60000610352</ele>
        <time>2012-07-31T18:37:38.000Z</time>
      </trkpt>
      <trkpt lat="45.87881" lon="6.18067">
        <ele>444.60000610352</ele>
        <time>2012-07-31T18:37:46.000Z</time>
      </trkpt>
      <trkpt lat="45.87932" lon="6.18041">
        <ele>444.60000610352</ele>
        <time>2012-07-31T18:37:55.000Z</time>
      </trkpt>
      <trkpt lat="45.87938" lon="6.18038">
        <ele>444.60000610352</ele>
        <time>2012-07-31T18:37:56.000Z</time>
      </trkpt>
      <trkpt lat="45.87954" lon="6.18029">
        <ele>445.79998779297</ele>
        <time>2012-07-31T18:37:59.000Z</time>
      </trkpt>
      <trkpt lat="45.87975" lon="6.18019">
        <ele>445.79998779297</ele>
        <time>2012-07-31T18:38:03.000Z</time>
      </trkpt>
      <trkpt lat="45.87999" lon="6.18006">
        <ele>445.79998779297</ele>
        <time>2012-07-31T18:38:09.000Z</time>
      </trkpt>
      <trkpt lat="45.88008" lon="6.18004">
        <ele>447</ele>
        <time>2012-07-31T18:38:11.000Z</time>
      </trkpt>
      <trkpt lat="45.88015" lon="6.18005">
        <ele>447</ele>
        <time>2012-07-31T18:38:13.000Z</time>
      </trkpt>
      <trkpt lat="45.88028" lon="6.17997">
        <ele>447</ele>
        <time>2012-07-31T18:38:16.000Z</time>
      </trkpt>
      <trkpt lat="45.88053" lon="6.17974">
        <ele>448</ele>
        <time>2012-07-31T18:38:21.000Z</time>
      </trkpt>
      <trkpt lat="45.88093" lon="6.17932">
        <ele>448</ele>
        <time>2012-07-31T18:38:30.000Z</time>
      </trkpt>
      <trkpt lat="45.88132" lon="6.1789">
        <ele>448</ele>
        <time>2012-07-31T18:38:38.000Z</time>
      </trkpt>
      <trkpt lat="45.8817" lon="6.17853">
        <ele>448</ele>
        <time>2012-07-31T18:38:45.000Z</time>
      </trkpt>
      <trkpt lat="45.88189" lon="6.17843">
        <ele>448</ele>
        <time>2012-07-31T18:38:48.000Z</time>
      </trkpt>
      <trkpt lat="45.88196" lon="6.17842">
        <ele>445</ele>
        <time>2012-07-31T18:38:49.000Z</time>
      </trkpt>
      <trkpt lat="45.88203" lon="6.17842">
        <ele>445</ele>
        <time>2012-07-31T18:38:50.000Z</time>
      </trkpt>
      <trkpt lat="45.88222" lon="6.17839">
        <ele>445</ele>
        <time>2012-07-31T18:38:53.000Z</time>
      </trkpt>
      <trkpt lat="45.88235" lon="6.17833">
        <ele>445</ele>
        <time>2012-07-31T18:38:55.000Z</time>
      </trkpt>
      <trkpt lat="45.88275" lon="6.17817">
        <ele>443.79998779297</ele>
        <time>2012-07-31T18:39:01.000Z</time>
      </trkpt>
      <trkpt lat="45.88282" lon="6.17816">
        <ele>443.79998779297</ele>
        <time>2012-07-31T18:39:02.000Z</time>
      </trkpt>
      <trkpt lat="45.88308" lon="6.17805">
        <ele>443.79998779297</ele>
        <time>2012-07-31T18:39:06.000Z</time>
      </trkpt>
      <trkpt lat="45.88314" lon="6.178">
        <ele>443.79998779297</ele>
        <time>2012-07-31T18:39:07.000Z</time>
      </trkpt>
      <trkpt lat="45.88327" lon="6.17791">
        <ele>442.79998779297</ele>
        <time>2012-07-31T18:39:09.000Z</time>
      </trkpt>
      <trkpt lat="45.88365" lon="6.17762">
        <ele>442.79998779297</ele>
        <time>2012-07-31T18:39:15.000Z</time>
      </trkpt>
      <trkpt lat="45.88384" lon="6.17745">
        <ele>441.60000610352</ele>
        <time>2012-07-31T18:39:18.000Z</time>
      </trkpt>
      <trkpt lat="45.884" lon="6.17727">
        <ele>441.60000610352</ele>
        <time>2012-07-31T18:39:21.000Z</time>
      </trkpt>
      <trkpt lat="45.88412" lon="6.17714">
        <ele>440.60000610352</ele>
        <time>2012-07-31T18:39:23.000Z</time>
      </trkpt>
      <trkpt lat="45.88424" lon="6.17702">
        <ele>439.60000610352</ele>
        <time>2012-07-31T18:39:25.000Z</time>
      </trkpt>
      <trkpt lat="45.88441" lon="6.17684">
        <ele>439.60000610352</ele>
        <time>2012-07-31T18:39:28.000Z</time>
      </trkpt>
      <trkpt lat="45.88461" lon="6.17664">
        <ele>438.20001220703</ele>
        <time>2012-07-31T18:39:31.000Z</time>
      </trkpt>
      <trkpt lat="45.8848" lon="6.17643">
        <ele>437.20001220703</ele>
        <time>2012-07-31T18:39:34.000Z</time>
      </trkpt>
      <trkpt lat="45.88489" lon="6.17635">
        <ele>437.20001220703</ele>
        <time>2012-07-31T18:39:35.000Z</time>
      </trkpt>
      <trkpt lat="45.88503" lon="6.17619">
        <ele>436</ele>
        <time>2012-07-31T18:39:37.000Z</time>
      </trkpt>
      <trkpt lat="45.88518" lon="6.17603">
        <ele>434.79998779297</ele>
        <time>2012-07-31T18:39:39.000Z</time>
      </trkpt>
      <trkpt lat="45.88526" lon="6.17594">
        <ele>434.79998779297</ele>
        <time>2012-07-31T18:39:40.000Z</time>
      </trkpt>
      <trkpt lat="45.88542" lon="6.17577">
        <ele>433.79998779297</ele>
        <time>2012-07-31T18:39:42.000Z</time>
      </trkpt>
      <trkpt lat="45.88558" lon="6.1756">
        <ele>432.79998779297</ele>
        <time>2012-07-31T18:39:44.000Z</time>
      </trkpt>
      <trkpt lat="45.88582" lon="6.17534">
        <ele>431.60000610352</ele>
        <time>2012-07-31T18:39:47.000Z</time>
      </trkpt>
      <trkpt lat="45.8859" lon="6.17526">
        <ele>431.60000610352</ele>
        <time>2012-07-31T18:39:48.000Z</time>
      </trkpt>
      <trkpt lat="45.88635" lon="6.17481">
        <ele>431.60000610352</ele>
        <time>2012-07-31T18:39:54.000Z</time>
      </trkpt>
      <trkpt lat="45.88658" lon="6.1746">
        <ele>430.60000610352</ele>
        <time>2012-07-31T18:39:57.000Z</time>
      </trkpt>
      <trkpt lat="45.88665" lon="6.17454">
        <ele>429.39999389648</ele>
        <time>2012-07-31T18:39:58.000Z</time>
      </trkpt>
      <trkpt lat="45.88673" lon="6.17449">
        <ele>429.39999389648</ele>
        <time>2012-07-31T18:39:59.000Z</time>
      </trkpt>
      <trkpt lat="45.88698" lon="6.17436">
        <ele>429.39999389648</ele>
        <time>2012-07-31T18:40:02.000Z</time>
      </trkpt>
      <trkpt lat="45.88737" lon="6.17426">
        <ele>429.39999389648</ele>
        <time>2012-07-31T18:40:07.000Z</time>
      </trkpt>
      <trkpt lat="45.88744" lon="6.17429">
        <ele>429.39999389648</ele>
        <time>2012-07-31T18:40:08.000Z</time>
      </trkpt>
      <trkpt lat="45.88766" lon="6.17425">
        <ele>429.39999389648</ele>
        <time>2012-07-31T18:40:11.000Z</time>
      </trkpt>
      <trkpt lat="45.8878" lon="6.17415">
        <ele>428.20001220703</ele>
        <time>2012-07-31T18:40:13.000Z</time>
      </trkpt>
      <trkpt lat="45.88795" lon="6.17409">
        <ele>428.20001220703</ele>
        <time>2012-07-31T18:40:15.000Z</time>
      </trkpt>
      <trkpt lat="45.88802" lon="6.17407">
        <ele>428.20001220703</ele>
        <time>2012-07-31T18:40:16.000Z</time>
      </trkpt>
      <trkpt lat="45.88844" lon="6.17392">
        <ele>428.20001220703</ele>
        <time>2012-07-31T18:40:22.000Z</time>
      </trkpt>
      <trkpt lat="45.88857" lon="6.17383">
        <ele>428.20001220703</ele>
        <time>2012-07-31T18:40:24.000Z</time>
      </trkpt>
      <trkpt lat="45.88876" lon="6.17366">
        <ele>428.20001220703</ele>
        <time>2012-07-31T18:40:27.000Z</time>
      </trkpt>
      <trkpt lat="45.889" lon="6.17342">
        <ele>428.20001220703</ele>
        <time>2012-07-31T18:40:31.000Z</time>
      </trkpt>
      <trkpt lat="45.88913" lon="6.17333">
        <ele>428.20001220703</ele>
        <time>2012-07-31T18:40:33.000Z</time>
      </trkpt>
      <trkpt lat="45.88962" lon="6.17302">
        <ele>428.20001220703</ele>
        <time>2012-07-31T18:40:40.000Z</time>
      </trkpt>
      <trkpt lat="45.8899" lon="6.17276">
        <ele>428.20001220703</ele>
        <time>2012-07-31T18:40:44.000Z</time>
      </trkpt>
      <trkpt lat="45.88996" lon="6.17268">
        <ele>428.20001220703</ele>
        <time>2012-07-31T18:40:45.000Z</time>
      </trkpt>
      <trkpt lat="45.89039" lon="6.17211">
        <ele>428.20001220703</ele>
        <time>2012-07-31T18:40:52.000Z</time>
      </trkpt>
      <trkpt lat="45.89064" lon="6.17178">
        <ele>428.20001220703</ele>
        <time>2012-07-31T18:40:56.000Z</time>
      </trkpt>
      <trkpt lat="45.89089" lon="6.17147">
        <ele>426.20001220703</ele>
        <time>2012-07-31T18:41:00.000Z</time>
      </trkpt>
      <trkpt lat="45.8912" lon="6.17108">
        <ele>426.20001220703</ele>
        <time>2012-07-31T18:41:05.000Z</time>
      </trkpt>
      <trkpt lat="45.8915" lon="6.17061">
        <ele>426.20001220703</ele>
        <time>2012-07-31T18:41:11.000Z</time>
      </trkpt>
      <trkpt lat="45.89158" lon="6.17036">
        <ele>426.20001220703</ele>
        <time>2012-07-31T18:41:14.000Z</time>
      </trkpt>
      <trkpt lat="45.89164" lon="6.17019">
        <ele>426.20001220703</ele>
        <time>2012-07-31T18:41:16.000Z</time>
      </trkpt>
      <trkpt lat="45.89174" lon="6.16993">
        <ele>426.20001220703</ele>
        <time>2012-07-31T18:41:19.000Z</time>
      </trkpt>
      <trkpt lat="45.89182" lon="6.16973">
        <ele>426.20001220703</ele>
        <time>2012-07-31T18:41:21.000Z</time>
      </trkpt>
      <trkpt lat="45.89191" lon="6.16955">
        <ele>425.20001220703</ele>
        <time>2012-07-31T18:41:23.000Z</time>
      </trkpt>
      <trkpt lat="45.89196" lon="6.16948">
        <ele>425.20001220703</ele>
        <time>2012-07-31T18:41:24.000Z</time>
      </trkpt>
      <trkpt lat="45.89202" lon="6.1694">
        <ele>425.20001220703</ele>
        <time>2012-07-31T18:41:25.000Z</time>
      </trkpt>
      <trkpt lat="45.8922" lon="6.16923">
        <ele>425.20001220703</ele>
        <time>2012-07-31T18:41:28.000Z</time>
      </trkpt>
      <trkpt lat="45.89234" lon="6.16914">
        <ele>425.20001220703</ele>
        <time>2012-07-31T18:41:30.000Z</time>
      </trkpt>
      <trkpt lat="45.89286" lon="6.16886">
        <ele>425.20001220703</ele>
        <time>2012-07-31T18:41:38.000Z</time>
      </trkpt>
      <trkpt lat="45.89335" lon="6.16863">
        <ele>425.20001220703</ele>
        <time>2012-07-31T18:41:45.000Z</time>
      </trkpt>
      <trkpt lat="45.89351" lon="6.16855">
        <ele>423</ele>
        <time>2012-07-31T18:41:47.000Z</time>
      </trkpt>
      <trkpt lat="45.89366" lon="6.16847">
        <ele>421.60000610352</ele>
        <time>2012-07-31T18:41:49.000Z</time>
      </trkpt>
      <trkpt lat="45.89383" lon="6.16838">
        <ele>421.60000610352</ele>
        <time>2012-07-31T18:41:51.000Z</time>
      </trkpt>
      <trkpt lat="45.89391" lon="6.16833">
        <ele>420.60000610352</ele>
        <time>2012-07-31T18:41:52.000Z</time>
      </trkpt>
      <trkpt lat="45.89407" lon="6.1682">
        <ele>419.39999389648</ele>
        <time>2012-07-31T18:41:54.000Z</time>
      </trkpt>
      <trkpt lat="45.89424" lon="6.16804">
        <ele>415.79998779297</ele>
        <time>2012-07-31T18:41:56.000Z</time>
      </trkpt>
      <trkpt lat="45.89431" lon="6.16795">
        <ele>415.79998779297</ele>
        <time>2012-07-31T18:41:57.000Z</time>
      </trkpt>
      <trkpt lat="45.89467" lon="6.16746">
        <ele>415.79998779297</ele>
        <time>2012-07-31T18:42:02.000Z</time>
      </trkpt>
      <trkpt lat="45.895" lon="6.16704">
        <ele>415.79998779297</ele>
        <time>2012-07-31T18:42:07.000Z</time>
      </trkpt>
      <trkpt lat="45.8951" lon="6.1669">
        <ele>419</ele>
        <time>2012-07-31T18:42:09.000Z</time>
      </trkpt>
      <trkpt lat="45.89525" lon="6.16669">
        <ele>419</ele>
        <time>2012-07-31T18:42:12.000Z</time>
      </trkpt>
      <trkpt lat="45.89559" lon="6.16631">
        <ele>419</ele>
        <time>2012-07-31T18:42:19.000Z</time>
      </trkpt>
      <trkpt lat="45.89603" lon="6.16578">
        <ele>419</ele>
        <time>2012-07-31T18:42:27.000Z</time>
      </trkpt>
      <trkpt lat="45.89615" lon="6.16563">
        <ele>415.79998779297</ele>
        <time>2012-07-31T18:42:29.000Z</time>
      </trkpt>
      <trkpt lat="45.8964" lon="6.16532">
        <ele>414.79998779297</ele>
        <time>2012-07-31T18:42:33.000Z</time>
      </trkpt>
      <trkpt lat="45.89646" lon="6.16525">
        <ele>414.79998779297</ele>
        <time>2012-07-31T18:42:34.000Z</time>
      </trkpt>
      <trkpt lat="45.8966" lon="6.16507">
        <ele>413.79998779297</ele>
        <time>2012-07-31T18:42:36.000Z</time>
      </trkpt>
      <trkpt lat="45.89693" lon="6.16466">
        <ele>412.39999389648</ele>
        <time>2012-07-31T18:42:41.000Z</time>
      </trkpt>
      <trkpt lat="45.897" lon="6.16458">
        <ele>412.39999389648</ele>
        <time>2012-07-31T18:42:42.000Z</time>
      </trkpt>
      <trkpt lat="45.89706" lon="6.1645">
        <ele>411</ele>
        <time>2012-07-31T18:42:43.000Z</time>
      </trkpt>
      <trkpt lat="45.89713" lon="6.16441">
        <ele>409.60000610352</ele>
        <time>2012-07-31T18:42:44.000Z</time>
      </trkpt>
      <trkpt lat="45.89727" lon="6.16424">
        <ele>408.39999389648</ele>
        <time>2012-07-31T18:42:46.000Z</time>
      </trkpt>
      <trkpt lat="45.89761" lon="6.1638">
        <ele>408.39999389648</ele>
        <time>2012-07-31T18:42:51.000Z</time>
      </trkpt>
      <trkpt lat="45.89775" lon="6.16362">
        <ele>407.39999389648</ele>
        <time>2012-07-31T18:42:53.000Z</time>
      </trkpt>
      <trkpt lat="45.8981" lon="6.1632">
        <ele>407.39999389648</ele>
        <time>2012-07-31T18:42:58.000Z</time>
      </trkpt>
      <trkpt lat="45.89856" lon="6.16264">
        <ele>406.20001220703</ele>
        <time>2012-07-31T18:43:05.000Z</time>
      </trkpt>
      <trkpt lat="45.89901" lon="6.16219">
        <ele>406.20001220703</ele>
        <time>2012-07-31T18:43:12.000Z</time>
      </trkpt>
      <trkpt lat="45.89941" lon="6.1619">
        <ele>406.20001220703</ele>
        <time>2012-07-31T18:43:18.000Z</time>
      </trkpt>
      <trkpt lat="45.89948" lon="6.16186">
        <ele>406.20001220703</ele>
        <time>2012-07-31T18:43:19.000Z</time>
      </trkpt>
      <trkpt lat="45.89991" lon="6.16166">
        <ele>406.20001220703</ele>
        <time>2012-07-31T18:43:25.000Z</time>
      </trkpt>
      <trkpt lat="45.90036" lon="6.16152">
        <ele>406.20001220703</ele>
        <time>2012-07-31T18:43:31.000Z</time>
      </trkpt>
      <trkpt lat="45.90075" lon="6.16139">
        <ele>405</ele>
        <time>2012-07-31T18:43:36.000Z</time>
      </trkpt>
      <trkpt lat="45.90097" lon="6.16131">
        <ele>405</ele>
        <time>2012-07-31T18:43:39.000Z</time>
      </trkpt>
      <trkpt lat="45.90146" lon="6.16105">
        <ele>405</ele>
        <time>2012-07-31T18:43:46.000Z</time>
      </trkpt>
      <trkpt lat="45.90186" lon="6.16077">
        <ele>405</ele>
        <time>2012-07-31T18:43:52.000Z</time>
      </trkpt>
      <trkpt lat="45.90243" lon="6.16046">
        <ele>405</ele>
        <time>2012-07-31T18:44:00.000Z</time>
      </trkpt>
      <trkpt lat="45.903" lon="6.16022">
        <ele>405</ele>
        <time>2012-07-31T18:44:08.000Z</time>
      </trkpt>
      <trkpt lat="45.90314" lon="6.16016">
        <ele>405</ele>
        <time>2012-07-31T18:44:10.000Z</time>
      </trkpt>
      <trkpt lat="45.90373" lon="6.15994">
        <ele>405</ele>
        <time>2012-07-31T18:44:18.000Z</time>
      </trkpt>
      <trkpt lat="45.90428" lon="6.15969">
        <ele>405</ele>
        <time>2012-07-31T18:44:26.000Z</time>
      </trkpt>
      <trkpt lat="45.90478" lon="6.15935">
        <ele>405</ele>
        <time>2012-07-31T18:44:34.000Z</time>
      </trkpt>
      <trkpt lat="45.9051" lon="6.15903">
        <ele>405</ele>
        <time>2012-07-31T18:44:40.000Z</time>
      </trkpt>
      <trkpt lat="45.90518" lon="6.15881">
        <ele>405</ele>
        <time>2012-07-31T18:44:43.000Z</time>
      </trkpt>
      <trkpt lat="45.9052" lon="6.15873">
        <ele>405</ele>
        <time>2012-07-31T18:44:44.000Z</time>
      </trkpt>
      <trkpt lat="45.90523" lon="6.15865">
        <ele>405</ele>
        <time>2012-07-31T18:44:45.000Z</time>
      </trkpt>
      <trkpt lat="45.90531" lon="6.15852">
        <ele>405</ele>
        <time>2012-07-31T18:44:47.000Z</time>
      </trkpt>
      <trkpt lat="45.90534" lon="6.15846">
        <ele>404</ele>
        <time>2012-07-31T18:44:48.000Z</time>
      </trkpt>
      <trkpt lat="45.90548" lon="6.15819">
        <ele>404</ele>
        <time>2012-07-31T18:44:52.000Z</time>
      </trkpt>
      <trkpt lat="45.90564" lon="6.15782">
        <ele>404</ele>
        <time>2012-07-31T18:44:57.000Z</time>
      </trkpt>
      <trkpt lat="45.90582" lon="6.15719">
        <ele>404</ele>
        <time>2012-07-31T18:45:05.000Z</time>
      </trkpt>
      <trkpt lat="45.90594" lon="6.15655">
        <ele>404</ele>
        <time>2012-07-31T18:45:13.000Z</time>
      </trkpt>
      <trkpt lat="45.90596" lon="6.15615">
        <ele>404</ele>
        <time>2012-07-31T18:45:18.000Z</time>
      </trkpt>
      <trkpt lat="45.90595" lon="6.15608">
        <ele>404</ele>
        <time>2012-07-31T18:45:19.000Z</time>
      </trkpt>
      <trkpt lat="45.90595" lon="6.156">
        <ele>404</ele>
        <time>2012-07-31T18:45:20.000Z</time>
      </trkpt>
      <trkpt lat="45.90593" lon="6.15577">
        <ele>404</ele>
        <time>2012-07-31T18:45:23.000Z</time>
      </trkpt>
      <trkpt lat="45.90589" lon="6.15522">
        <ele>404</ele>
        <time>2012-07-31T18:45:30.000Z</time>
      </trkpt>
      <trkpt lat="45.90581" lon="6.15478">
        <ele>404</ele>
        <time>2012-07-31T18:45:36.000Z</time>
      </trkpt>
      <trkpt lat="45.9058" lon="6.15472">
        <ele>404</ele>
        <time>2012-07-31T18:45:37.000Z</time>
      </trkpt>
      <trkpt lat="45.90578" lon="6.15456">
        <ele>404</ele>
        <time>2012-07-31T18:45:40.000Z</time>
      </trkpt>
      <trkpt lat="45.90576" lon="6.15441">
        <ele>404</ele>
        <time>2012-07-31T18:45:43.000Z</time>
      </trkpt>
      <trkpt lat="45.90575" lon="6.15435">
        <ele>404</ele>
        <time>2012-07-31T18:45:44.000Z</time>
      </trkpt>
      <trkpt lat="45.90569" lon="6.15396">
        <ele>404</ele>
        <time>2012-07-31T18:45:49.000Z</time>
      </trkpt>
      <trkpt lat="45.90565" lon="6.15372">
        <ele>404</ele>
        <time>2012-07-31T18:45:52.000Z</time>
      </trkpt>
      <trkpt lat="45.90562" lon="6.15356">
        <ele>404</ele>
        <time>2012-07-31T18:45:54.000Z</time>
      </trkpt>
      <trkpt lat="45.90555" lon="6.15312">
        <ele>404</ele>
        <time>2012-07-31T18:46:00.000Z</time>
      </trkpt>
      <trkpt lat="45.90553" lon="6.15296">
        <ele>404</ele>
        <time>2012-07-31T18:46:03.000Z</time>
      </trkpt>
      <trkpt lat="45.90551" lon="6.15281">
        <ele>404</ele>
        <time>2012-07-31T18:46:06.000Z</time>
      </trkpt>
      <trkpt lat="45.9055" lon="6.15274">
        <ele>404</ele>
        <time>2012-07-31T18:46:07.000Z</time>
      </trkpt>
      <trkpt lat="45.90541" lon="6.15227">
        <ele>404</ele>
        <time>2012-07-31T18:46:13.000Z</time>
      </trkpt>
      <trkpt lat="45.90531" lon="6.15157">
        <ele>404</ele>
        <time>2012-07-31T18:46:22.000Z</time>
      </trkpt>
      <trkpt lat="45.90526" lon="6.15122">
        <ele>404</ele>
        <time>2012-07-31T18:46:28.000Z</time>
      </trkpt>
      <trkpt lat="45.90523" lon="6.15101">
        <ele>404</ele>
        <time>2012-07-31T18:46:32.000Z</time>
      </trkpt>
      <trkpt lat="45.90518" lon="6.15074">
        <ele>404</ele>
        <time>2012-07-31T18:46:36.000Z</time>
      </trkpt>
      <trkpt lat="45.90516" lon="6.15059">
        <ele>404</ele>
        <time>2012-07-31T18:46:38.000Z</time>
      </trkpt>
      <trkpt lat="45.90513" lon="6.15036">
        <ele>404</ele>
        <time>2012-07-31T18:46:42.000Z</time>
      </trkpt>
      <trkpt lat="45.90513" lon="6.15031">
        <ele>404</ele>
        <time>2012-07-31T18:46:43.000Z</time>
      </trkpt>
      <trkpt lat="45.90508" lon="6.15004">
        <ele>404</ele>
        <time>2012-07-31T18:46:47.000Z</time>
      </trkpt>
      <trkpt lat="45.905" lon="6.14952">
        <ele>404</ele>
        <time>2012-07-31T18:46:53.000Z</time>
      </trkpt>
      <trkpt lat="45.90491" lon="6.1488">
        <ele>404</ele>
        <time>2012-07-31T18:47:02.000Z</time>
      </trkpt>
      <trkpt lat="45.90486" lon="6.14848">
        <ele>404</ele>
        <time>2012-07-31T18:47:06.000Z</time>
      </trkpt>
      <trkpt lat="45.90484" lon="6.14831">
        <ele>404</ele>
        <time>2012-07-31T18:47:08.000Z</time>
      </trkpt>
      <trkpt lat="45.90481" lon="6.14815">
        <ele>404</ele>
        <time>2012-07-31T18:47:10.000Z</time>
      </trkpt>
      <trkpt lat="45.90476" lon="6.14782">
        <ele>404</ele>
        <time>2012-07-31T18:47:14.000Z</time>
      </trkpt>
      <trkpt lat="45.90471" lon="6.14748">
        <ele>404</ele>
        <time>2012-07-31T18:47:19.000Z</time>
      </trkpt>
      <trkpt lat="45.9047" lon="6.14743">
        <ele>404</ele>
        <time>2012-07-31T18:47:20.000Z</time>
      </trkpt>
      <trkpt lat="45.90469" lon="6.14728">
        <ele>404</ele>
        <time>2012-07-31T18:47:23.000Z</time>
      </trkpt>
      <trkpt lat="45.90467" lon="6.14716">
        <ele>404</ele>
        <time>2012-07-31T18:47:25.000Z</time>
      </trkpt>
      <trkpt lat="45.90465" lon="6.147">
        <ele>404</ele>
        <time>2012-07-31T18:47:27.000Z</time>
      </trkpt>
      <trkpt lat="45.9046" lon="6.14666">
        <ele>404</ele>
        <time>2012-07-31T18:47:31.000Z</time>
      </trkpt>
      <trkpt lat="45.9046" lon="6.14659">
        <ele>404</ele>
        <time>2012-07-31T18:47:32.000Z</time>
      </trkpt>
      <trkpt lat="45.90461" lon="6.14574">
        <ele>404</ele>
        <time>2012-07-31T18:47:42.000Z</time>
      </trkpt>
      <trkpt lat="45.90472" lon="6.14498">
        <ele>404</ele>
        <time>2012-07-31T18:47:51.000Z</time>
      </trkpt>
      <trkpt lat="45.90474" lon="6.14489">
        <ele>404</ele>
        <time>2012-07-31T18:47:52.000Z</time>
      </trkpt>
      <trkpt lat="45.90481" lon="6.14456">
        <ele>404</ele>
        <time>2012-07-31T18:47:56.000Z</time>
      </trkpt>
      <trkpt lat="45.90489" lon="6.14429">
        <ele>404</ele>
        <time>2012-07-31T18:47:59.000Z</time>
      </trkpt>
      <trkpt lat="45.90506" lon="6.14355">
        <ele>404</ele>
        <time>2012-07-31T18:48:07.000Z</time>
      </trkpt>
      <trkpt lat="45.90507" lon="6.14307">
        <ele>404</ele>
        <time>2012-07-31T18:48:12.000Z</time>
      </trkpt>
      <trkpt lat="45.90505" lon="6.1427">
        <ele>404</ele>
        <time>2012-07-31T18:48:16.000Z</time>
      </trkpt>
      <trkpt lat="45.90505" lon="6.1426">
        <ele>404</ele>
        <time>2012-07-31T18:48:17.000Z</time>
      </trkpt>
      <trkpt lat="45.90496" lon="6.14214">
        <ele>404</ele>
        <time>2012-07-31T18:48:22.000Z</time>
      </trkpt>
      <trkpt lat="45.90485" lon="6.1417">
        <ele>404</ele>
        <time>2012-07-31T18:48:27.000Z</time>
      </trkpt>
      <trkpt lat="45.90482" lon="6.14162">
        <ele>404</ele>
        <time>2012-07-31T18:48:28.000Z</time>
      </trkpt>
      <trkpt lat="45.90475" lon="6.14133">
        <ele>404</ele>
        <time>2012-07-31T18:48:31.000Z</time>
      </trkpt>
      <trkpt lat="45.90473" lon="6.14124">
        <ele>404</ele>
        <time>2012-07-31T18:48:32.000Z</time>
      </trkpt>
      <trkpt lat="45.90461" lon="6.14079">
        <ele>404</ele>
        <time>2012-07-31T18:48:37.000Z</time>
      </trkpt>
      <trkpt lat="45.90458" lon="6.14053">
        <ele>404</ele>
        <time>2012-07-31T18:48:40.000Z</time>
      </trkpt>
      <trkpt lat="45.90456" lon="6.14045">
        <ele>404</ele>
        <time>2012-07-31T18:48:41.000Z</time>
      </trkpt>
      <trkpt lat="45.90446" lon="6.14011">
        <ele>404</ele>
        <time>2012-07-31T18:48:45.000Z</time>
      </trkpt>
      <trkpt lat="45.90437" lon="6.13976">
        <ele>404</ele>
        <time>2012-07-31T18:48:49.000Z</time>
      </trkpt>
      <trkpt lat="45.90422" lon="6.13917">
        <ele>404</ele>
        <time>2012-07-31T18:48:56.000Z</time>
      </trkpt>
      <trkpt lat="45.90409" lon="6.13889">
        <ele>404</ele>
        <time>2012-07-31T18:49:00.000Z</time>
      </trkpt>
      <trkpt lat="45.90407" lon="6.1388">
        <ele>404</ele>
        <time>2012-07-31T18:49:01.000Z</time>
      </trkpt>
      <trkpt lat="45.90398" lon="6.13845">
        <ele>404</ele>
        <time>2012-07-31T18:49:05.000Z</time>
      </trkpt>
      <trkpt lat="45.90396" lon="6.13837">
        <ele>404</ele>
        <time>2012-07-31T18:49:06.000Z</time>
      </trkpt>
      <trkpt lat="45.90396" lon="6.1382">
        <ele>404</ele>
        <time>2012-07-31T18:49:08.000Z</time>
      </trkpt>
      <trkpt lat="45.90388" lon="6.13788">
        <ele>404</ele>
        <time>2012-07-31T18:49:12.000Z</time>
      </trkpt>
      <trkpt lat="45.90385" lon="6.13778">
        <ele>404</ele>
        <time>2012-07-31T18:49:13.000Z</time>
      </trkpt>
      <trkpt lat="45.90376" lon="6.13744">
        <ele>404</ele>
        <time>2012-07-31T18:49:17.000Z</time>
      </trkpt>
      <trkpt lat="45.90364" lon="6.13699">
        <ele>404</ele>
        <time>2012-07-31T18:49:22.000Z</time>
      </trkpt>
      <trkpt lat="45.90354" lon="6.13657">
        <ele>404</ele>
        <time>2012-07-31T18:49:27.000Z</time>
      </trkpt>
      <trkpt lat="45.90344" lon="6.13627">
        <ele>404</ele>
        <time>2012-07-31T18:49:31.000Z</time>
      </trkpt>
      <trkpt lat="45.90341" lon="6.13621">
        <ele>404</ele>
        <time>2012-07-31T18:49:32.000Z</time>
      </trkpt>
      <trkpt lat="45.90333" lon="6.136">
        <ele>404</ele>
        <time>2012-07-31T18:49:35.000Z</time>
      </trkpt>
      <trkpt lat="45.90322" lon="6.13562">
        <ele>404</ele>
        <time>2012-07-31T18:49:40.000Z</time>
      </trkpt>
      <trkpt lat="45.90318" lon="6.13547">
        <ele>404</ele>
        <time>2012-07-31T18:49:42.000Z</time>
      </trkpt>
      <trkpt lat="45.90317" lon="6.13531">
        <ele>404</ele>
        <time>2012-07-31T18:49:44.000Z</time>
      </trkpt>
      <trkpt lat="45.90316" lon="6.13523">
        <ele>404</ele>
        <time>2012-07-31T18:49:45.000Z</time>
      </trkpt>
      <trkpt lat="45.90311" lon="6.13501">
        <ele>404</ele>
        <time>2012-07-31T18:49:48.000Z</time>
      </trkpt>
      <trkpt lat="45.90297" lon="6.13449">
        <ele>404</ele>
        <time>2012-07-31T18:49:54.000Z</time>
      </trkpt>
      <trkpt lat="45.90292" lon="6.13432">
        <ele>404</ele>
        <time>2012-07-31T18:49:56.000Z</time>
      </trkpt>
      <trkpt lat="45.90286" lon="6.13419">
        <ele>404</ele>
        <time>2012-07-31T18:49:58.000Z</time>
      </trkpt>
      <trkpt lat="45.90279" lon="6.13405">
        <ele>404</ele>
        <time>2012-07-31T18:50:00.000Z</time>
      </trkpt>
      <trkpt lat="45.90275" lon="6.13389">
        <ele>404</ele>
        <time>2012-07-31T18:50:02.000Z</time>
      </trkpt>
      <trkpt lat="45.90269" lon="6.13364">
        <ele>404</ele>
        <time>2012-07-31T18:50:05.000Z</time>
      </trkpt>
      <trkpt lat="45.90264" lon="6.13347">
        <ele>404</ele>
        <time>2012-07-31T18:50:07.000Z</time>
      </trkpt>
      <trkpt lat="45.90256" lon="6.13327">
        <ele>404</ele>
        <time>2012-07-31T18:50:10.000Z</time>
      </trkpt>
      <trkpt lat="45.90254" lon="6.13318">
        <ele>404</ele>
        <time>2012-07-31T18:50:11.000Z</time>
      </trkpt>
      <trkpt lat="45.90251" lon="6.13309">
        <ele>404</ele>
        <time>2012-07-31T18:50:12.000Z</time>
      </trkpt>
      <trkpt lat="45.90247" lon="6.13292">
        <ele>404</ele>
        <time>2012-07-31T18:50:14.000Z</time>
      </trkpt>
      <trkpt lat="45.90234" lon="6.13242">
        <ele>404</ele>
        <time>2012-07-31T18:50:20.000Z</time>
      </trkpt>
      <trkpt lat="45.90225" lon="6.13209">
        <ele>404</ele>
        <time>2012-07-31T18:50:24.000Z</time>
      </trkpt>
      <trkpt lat="45.90219" lon="6.13183">
        <ele>404</ele>
        <time>2012-07-31T18:50:27.000Z</time>
      </trkpt>
      <trkpt lat="45.90201" lon="6.13111">
        <ele>404</ele>
        <time>2012-07-31T18:50:36.000Z</time>
      </trkpt>
      <trkpt lat="45.90192" lon="6.13079">
        <ele>404</ele>
        <time>2012-07-31T18:50:41.000Z</time>
      </trkpt>
      <trkpt lat="45.90183" lon="6.13044">
        <ele>404</ele>
        <time>2012-07-31T18:50:46.000Z</time>
      </trkpt>
      <trkpt lat="45.9018" lon="6.13036">
        <ele>402</ele>
        <time>2012-07-31T18:50:47.000Z</time>
      </trkpt>
      <trkpt lat="45.90169" lon="6.12992">
        <ele>402</ele>
        <time>2012-07-31T18:50:52.000Z</time>
      </trkpt>
      <trkpt lat="45.90156" lon="6.12943">
        <ele>402</ele>
        <time>2012-07-31T18:50:58.000Z</time>
      </trkpt>
      <trkpt lat="45.90147" lon="6.1291">
        <ele>402</ele>
        <time>2012-07-31T18:51:02.000Z</time>
      </trkpt>
      <trkpt lat="45.90134" lon="6.12863">
        <ele>402</ele>
        <time>2012-07-31T18:51:08.000Z</time>
      </trkpt>
      <trkpt lat="45.90128" lon="6.12839">
        <ele>405</ele>
        <time>2012-07-31T18:51:11.000Z</time>
      </trkpt>
      <trkpt lat="45.90126" lon="6.12822">
        <ele>405</ele>
        <time>2012-07-31T18:51:14.000Z</time>
      </trkpt>
      <trkpt lat="45.90133" lon="6.12816">
        <ele>406.20001220703</ele>
        <time>2012-07-31T18:51:17.000Z</time>
      </trkpt>
      <trkpt lat="45.90135" lon="6.12816">
        <ele>406.20001220703</ele>
        <time>2012-07-31T18:51:21.000Z</time>
      </trkpt>
      <trkpt lat="45.90136" lon="6.12817">
        <ele>406.20001220703</ele>
        <time>2012-07-31T18:51:34.000Z</time>
      </trkpt>
      <trkpt lat="45.90142" lon="6.12816">
        <ele>406.20001220703</ele>
        <time>2012-07-31T18:51:38.000Z</time>
      </trkpt>
      <trkpt lat="45.90144" lon="6.12807">
        <ele>406.20001220703</ele>
        <time>2012-07-31T18:51:42.000Z</time>
      </trkpt>
      <trkpt lat="45.90141" lon="6.128">
        <ele>406.20001220703</ele>
        <time>2012-07-31T18:51:45.000Z</time>
      </trkpt>
      <trkpt lat="45.9014" lon="6.12797">
        <ele>406.20001220703</ele>
        <time>2012-07-31T18:51:46.000Z</time>
      </trkpt>
      <trkpt lat="45.90136" lon="6.12789">
        <ele>406.20001220703</ele>
        <time>2012-07-31T18:51:49.000Z</time>
      </trkpt>
      <trkpt lat="45.90133" lon="6.12778">
        <ele>406.20001220703</ele>
        <time>2012-07-31T18:51:51.000Z</time>
      </trkpt>
      <trkpt lat="45.90131" lon="6.12765">
        <ele>406.20001220703</ele>
        <time>2012-07-31T18:51:53.000Z</time>
      </trkpt>
      <trkpt lat="45.90127" lon="6.12755">
        <ele>406.20001220703</ele>
        <time>2012-07-31T18:51:55.000Z</time>
      </trkpt>
      <trkpt lat="45.90125" lon="6.1275">
        <ele>406.20001220703</ele>
        <time>2012-07-31T18:51:56.000Z</time>
      </trkpt>
      <trkpt lat="45.90113" lon="6.12731">
        <ele>406.20001220703</ele>
        <time>2012-07-31T18:52:00.000Z</time>
      </trkpt>
      <trkpt lat="45.90109" lon="6.12718">
        <ele>406.20001220703</ele>
        <time>2012-07-31T18:52:02.000Z</time>
      </trkpt>
      <trkpt lat="45.90108" lon="6.12712">
        <ele>406.20001220703</ele>
        <time>2012-07-31T18:52:03.000Z</time>
      </trkpt>
      <trkpt lat="45.90106" lon="6.12702">
        <ele>406.20001220703</ele>
        <time>2012-07-31T18:52:05.000Z</time>
      </trkpt>
      <trkpt lat="45.90103" lon="6.12685">
        <ele>406.20001220703</ele>
        <time>2012-07-31T18:52:09.000Z</time>
      </trkpt>
      <trkpt lat="45.90102" lon="6.12679">
        <ele>406.20001220703</ele>
        <time>2012-07-31T18:52:10.000Z</time>
      </trkpt>
      <trkpt lat="45.90098" lon="6.12659">
        <ele>406.20001220703</ele>
        <time>2012-07-31T18:52:13.000Z</time>
      </trkpt>
      <trkpt lat="45.90097" lon="6.12652">
        <ele>406.20001220703</ele>
        <time>2012-07-31T18:52:14.000Z</time>
      </trkpt>
      <trkpt lat="45.90094" lon="6.12645">
        <ele>406.20001220703</ele>
        <time>2012-07-31T18:52:15.000Z</time>
      </trkpt>
      <trkpt lat="45.9009" lon="6.12631">
        <ele>406.20001220703</ele>
        <time>2012-07-31T18:52:17.000Z</time>
      </trkpt>
      <trkpt lat="45.90084" lon="6.12613">
        <ele>406.20001220703</ele>
        <time>2012-07-31T18:52:20.000Z</time>
      </trkpt>
      <trkpt lat="45.9008" lon="6.126">
        <ele>406.20001220703</ele>
        <time>2012-07-31T18:52:22.000Z</time>
      </trkpt>
      <trkpt lat="45.90068" lon="6.12566">
        <ele>406.20001220703</ele>
        <time>2012-07-31T18:52:27.000Z</time>
      </trkpt>
      <trkpt lat="45.90057" lon="6.12521">
        <ele>406.20001220703</ele>
        <time>2012-07-31T18:52:33.000Z</time>
      </trkpt>
      <trkpt lat="45.90055" lon="6.12516">
        <ele>406.20001220703</ele>
        <time>2012-07-31T18:52:34.000Z</time>
      </trkpt>
      <trkpt lat="45.90047" lon="6.12498">
        <ele>406.20001220703</ele>
        <time>2012-07-31T18:52:37.000Z</time>
      </trkpt>
      <trkpt lat="45.9004" lon="6.1247">
        <ele>406.20001220703</ele>
        <time>2012-07-31T18:52:41.000Z</time>
      </trkpt>
      <trkpt lat="45.90039" lon="6.12456">
        <ele>406.20001220703</ele>
        <time>2012-07-31T18:52:44.000Z</time>
      </trkpt>
      <trkpt lat="45.9004" lon="6.12449">
        <ele>406.20001220703</ele>
        <time>2012-07-31T18:52:46.000Z</time>
      </trkpt>
      <trkpt lat="45.90038" lon="6.12437">
        <ele>406.20001220703</ele>
        <time>2012-07-31T18:52:48.000Z</time>
      </trkpt>
      <trkpt lat="45.90036" lon="6.1243">
        <ele>403</ele>
        <time>2012-07-31T18:52:49.000Z</time>
      </trkpt>
      <trkpt lat="45.9003" lon="6.12406">
        <ele>406.20001220703</ele>
        <time>2012-07-31T18:52:52.000Z</time>
      </trkpt>
      <trkpt lat="45.90028" lon="6.12398">
        <ele>406.20001220703</ele>
        <time>2012-07-31T18:52:53.000Z</time>
      </trkpt>
      <trkpt lat="45.90017" lon="6.12358">
        <ele>406.20001220703</ele>
        <time>2012-07-31T18:52:58.000Z</time>
      </trkpt>
      <trkpt lat="45.90014" lon="6.12351">
        <ele>406.20001220703</ele>
        <time>2012-07-31T18:52:59.000Z</time>
      </trkpt>
      <trkpt lat="45.90005" lon="6.12321">
        <ele>406.20001220703</ele>
        <time>2012-07-31T18:53:03.000Z</time>
      </trkpt>
      <trkpt lat="45.89991" lon="6.12265">
        <ele>406.20001220703</ele>
        <time>2012-07-31T18:53:10.000Z</time>
      </trkpt>
      <trkpt lat="45.89987" lon="6.12241">
        <ele>406.20001220703</ele>
        <time>2012-07-31T18:53:13.000Z</time>
      </trkpt>
      <trkpt lat="45.89981" lon="6.1222">
        <ele>406.20001220703</ele>
        <time>2012-07-31T18:53:16.000Z</time>
      </trkpt>
      <trkpt lat="45.89974" lon="6.12193">
        <ele>406.20001220703</ele>
        <time>2012-07-31T18:53:20.000Z</time>
      </trkpt>
      <trkpt lat="45.89972" lon="6.12177">
        <ele>406.20001220703</ele>
        <time>2012-07-31T18:53:22.000Z</time>
      </trkpt>
      <trkpt lat="45.89964" lon="6.12155">
        <ele>406.20001220703</ele>
        <time>2012-07-31T18:53:25.000Z</time>
      </trkpt>
      <trkpt lat="45.8996" lon="6.12146">
        <ele>406.20001220703</ele>
        <time>2012-07-31T18:53:26.000Z</time>
      </trkpt>
      <trkpt lat="45.89956" lon="6.12136">
        <ele>406.20001220703</ele>
        <time>2012-07-31T18:53:27.000Z</time>
      </trkpt>
      <trkpt lat="45.89949" lon="6.1211">
        <ele>406.20001220703</ele>
        <time>2012-07-31T18:53:30.000Z</time>
      </trkpt>
      <trkpt lat="45.89938" lon="6.12068">
        <ele>406.20001220703</ele>
        <time>2012-07-31T18:53:35.000Z</time>
      </trkpt>
      <trkpt lat="45.89919" lon="6.11999">
        <ele>406.20001220703</ele>
        <time>2012-07-31T18:53:43.000Z</time>
      </trkpt>
      <trkpt lat="45.89907" lon="6.11958">
        <ele>406.20001220703</ele>
        <time>2012-07-31T18:53:48.000Z</time>
      </trkpt>
      <trkpt lat="45.8989" lon="6.11893">
        <ele>406.20001220703</ele>
        <time>2012-07-31T18:53:55.000Z</time>
      </trkpt>
      <trkpt lat="45.89884" lon="6.11866">
        <ele>406.20001220703</ele>
        <time>2012-07-31T18:53:58.000Z</time>
      </trkpt>
      <trkpt lat="45.89885" lon="6.11847">
        <ele>406.20001220703</ele>
        <time>2012-07-31T18:54:00.000Z</time>
      </trkpt>
      <trkpt lat="45.89886" lon="6.11815">
        <ele>406.20001220703</ele>
        <time>2012-07-31T18:54:04.000Z</time>
      </trkpt>
      <trkpt lat="45.89874" lon="6.11798">
        <ele>406.20001220703</ele>
        <time>2012-07-31T18:54:07.000Z</time>
      </trkpt>
      <trkpt lat="45.8987" lon="6.11792">
        <ele>406.20001220703</ele>
        <time>2012-07-31T18:54:08.000Z</time>
      </trkpt>
      <trkpt lat="45.89859" lon="6.11772">
        <ele>406.20001220703</ele>
        <time>2012-07-31T18:54:11.000Z</time>
      </trkpt>
      <trkpt lat="45.89851" lon="6.11741">
        <ele>406.20001220703</ele>
        <time>2012-07-31T18:54:15.000Z</time>
      </trkpt>
      <trkpt lat="45.89843" lon="6.11707">
        <ele>406.20001220703</ele>
        <time>2012-07-31T18:54:19.000Z</time>
      </trkpt>
      <trkpt lat="45.89841" lon="6.11698">
        <ele>406.20001220703</ele>
        <time>2012-07-31T18:54:20.000Z</time>
      </trkpt>
      <trkpt lat="45.89829" lon="6.11658">
        <ele>406.20001220703</ele>
        <time>2012-07-31T18:54:25.000Z</time>
      </trkpt>
      <trkpt lat="45.8982" lon="6.11618">
        <ele>406.20001220703</ele>
        <time>2012-07-31T18:54:30.000Z</time>
      </trkpt>
      <trkpt lat="45.89811" lon="6.11588">
        <ele>406.20001220703</ele>
        <time>2012-07-31T18:54:34.000Z</time>
      </trkpt>
      <trkpt lat="45.89808" lon="6.1158">
        <ele>406.20001220703</ele>
        <time>2012-07-31T18:54:35.000Z</time>
      </trkpt>
      <trkpt lat="45.8979" lon="6.11514">
        <ele>406.20001220703</ele>
        <time>2012-07-31T18:54:43.000Z</time>
      </trkpt>
      <trkpt lat="45.89775" lon="6.11467">
        <ele>406.20001220703</ele>
        <time>2012-07-31T18:54:49.000Z</time>
      </trkpt>
      <trkpt lat="45.89771" lon="6.11452">
        <ele>406.20001220703</ele>
        <time>2012-07-31T18:54:51.000Z</time>
      </trkpt>
      <trkpt lat="45.89768" lon="6.11439">
        <ele>406.20001220703</ele>
        <time>2012-07-31T18:54:53.000Z</time>
      </trkpt>
      <trkpt lat="45.89767" lon="6.11434">
        <ele>406.20001220703</ele>
        <time>2012-07-31T18:54:54.000Z</time>
      </trkpt>
      <trkpt lat="45.8976" lon="6.11406">
        <ele>406.20001220703</ele>
        <time>2012-07-31T18:54:59.000Z</time>
      </trkpt>
      <trkpt lat="45.89757" lon="6.11391">
        <ele>397.20001220703</ele>
        <time>2012-07-31T18:55:01.000Z</time>
      </trkpt>
      <trkpt lat="45.89752" lon="6.11368">
        <ele>397.20001220703</ele>
        <time>2012-07-31T18:55:04.000Z</time>
      </trkpt>
      <trkpt lat="45.89743" lon="6.11336">
        <ele>397.20001220703</ele>
        <time>2012-07-31T18:55:08.000Z</time>
      </trkpt>
      <trkpt lat="45.89734" lon="6.11312">
        <ele>397.20001220703</ele>
        <time>2012-07-31T18:55:11.000Z</time>
      </trkpt>
      <trkpt lat="45.89717" lon="6.11272">
        <ele>397.20001220703</ele>
        <time>2012-07-31T18:55:17.000Z</time>
      </trkpt>
      <trkpt lat="45.89684" lon="6.11217">
        <ele>397.20001220703</ele>
        <time>2012-07-31T18:55:27.000Z</time>
      </trkpt>
      <trkpt lat="45.89681" lon="6.11213">
        <ele>397.20001220703</ele>
        <time>2012-07-31T18:55:28.000Z</time>
      </trkpt>
      <trkpt lat="45.89667" lon="6.11199">
        <ele>397.20001220703</ele>
        <time>2012-07-31T18:55:32.000Z</time>
      </trkpt>
      <trkpt lat="45.89644" lon="6.11174">
        <ele>399.20001220703</ele>
        <time>2012-07-31T18:55:39.000Z</time>
      </trkpt>
      <trkpt lat="45.89632" lon="6.11162">
        <ele>399.20001220703</ele>
        <time>2012-07-31T18:55:43.000Z</time>
      </trkpt>
      <trkpt lat="45.89626" lon="6.11157">
        <ele>400.20001220703</ele>
        <time>2012-07-31T18:55:45.000Z</time>
      </trkpt>
      <trkpt lat="45.89614" lon="6.11144">
        <ele>401.39999389648</ele>
        <time>2012-07-31T18:55:49.000Z</time>
      </trkpt>
      <trkpt lat="45.89612" lon="6.11139">
        <ele>401.39999389648</ele>
        <time>2012-07-31T18:55:50.000Z</time>
      </trkpt>
      <trkpt lat="45.89607" lon="6.11123">
        <ele>401.39999389648</ele>
        <time>2012-07-31T18:55:55.000Z</time>
      </trkpt>
      <trkpt lat="45.89606" lon="6.11119">
        <ele>401.39999389648</ele>
        <time>2012-07-31T18:55:59.000Z</time>
      </trkpt>
      <trkpt lat="45.89605" lon="6.11115">
        <ele>401.39999389648</ele>
        <time>2012-07-31T18:56:01.000Z</time>
      </trkpt>
      <trkpt lat="45.89601" lon="6.11112">
        <ele>401.39999389648</ele>
        <time>2012-07-31T18:56:03.000Z</time>
      </trkpt>
      <trkpt lat="45.89586" lon="6.11105">
        <ele>401.39999389648</ele>
        <time>2012-07-31T18:56:09.000Z</time>
      </trkpt>
      <trkpt lat="45.8957" lon="6.11102">
        <ele>398.39999389648</ele>
        <time>2012-07-31T18:56:14.000Z</time>
      </trkpt>
      <trkpt lat="45.89564" lon="6.11098">
        <ele>403.79998779297</ele>
        <time>2012-07-31T18:56:16.000Z</time>
      </trkpt>
      <trkpt lat="45.89553" lon="6.11088">
        <ele>404.79998779297</ele>
        <time>2012-07-31T18:56:20.000Z</time>
      </trkpt>
      <trkpt lat="45.89544" lon="6.11078">
        <ele>404.79998779297</ele>
        <time>2012-07-31T18:56:24.000Z</time>
      </trkpt>
      <trkpt lat="45.89538" lon="6.11077">
        <ele>405.79998779297</ele>
        <time>2012-07-31T18:56:28.000Z</time>
      </trkpt>
      <trkpt lat="45.89529" lon="6.11082">
        <ele>405.79998779297</ele>
        <time>2012-07-31T18:56:31.000Z</time>
      </trkpt>
      <trkpt lat="45.89522" lon="6.11085">
        <ele>405.79998779297</ele>
        <time>2012-07-31T18:56:33.000Z</time>
      </trkpt>
      <trkpt lat="45.89518" lon="6.11085">
        <ele>402.60000610352</ele>
        <time>2012-07-31T18:56:34.000Z</time>
      </trkpt>
      <trkpt lat="45.89511" lon="6.11087">
        <ele>406.60000610352</ele>
        <time>2012-07-31T18:56:36.000Z</time>
      </trkpt>
      <trkpt lat="45.89508" lon="6.11087">
        <ele>400.79998779297</ele>
        <time>2012-07-31T18:56:37.000Z</time>
      </trkpt>
      <trkpt lat="45.89504" lon="6.11089">
        <ele>399.39999389648</ele>
        <time>2012-07-31T18:56:38.000Z</time>
      </trkpt>
      <trkpt lat="45.89501" lon="6.11089">
        <ele>399.39999389648</ele>
        <time>2012-07-31T18:56:39.000Z</time>
      </trkpt>
      <trkpt lat="45.8947" lon="6.11097">
        <ele>401.39999389648</ele>
        <time>2012-07-31T18:56:48.000Z</time>
      </trkpt>
      <trkpt lat="45.89463" lon="6.11099">
        <ele>401.39999389648</ele>
        <time>2012-07-31T18:56:50.000Z</time>
      </trkpt>
      <trkpt lat="45.89452" lon="6.11101">
        <ele>402.39999389648</ele>
        <time>2012-07-31T18:56:53.000Z</time>
      </trkpt>
      <trkpt lat="45.89437" lon="6.11105">
        <ele>403.60000610352</ele>
        <time>2012-07-31T18:56:57.000Z</time>
      </trkpt>
      <trkpt lat="45.89426" lon="6.11108">
        <ele>403.60000610352</ele>
        <time>2012-07-31T18:57:00.000Z</time>
      </trkpt>
      <trkpt lat="45.89423" lon="6.11109">
        <ele>404.79998779297</ele>
        <time>2012-07-31T18:57:01.000Z</time>
      </trkpt>
      <trkpt lat="45.89408" lon="6.11113">
        <ele>406</ele>
        <time>2012-07-31T18:57:06.000Z</time>
      </trkpt>
      <trkpt lat="45.89403" lon="6.11114">
        <ele>406</ele>
        <time>2012-07-31T18:57:08.000Z</time>
      </trkpt>
      <trkpt lat="45.89394" lon="6.11116">
        <ele>407.20001220703</ele>
        <time>2012-07-31T18:57:11.000Z</time>
      </trkpt>
      <trkpt lat="45.89385" lon="6.11117">
        <ele>407.20001220703</ele>
        <time>2012-07-31T18:57:15.000Z</time>
      </trkpt>
      <trkpt lat="45.8938" lon="6.11119">
        <ele>408.20001220703</ele>
        <time>2012-07-31T18:57:17.000Z</time>
      </trkpt>
      <trkpt lat="45.89373" lon="6.11118">
        <ele>408.20001220703</ele>
        <time>2012-07-31T18:57:20.000Z</time>
      </trkpt>
      <trkpt lat="45.89358" lon="6.11117">
        <ele>408.20001220703</ele>
        <time>2012-07-31T18:57:26.000Z</time>
      </trkpt>
      <trkpt lat="45.89344" lon="6.11115">
        <ele>408.20001220703</ele>
        <time>2012-07-31T18:57:32.000Z</time>
      </trkpt>
      <trkpt lat="45.89326" lon="6.1111">
        <ele>408.20001220703</ele>
        <time>2012-07-31T18:57:40.000Z</time>
      </trkpt>
      <trkpt lat="45.89321" lon="6.11108">
        <ele>404.20001220703</ele>
        <time>2012-07-31T18:57:42.000Z</time>
      </trkpt>
      <trkpt lat="45.89319" lon="6.11107">
        <ele>410.20001220703</ele>
        <time>2012-07-31T18:57:43.000Z</time>
      </trkpt>
      <trkpt lat="45.89316" lon="6.11106">
        <ele>406.60000610352</ele>
        <time>2012-07-31T18:57:44.000Z</time>
      </trkpt>
      <trkpt lat="45.8931" lon="6.11102">
        <ele>400.79998779297</ele>
        <time>2012-07-31T18:57:46.000Z</time>
      </trkpt>
      <trkpt lat="45.89293" lon="6.11092">
        <ele>400.79998779297</ele>
        <time>2012-07-31T18:57:51.000Z</time>
      </trkpt>
      <trkpt lat="45.89279" lon="6.11083">
        <ele>403</ele>
        <time>2012-07-31T18:57:55.000Z</time>
      </trkpt>
      <trkpt lat="45.89271" lon="6.11077">
        <ele>403</ele>
        <time>2012-07-31T18:57:58.000Z</time>
      </trkpt>
      <trkpt lat="45.89265" lon="6.11062">
        <ele>404</ele>
        <time>2012-07-31T18:58:02.000Z</time>
      </trkpt>
      <trkpt lat="45.89263" lon="6.1106">
        <ele>404</ele>
        <time>2012-07-31T18:58:03.000Z</time>
      </trkpt>
      <trkpt lat="45.89261" lon="6.11053">
        <ele>405</ele>
        <time>2012-07-31T18:58:05.000Z</time>
      </trkpt>
      <trkpt lat="45.89262" lon="6.11046">
        <ele>405</ele>
        <time>2012-07-31T18:58:07.000Z</time>
      </trkpt>
      <trkpt lat="45.89271" lon="6.11026">
        <ele>405</ele>
        <time>2012-07-31T18:58:13.000Z</time>
      </trkpt>
      <trkpt lat="45.89277" lon="6.11018">
        <ele>406</ele>
        <time>2012-07-31T18:58:16.000Z</time>
      </trkpt>
      <trkpt lat="45.89286" lon="6.11009">
        <ele>406</ele>
        <time>2012-07-31T18:58:20.000Z</time>
      </trkpt>
      <trkpt lat="45.89289" lon="6.11006">
        <ele>407</ele>
        <time>2012-07-31T18:58:21.000Z</time>
      </trkpt>
      <trkpt lat="45.89298" lon="6.10996">
        <ele>408</ele>
        <time>2012-07-31T18:58:25.000Z</time>
      </trkpt>
      <trkpt lat="45.89308" lon="6.10987">
        <ele>408</ele>
        <time>2012-07-31T18:58:29.000Z</time>
      </trkpt>
      <trkpt lat="45.89311" lon="6.10985">
        <ele>409.20001220703</ele>
        <time>2012-07-31T18:58:30.000Z</time>
      </trkpt>
      <trkpt lat="45.89325" lon="6.10971">
        <ele>410.20001220703</ele>
        <time>2012-07-31T18:58:36.000Z</time>
      </trkpt>
      <trkpt lat="45.89329" lon="6.10967">
        <ele>410.20001220703</ele>
        <time>2012-07-31T18:58:38.000Z</time>
      </trkpt>
      <trkpt lat="45.89336" lon="6.1096">
        <ele>411.20001220703</ele>
        <time>2012-07-31T18:58:41.000Z</time>
      </trkpt>
      <trkpt lat="45.89352" lon="6.10946">
        <ele>412.20001220703</ele>
        <time>2012-07-31T18:58:48.000Z</time>
      </trkpt>
      <trkpt lat="45.89358" lon="6.1094">
        <ele>413.20001220703</ele>
        <time>2012-07-31T18:58:51.000Z</time>
      </trkpt>
      <trkpt lat="45.89369" lon="6.10929">
        <ele>413.20001220703</ele>
        <time>2012-07-31T18:58:56.000Z</time>
      </trkpt>
      <trkpt lat="45.89385" lon="6.1091">
        <ele>413.20001220703</ele>
        <time>2012-07-31T18:59:04.000Z</time>
      </trkpt>
      <trkpt lat="45.894" lon="6.10888">
        <ele>413.20001220703</ele>
        <time>2012-07-31T18:59:12.000Z</time>
      </trkpt>
      <trkpt lat="45.89402" lon="6.10884">
        <ele>415.20001220703</ele>
        <time>2012-07-31T18:59:13.000Z</time>
      </trkpt>
      <trkpt lat="45.89411" lon="6.10865">
        <ele>416.20001220703</ele>
        <time>2012-07-31T18:59:19.000Z</time>
      </trkpt>
      <trkpt lat="45.89414" lon="6.10858">
        <ele>416.20001220703</ele>
        <time>2012-07-31T18:59:21.000Z</time>
      </trkpt>
      <trkpt lat="45.8942" lon="6.1084">
        <ele>417.20001220703</ele>
        <time>2012-07-31T18:59:26.000Z</time>
      </trkpt>
      <trkpt lat="45.89422" lon="6.10833">
        <ele>417.20001220703</ele>
        <time>2012-07-31T18:59:28.000Z</time>
      </trkpt>
      <trkpt lat="45.89426" lon="6.10813">
        <ele>418.20001220703</ele>
        <time>2012-07-31T18:59:33.000Z</time>
      </trkpt>
      <trkpt lat="45.89428" lon="6.10804">
        <ele>418.20001220703</ele>
        <time>2012-07-31T18:59:35.000Z</time>
      </trkpt>
      <trkpt lat="45.8943" lon="6.10772">
        <ele>419.39999389648</ele>
        <time>2012-07-31T18:59:43.000Z</time>
      </trkpt>
      <trkpt lat="45.89427" lon="6.10729">
        <ele>420.39999389648</ele>
        <time>2012-07-31T18:59:53.000Z</time>
      </trkpt>
      <trkpt lat="45.89421" lon="6.10689">
        <ele>421.39999389648</ele>
        <time>2012-07-31T19:00:02.000Z</time>
      </trkpt>
      <trkpt lat="45.89415" lon="6.10649">
        <ele>422.60000610352</ele>
        <time>2012-07-31T19:00:11.000Z</time>
      </trkpt>
      <trkpt lat="45.89414" lon="6.10645">
        <ele>422.60000610352</ele>
        <time>2012-07-31T19:00:12.000Z</time>
      </trkpt>
      <trkpt lat="45.89411" lon="6.10624">
        <ele>423.60000610352</ele>
        <time>2012-07-31T19:00:17.000Z</time>
      </trkpt>
      <trkpt lat="45.89408" lon="6.10608">
        <ele>423.60000610352</ele>
        <time>2012-07-31T19:00:21.000Z</time>
      </trkpt>
      <trkpt lat="45.89406" lon="6.10596">
        <ele>424.60000610352</ele>
        <time>2012-07-31T19:00:24.000Z</time>
      </trkpt>
      <trkpt lat="45.89403" lon="6.10576">
        <ele>425.79998779297</ele>
        <time>2012-07-31T19:00:29.000Z</time>
      </trkpt>
      <trkpt lat="45.89402" lon="6.10568">
        <ele>425.79998779297</ele>
        <time>2012-07-31T19:00:31.000Z</time>
      </trkpt>
      <trkpt lat="45.89399" lon="6.10548">
        <ele>426.79998779297</ele>
        <time>2012-07-31T19:00:36.000Z</time>
      </trkpt>
      <trkpt lat="45.89397" lon="6.10537">
        <ele>426.79998779297</ele>
        <time>2012-07-31T19:00:39.000Z</time>
      </trkpt>
      <trkpt lat="45.89395" lon="6.10524">
        <ele>427.79998779297</ele>
        <time>2012-07-31T19:00:42.000Z</time>
      </trkpt>
      <trkpt lat="45.8939" lon="6.10499">
        <ele>427.79998779297</ele>
        <time>2012-07-31T19:00:49.000Z</time>
      </trkpt>
      <trkpt lat="45.89389" lon="6.10494">
        <ele>421.39999389648</ele>
        <time>2012-07-31T19:00:50.000Z</time>
      </trkpt>
      <trkpt lat="45.89385" lon="6.10468">
        <ele>421.39999389648</ele>
        <time>2012-07-31T19:00:56.000Z</time>
      </trkpt>
      <trkpt lat="45.8938" lon="6.10438">
        <ele>423.39999389648</ele>
        <time>2012-07-31T19:01:04.000Z</time>
      </trkpt>
      <trkpt lat="45.8938" lon="6.10434">
        <ele>423.39999389648</ele>
        <time>2012-07-31T19:01:05.000Z</time>
      </trkpt>
      <trkpt lat="45.89376" lon="6.10411">
        <ele>424.39999389648</ele>
        <time>2012-07-31T19:01:11.000Z</time>
      </trkpt>
      <trkpt lat="45.89373" lon="6.10399">
        <ele>425.39999389648</ele>
        <time>2012-07-31T19:01:14.000Z</time>
      </trkpt>
      <trkpt lat="45.8937" lon="6.10381">
        <ele>426.60000610352</ele>
        <time>2012-07-31T19:01:18.000Z</time>
      </trkpt>
      <trkpt lat="45.89368" lon="6.10368">
        <ele>426.60000610352</ele>
        <time>2012-07-31T19:01:21.000Z</time>
      </trkpt>
      <trkpt lat="45.89367" lon="6.10363">
        <ele>427.60000610352</ele>
        <time>2012-07-31T19:01:22.000Z</time>
      </trkpt>
      <trkpt lat="45.89363" lon="6.10342">
        <ele>428.79998779297</ele>
        <time>2012-07-31T19:01:26.000Z</time>
      </trkpt>
      <trkpt lat="45.89361" lon="6.10328">
        <ele>429.79998779297</ele>
        <time>2012-07-31T19:01:29.000Z</time>
      </trkpt>
      <trkpt lat="45.89359" lon="6.10302">
        <ele>430.79998779297</ele>
        <time>2012-07-31T19:01:34.000Z</time>
      </trkpt>
      <trkpt lat="45.89359" lon="6.1029">
        <ele>430.79998779297</ele>
        <time>2012-07-31T19:01:36.000Z</time>
      </trkpt>
      <trkpt lat="45.89361" lon="6.10248">
        <ele>430.79998779297</ele>
        <time>2012-07-31T19:01:44.000Z</time>
      </trkpt>
      <trkpt lat="45.89364" lon="6.10213">
        <ele>430.79998779297</ele>
        <time>2012-07-31T19:01:51.000Z</time>
      </trkpt>
      <trkpt lat="45.89365" lon="6.10194">
        <ele>433</ele>
        <time>2012-07-31T19:01:55.000Z</time>
      </trkpt>
      <trkpt lat="45.89365" lon="6.10185">
        <ele>433</ele>
        <time>2012-07-31T19:01:57.000Z</time>
      </trkpt>
      <trkpt lat="45.89368" lon="6.10167">
        <ele>433</ele>
        <time>2012-07-31T19:02:02.000Z</time>
      </trkpt>
      <trkpt lat="45.89369" lon="6.10152">
        <ele>434</ele>
        <time>2012-07-31T19:02:05.000Z</time>
      </trkpt>
      <trkpt lat="45.89367" lon="6.10147">
        <ele>434</ele>
        <time>2012-07-31T19:02:06.000Z</time>
      </trkpt>
      <trkpt lat="45.89362" lon="6.10141">
        <ele>434</ele>
        <time>2012-07-31T19:02:08.000Z</time>
      </trkpt>
      <trkpt lat="45.89359" lon="6.10139">
        <ele>434</ele>
        <time>2012-07-31T19:02:09.000Z</time>
      </trkpt>
      <trkpt lat="45.89344" lon="6.10144">
        <ele>434</ele>
        <time>2012-07-31T19:02:13.000Z</time>
      </trkpt>
      <trkpt lat="45.89326" lon="6.10155">
        <ele>434</ele>
        <time>2012-07-31T19:02:18.000Z</time>
      </trkpt>
      <trkpt lat="45.893" lon="6.10156">
        <ele>434</ele>
        <time>2012-07-31T19:02:24.000Z</time>
      </trkpt>
      <trkpt lat="45.89283" lon="6.10154">
        <ele>434</ele>
        <time>2012-07-31T19:02:28.000Z</time>
      </trkpt>
      <trkpt lat="45.89273" lon="6.10153">
        <ele>434</ele>
        <time>2012-07-31T19:02:30.000Z</time>
      </trkpt>
      <trkpt lat="45.89263" lon="6.10152">
        <ele>435</ele>
        <time>2012-07-31T19:02:32.000Z</time>
      </trkpt>
      <trkpt lat="45.89243" lon="6.1015">
        <ele>435</ele>
        <time>2012-07-31T19:02:37.000Z</time>
      </trkpt>
      <trkpt lat="45.89214" lon="6.10148">
        <ele>436</ele>
        <time>2012-07-31T19:02:44.000Z</time>
      </trkpt>
      <trkpt lat="45.8921" lon="6.10148">
        <ele>436</ele>
        <time>2012-07-31T19:02:45.000Z</time>
      </trkpt>
      <trkpt lat="45.89189" lon="6.10146">
        <ele>437</ele>
        <time>2012-07-31T19:02:50.000Z</time>
      </trkpt>
      <trkpt lat="45.89185" lon="6.10146">
        <ele>433</ele>
        <time>2012-07-31T19:02:51.000Z</time>
      </trkpt>
      <trkpt lat="45.89178" lon="6.10144">
        <ele>438</ele>
        <time>2012-07-31T19:02:53.000Z</time>
      </trkpt>
      <trkpt lat="45.89174" lon="6.10144">
        <ele>438</ele>
        <time>2012-07-31T19:02:54.000Z</time>
      </trkpt>
      <trkpt lat="45.89169" lon="6.10144">
        <ele>432.20001220703</ele>
        <time>2012-07-31T19:02:55.000Z</time>
      </trkpt>
      <trkpt lat="45.89152" lon="6.10142">
        <ele>432.20001220703</ele>
        <time>2012-07-31T19:02:59.000Z</time>
      </trkpt>
      <trkpt lat="45.89119" lon="6.1014">
        <ele>432.20001220703</ele>
        <time>2012-07-31T19:03:07.000Z</time>
      </trkpt>
      <trkpt lat="45.89115" lon="6.1014">
        <ele>434.39999389648</ele>
        <time>2012-07-31T19:03:08.000Z</time>
      </trkpt>
      <trkpt lat="45.89085" lon="6.10139">
        <ele>435.39999389648</ele>
        <time>2012-07-31T19:03:15.000Z</time>
      </trkpt>
      <trkpt lat="45.8907" lon="6.10138">
        <ele>436.60000610352</ele>
        <time>2012-07-31T19:03:19.000Z</time>
      </trkpt>
      <trkpt lat="45.89058" lon="6.10137">
        <ele>438</ele>
        <time>2012-07-31T19:03:22.000Z</time>
      </trkpt>
      <trkpt lat="45.89038" lon="6.10136">
        <ele>439</ele>
        <time>2012-07-31T19:03:27.000Z</time>
      </trkpt>
      <trkpt lat="45.89025" lon="6.10135">
        <ele>439</ele>
        <time>2012-07-31T19:03:30.000Z</time>
      </trkpt>
      <trkpt lat="45.89012" lon="6.10135">
        <ele>440.20001220703</ele>
        <time>2012-07-31T19:03:33.000Z</time>
      </trkpt>
      <trkpt lat="45.89003" lon="6.10135">
        <ele>440.20001220703</ele>
        <time>2012-07-31T19:03:35.000Z</time>
      </trkpt>
      <trkpt lat="45.88994" lon="6.10134">
        <ele>440.20001220703</ele>
        <time>2012-07-31T19:03:37.000Z</time>
      </trkpt>
      <trkpt lat="45.8899" lon="6.10133">
        <ele>440.20001220703</ele>
        <time>2012-07-31T19:03:38.000Z</time>
      </trkpt>
      <trkpt lat="45.88959" lon="6.10132">
        <ele>440.20001220703</ele>
        <time>2012-07-31T19:03:45.000Z</time>
      </trkpt>
      <trkpt lat="45.88955" lon="6.10132">
        <ele>441.20001220703</ele>
        <time>2012-07-31T19:03:46.000Z</time>
      </trkpt>
      <trkpt lat="45.88916" lon="6.10127">
        <ele>441.20001220703</ele>
        <time>2012-07-31T19:03:55.000Z</time>
      </trkpt>
      <trkpt lat="45.88912" lon="6.10125">
        <ele>441.20001220703</ele>
        <time>2012-07-31T19:03:56.000Z</time>
      </trkpt>
      <trkpt lat="45.88902" lon="6.10114">
        <ele>441.20001220703</ele>
        <time>2012-07-31T19:03:59.000Z</time>
      </trkpt>
      <trkpt lat="45.88899" lon="6.10109">
        <ele>441.20001220703</ele>
        <time>2012-07-31T19:04:00.000Z</time>
      </trkpt>
      <trkpt lat="45.88881" lon="6.10082">
        <ele>441.20001220703</ele>
        <time>2012-07-31T19:04:06.000Z</time>
      </trkpt>
      <trkpt lat="45.88859" lon="6.10047">
        <ele>441.20001220703</ele>
        <time>2012-07-31T19:04:13.000Z</time>
      </trkpt>
      <trkpt lat="45.8884" lon="6.10015">
        <ele>441.20001220703</ele>
        <time>2012-07-31T19:04:19.000Z</time>
      </trkpt>
      <trkpt lat="45.8881" lon="6.09969">
        <ele>441.20001220703</ele>
        <time>2012-07-31T19:04:28.000Z</time>
      </trkpt>
      <trkpt lat="45.88793" lon="6.09962">
        <ele>441.20001220703</ele>
        <time>2012-07-31T19:04:32.000Z</time>
      </trkpt>
      <trkpt lat="45.88788" lon="6.0996">
        <ele>441.20001220703</ele>
        <time>2012-07-31T19:04:33.000Z</time>
      </trkpt>
      <trkpt lat="45.88773" lon="6.09945">
        <ele>441.20001220703</ele>
        <time>2012-07-31T19:04:37.000Z</time>
      </trkpt>
      <trkpt lat="45.88769" lon="6.09941">
        <ele>441.20001220703</ele>
        <time>2012-07-31T19:04:38.000Z</time>
      </trkpt>
      <trkpt lat="45.88755" lon="6.09936">
        <ele>441.20001220703</ele>
        <time>2012-07-31T19:04:41.000Z</time>
      </trkpt>
      <trkpt lat="45.88735" lon="6.0993">
        <ele>441.20001220703</ele>
        <time>2012-07-31T19:04:45.000Z</time>
      </trkpt>
      <trkpt lat="45.88728" lon="6.09922">
        <ele>441.20001220703</ele>
        <time>2012-07-31T19:04:47.000Z</time>
      </trkpt>
      <trkpt lat="45.88724" lon="6.09917">
        <ele>443.39999389648</ele>
        <time>2012-07-31T19:04:48.000Z</time>
      </trkpt>
      <trkpt lat="45.88721" lon="6.09913">
        <ele>443.39999389648</ele>
        <time>2012-07-31T19:04:49.000Z</time>
      </trkpt>
      <trkpt lat="45.88715" lon="6.09905">
        <ele>444.39999389648</ele>
        <time>2012-07-31T19:04:51.000Z</time>
      </trkpt>
      <trkpt lat="45.887" lon="6.09885">
        <ele>445.39999389648</ele>
        <time>2012-07-31T19:04:56.000Z</time>
      </trkpt>
      <trkpt lat="45.88698" lon="6.09881">
        <ele>445.39999389648</ele>
        <time>2012-07-31T19:04:57.000Z</time>
      </trkpt>
      <trkpt lat="45.88689" lon="6.09865">
        <ele>446.39999389648</ele>
        <time>2012-07-31T19:05:01.000Z</time>
      </trkpt>
      <trkpt lat="45.88683" lon="6.09858">
        <ele>446.39999389648</ele>
        <time>2012-07-31T19:05:03.000Z</time>
      </trkpt>
      <trkpt lat="45.8868" lon="6.09853">
        <ele>446.39999389648</ele>
        <time>2012-07-31T19:05:04.000Z</time>
      </trkpt>
      <trkpt lat="45.8867" lon="6.09831">
        <ele>446.39999389648</ele>
        <time>2012-07-31T19:05:08.000Z</time>
      </trkpt>
      <trkpt lat="45.88663" lon="6.09814">
        <ele>447.60000610352</ele>
        <time>2012-07-31T19:05:11.000Z</time>
      </trkpt>
      <trkpt lat="45.8865" lon="6.0979">
        <ele>447.60000610352</ele>
        <time>2012-07-31T19:05:16.000Z</time>
      </trkpt>
      <trkpt lat="45.88645" lon="6.0978">
        <ele>448.60000610352</ele>
        <time>2012-07-31T19:05:18.000Z</time>
      </trkpt>
      <trkpt lat="45.88634" lon="6.09759">
        <ele>448.60000610352</ele>
        <time>2012-07-31T19:05:22.000Z</time>
      </trkpt>
      <trkpt lat="45.88631" lon="6.09752">
        <ele>448.60000610352</ele>
        <time>2012-07-31T19:05:23.000Z</time>
      </trkpt>
      <trkpt lat="45.88624" lon="6.09735">
        <ele>448.60000610352</ele>
        <time>2012-07-31T19:05:26.000Z</time>
      </trkpt>
      <trkpt lat="45.88619" lon="6.09725">
        <ele>449.60000610352</ele>
        <time>2012-07-31T19:05:28.000Z</time>
      </trkpt>
      <trkpt lat="45.88604" lon="6.09695">
        <ele>450.79998779297</ele>
        <time>2012-07-31T19:05:34.000Z</time>
      </trkpt>
      <trkpt lat="45.88601" lon="6.09689">
        <ele>450.79998779297</ele>
        <time>2012-07-31T19:05:35.000Z</time>
      </trkpt>
      <trkpt lat="45.88584" lon="6.09657">
        <ele>450.79998779297</ele>
        <time>2012-07-31T19:05:42.000Z</time>
      </trkpt>
      <trkpt lat="45.88582" lon="6.09652">
        <ele>451.79998779297</ele>
        <time>2012-07-31T19:05:43.000Z</time>
      </trkpt>
      <trkpt lat="45.88568" lon="6.09627">
        <ele>451.79998779297</ele>
        <time>2012-07-31T19:05:49.000Z</time>
      </trkpt>
      <trkpt lat="45.88555" lon="6.09605">
        <ele>451.79998779297</ele>
        <time>2012-07-31T19:05:54.000Z</time>
      </trkpt>
      <trkpt lat="45.88551" lon="6.09595">
        <ele>452.79998779297</ele>
        <time>2012-07-31T19:05:56.000Z</time>
      </trkpt>
      <trkpt lat="45.88543" lon="6.09581">
        <ele>453.79998779297</ele>
        <time>2012-07-31T19:05:59.000Z</time>
      </trkpt>
      <trkpt lat="45.88538" lon="6.09572">
        <ele>453.79998779297</ele>
        <time>2012-07-31T19:06:01.000Z</time>
      </trkpt>
      <trkpt lat="45.88531" lon="6.09562">
        <ele>455</ele>
        <time>2012-07-31T19:06:04.000Z</time>
      </trkpt>
      <trkpt lat="45.88522" lon="6.09547">
        <ele>455</ele>
        <time>2012-07-31T19:06:08.000Z</time>
      </trkpt>
      <trkpt lat="45.88512" lon="6.09533">
        <ele>456</ele>
        <time>2012-07-31T19:06:12.000Z</time>
      </trkpt>
      <trkpt lat="45.88506" lon="6.09522">
        <ele>456</ele>
        <time>2012-07-31T19:06:15.000Z</time>
      </trkpt>
      <trkpt lat="45.88492" lon="6.09501">
        <ele>457</ele>
        <time>2012-07-31T19:06:21.000Z</time>
      </trkpt>
      <trkpt lat="45.8849" lon="6.09497">
        <ele>457</ele>
        <time>2012-07-31T19:06:22.000Z</time>
      </trkpt>
      <trkpt lat="45.88475" lon="6.09475">
        <ele>458</ele>
        <time>2012-07-31T19:06:28.000Z</time>
      </trkpt>
      <trkpt lat="45.88473" lon="6.09471">
        <ele>458</ele>
        <time>2012-07-31T19:06:29.000Z</time>
      </trkpt>
      <trkpt lat="45.88456" lon="6.09444">
        <ele>459</ele>
        <time>2012-07-31T19:06:36.000Z</time>
      </trkpt>
      <trkpt lat="45.88434" lon="6.09407">
        <ele>460</ele>
        <time>2012-07-31T19:06:45.000Z</time>
      </trkpt>
      <trkpt lat="45.88432" lon="6.09403">
        <ele>460</ele>
        <time>2012-07-31T19:06:46.000Z</time>
      </trkpt>
      <trkpt lat="45.88413" lon="6.0937">
        <ele>460</ele>
        <time>2012-07-31T19:06:54.000Z</time>
      </trkpt>
      <trkpt lat="45.88405" lon="6.09351">
        <ele>460</ele>
        <time>2012-07-31T19:06:59.000Z</time>
      </trkpt>
      <trkpt lat="45.88393" lon="6.09336">
        <ele>460</ele>
        <time>2012-07-31T19:07:04.000Z</time>
      </trkpt>
      <trkpt lat="45.8839" lon="6.09331">
        <ele>460</ele>
        <time>2012-07-31T19:07:05.000Z</time>
      </trkpt>
      <trkpt lat="45.88377" lon="6.09309">
        <ele>460</ele>
        <time>2012-07-31T19:07:09.000Z</time>
      </trkpt>
      <trkpt lat="45.88374" lon="6.09303">
        <ele>461.20001220703</ele>
        <time>2012-07-31T19:07:10.000Z</time>
      </trkpt>
      <trkpt lat="45.88357" lon="6.09273">
        <ele>461.20001220703</ele>
        <time>2012-07-31T19:07:16.000Z</time>
      </trkpt>
      <trkpt lat="45.88354" lon="6.09268">
        <ele>461.20001220703</ele>
        <time>2012-07-31T19:07:17.000Z</time>
      </trkpt>
      <trkpt lat="45.8833" lon="6.09228">
        <ele>461.20001220703</ele>
        <time>2012-07-31T19:07:25.000Z</time>
      </trkpt>
      <trkpt lat="45.88327" lon="6.09223">
        <ele>462.20001220703</ele>
        <time>2012-07-31T19:07:26.000Z</time>
      </trkpt>
      <trkpt lat="45.88318" lon="6.09209">
        <ele>463.39999389648</ele>
        <time>2012-07-31T19:07:29.000Z</time>
      </trkpt>
      <trkpt lat="45.88313" lon="6.092">
        <ele>463.39999389648</ele>
        <time>2012-07-31T19:07:31.000Z</time>
      </trkpt>
      <trkpt lat="45.88298" lon="6.09174">
        <ele>463.39999389648</ele>
        <time>2012-07-31T19:07:37.000Z</time>
      </trkpt>
      <trkpt lat="45.88275" lon="6.09146">
        <ele>463.39999389648</ele>
        <time>2012-07-31T19:07:44.000Z</time>
      </trkpt>
      <trkpt lat="45.88255" lon="6.09139">
        <ele>463.39999389648</ele>
        <time>2012-07-31T19:07:49.000Z</time>
      </trkpt>
      <trkpt lat="45.88244" lon="6.09139">
        <ele>465.39999389648</ele>
        <time>2012-07-31T19:07:52.000Z</time>
      </trkpt>
      <trkpt lat="45.88227" lon="6.09143">
        <ele>465.39999389648</ele>
        <time>2012-07-31T19:07:57.000Z</time>
      </trkpt>
      <trkpt lat="45.88224" lon="6.09144">
        <ele>466.39999389648</ele>
        <time>2012-07-31T19:07:58.000Z</time>
      </trkpt>
      <trkpt lat="45.88208" lon="6.09146">
        <ele>466.39999389648</ele>
        <time>2012-07-31T19:08:04.000Z</time>
      </trkpt>
      <trkpt lat="45.88203" lon="6.09143">
        <ele>466.39999389648</ele>
        <time>2012-07-31T19:08:06.000Z</time>
      </trkpt>
      <trkpt lat="45.88201" lon="6.0914">
        <ele>467.39999389648</ele>
        <time>2012-07-31T19:08:07.000Z</time>
      </trkpt>
      <trkpt lat="45.882" lon="6.09136">
        <ele>467.39999389648</ele>
        <time>2012-07-31T19:08:08.000Z</time>
      </trkpt>
      <trkpt lat="45.88199" lon="6.09128">
        <ele>467.39999389648</ele>
        <time>2012-07-31T19:08:10.000Z</time>
      </trkpt>
      <trkpt lat="45.88197" lon="6.09111">
        <ele>467.39999389648</ele>
        <time>2012-07-31T19:08:14.000Z</time>
      </trkpt>
      <trkpt lat="45.8819" lon="6.09077">
        <ele>467.39999389648</ele>
        <time>2012-07-31T19:08:22.000Z</time>
      </trkpt>
      <trkpt lat="45.88187" lon="6.09065">
        <ele>465</ele>
        <time>2012-07-31T19:08:25.000Z</time>
      </trkpt>
      <trkpt lat="45.88186" lon="6.09061">
        <ele>460.79998779297</ele>
        <time>2012-07-31T19:08:26.000Z</time>
      </trkpt>
      <trkpt lat="45.88185" lon="6.09058">
        <ele>464.60000610352</ele>
        <time>2012-07-31T19:08:27.000Z</time>
      </trkpt>
      <trkpt lat="45.88185" lon="6.09054">
        <ele>469.20001220703</ele>
        <time>2012-07-31T19:08:28.000Z</time>
      </trkpt>
      <trkpt lat="45.88184" lon="6.0905">
        <ele>469.20001220703</ele>
        <time>2012-07-31T19:08:29.000Z</time>
      </trkpt>
      <trkpt lat="45.88184" lon="6.09035">
        <ele>471.39999389648</ele>
        <time>2012-07-31T19:08:33.000Z</time>
      </trkpt>
      <trkpt lat="45.88184" lon="6.09031">
        <ele>471.39999389648</ele>
        <time>2012-07-31T19:08:34.000Z</time>
      </trkpt>
      <trkpt lat="45.88178" lon="6.09006">
        <ele>471.39999389648</ele>
        <time>2012-07-31T19:08:40.000Z</time>
      </trkpt>
      <trkpt lat="45.88181" lon="6.08993">
        <ele>472.79998779297</ele>
        <time>2012-07-31T19:08:43.000Z</time>
      </trkpt>
      <trkpt lat="45.88182" lon="6.08989">
        <ele>472.79998779297</ele>
        <time>2012-07-31T19:08:44.000Z</time>
      </trkpt>
      <trkpt lat="45.8819" lon="6.08967">
        <ele>473.79998779297</ele>
        <time>2012-07-31T19:08:50.000Z</time>
      </trkpt>
      <trkpt lat="45.88191" lon="6.08938">
        <ele>473.79998779297</ele>
        <time>2012-07-31T19:08:57.000Z</time>
      </trkpt>
      <trkpt lat="45.88187" lon="6.08901">
        <ele>473.79998779297</ele>
        <time>2012-07-31T19:09:04.000Z</time>
      </trkpt>
      <trkpt lat="45.88182" lon="6.08866">
        <ele>473.79998779297</ele>
        <time>2012-07-31T19:09:09.000Z</time>
      </trkpt>
      <trkpt lat="45.88181" lon="6.08857">
        <ele>473.79998779297</ele>
        <time>2012-07-31T19:09:10.000Z</time>
      </trkpt>
      <trkpt lat="45.8818" lon="6.08823">
        <ele>473.79998779297</ele>
        <time>2012-07-31T19:09:14.000Z</time>
      </trkpt>
      <trkpt lat="45.88181" lon="6.08812">
        <ele>470.60000610352</ele>
        <time>2012-07-31T19:09:15.000Z</time>
      </trkpt>
      <trkpt lat="45.88183" lon="6.08793">
        <ele>469.39999389648</ele>
        <time>2012-07-31T19:09:17.000Z</time>
      </trkpt>
      <trkpt lat="45.88185" lon="6.08778">
        <ele>469.39999389648</ele>
        <time>2012-07-31T19:09:19.000Z</time>
      </trkpt>
      <trkpt lat="45.88189" lon="6.08771">
        <ele>469.39999389648</ele>
        <time>2012-07-31T19:09:20.000Z</time>
      </trkpt>
      <trkpt lat="45.88194" lon="6.08768">
        <ele>468.39999389648</ele>
        <time>2012-07-31T19:09:21.000Z</time>
      </trkpt>
      <trkpt lat="45.88199" lon="6.08768">
        <ele>468.39999389648</ele>
        <time>2012-07-31T19:09:22.000Z</time>
      </trkpt>
      <trkpt lat="45.88212" lon="6.08778">
        <ele>468.39999389648</ele>
        <time>2012-07-31T19:09:25.000Z</time>
      </trkpt>
      <trkpt lat="45.88215" lon="6.08782">
        <ele>468.39999389648</ele>
        <time>2012-07-31T19:09:26.000Z</time>
      </trkpt>
      <trkpt lat="45.88227" lon="6.08802">
        <ele>468.39999389648</ele>
        <time>2012-07-31T19:09:31.000Z</time>
      </trkpt>
      <trkpt lat="45.88232" lon="6.08814">
        <ele>471.39999389648</ele>
        <time>2012-07-31T19:09:34.000Z</time>
      </trkpt>
      <trkpt lat="45.88238" lon="6.08825">
        <ele>472.60000610352</ele>
        <time>2012-07-31T19:09:37.000Z</time>
      </trkpt>
      <trkpt lat="45.8824" lon="6.08829">
        <ele>472.60000610352</ele>
        <time>2012-07-31T19:09:38.000Z</time>
      </trkpt>
      <trkpt lat="45.88245" lon="6.08831">
        <ele>472.60000610352</ele>
        <time>2012-07-31T19:09:40.000Z</time>
      </trkpt>
      <trkpt lat="45.8825" lon="6.0883">
        <ele>472.60000610352</ele>
        <time>2012-07-31T19:09:42.000Z</time>
      </trkpt>
      <trkpt lat="45.88267" lon="6.08824">
        <ele>472.60000610352</ele>
        <time>2012-07-31T19:09:46.000Z</time>
      </trkpt>
      <trkpt lat="45.88287" lon="6.08825">
        <ele>472.60000610352</ele>
        <time>2012-07-31T19:09:51.000Z</time>
      </trkpt>
      <trkpt lat="45.88289" lon="6.08832">
        <ele>472.60000610352</ele>
        <time>2012-07-31T19:09:55.000Z</time>
      </trkpt>
      <trkpt lat="45.88289" lon="6.08833">
        <ele>469</ele>
        <time>2012-07-31T19:09:58.000Z</time>
      </trkpt>
      <trkpt lat="45.88289" lon="6.08833">
        <ele>472</ele>
        <time>2012-07-31T19:10:00.000Z</time>
      </trkpt>
      <trkpt lat="45.88286" lon="6.08834">
        <ele>472</ele>
        <time>2012-07-31T19:10:04.000Z</time>
      </trkpt>
      <trkpt lat="45.88286" lon="6.08833">
        <ele>472</ele>
        <time>2012-07-31T19:10:09.000Z</time>
      </trkpt>
      <trkpt lat="45.88285" lon="6.08832">
        <ele>472</ele>
        <time>2012-07-31T19:10:10.000Z</time>
      </trkpt>
      <trkpt lat="45.88285" lon="6.08831">
        <ele>472</ele>
        <time>2012-07-31T19:10:13.000Z</time>
      </trkpt>
      <trkpt lat="45.88284" lon="6.08832">
        <ele>472</ele>
        <time>2012-07-31T19:10:18.000Z</time>
      </trkpt>
      <trkpt lat="45.88283" lon="6.08832">
        <ele>472</ele>
        <time>2012-07-31T19:10:21.000Z</time>
      </trkpt>
      <trkpt lat="45.88283" lon="6.08831">
        <ele>472</ele>
        <time>2012-07-31T19:10:24.000Z</time>
      </trkpt>
      <trkpt lat="45.88285" lon="6.0883">
        <ele>472</ele>
        <time>2012-07-31T19:10:29.000Z</time>
      </trkpt>
      <trkpt lat="45.88283" lon="6.08832">
        <ele>472</ele>
        <time>2012-07-31T19:10:34.000Z</time>
      </trkpt>
    </trkseg>
  </trk>
</gpx>